Wetterdaten: Freitag, 02.12.2016
Datum Zeit Temp. A. Temp. A. max Feuchte A. Luftdruck Regen Wind Richtung Richtung Sonnenschein ET UV Solar Taupunkt Windböen
02.12.2016 00:00 -0,3 °C -0,2 °C 64 % 1023,2 hPa 0,0 mm 1,2 km/h (1 Bft) NO 54 ° 0 min 0,000 mm 0,0 UV-I 0 W/m² -6,3 °C 3,2 km/h (1 Bft)
02.12.2016 00:01 -0,3 °C -0,3 °C 64 % 1023,2 hPa 0,0 mm 2,0 km/h (1 Bft) NO 55 ° 0 min 0,000 mm 0,0 UV-I 0 W/m² -6,3 °C 3,2 km/h (1 Bft)
02.12.2016 00:02 -0,3 °C -0,3 °C 64 % 1023,2 hPa 0,0 mm 3,4 km/h (1 Bft) NO 54 ° 0 min 0,000 mm 0,0 UV-I 0 W/m² -6,3 °C 4,8 km/h (1 Bft)
02.12.2016 00:03 -0,4 °C -0,3 °C 65 % 1023,2 hPa 0,0 mm 4,2 km/h (1 Bft) NO 55 ° 0 min 0,000 mm 0,0 UV-I 0 W/m² -6,2 °C 4,8 km/h (1 Bft)
02.12.2016 00:04 -0,4 °C -0,4 °C 65 % 1023,2 hPa 0,0 mm 1,3 km/h (1 Bft) NO 55 ° 0 min 0,000 mm 0,0 UV-I 0 W/m² -6,2 °C 3,2 km/h (1 Bft)
02.12.2016 00:05 -0,5 °C -0,4 °C 65 % 1023,2 hPa 0,0 mm 1,9 km/h (1 Bft) NO 55 ° 0 min 0,000 mm 0,0 UV-I 0 W/m² -6,3 °C 4,8 km/h (1 Bft)
02.12.2016 00:06 -0,6 °C -0,5 °C 66 % 1023,3 hPa 0,0 mm 2,1 km/h (1 Bft) NO 54 ° 0 min 0,000 mm 0,0 UV-I 0 W/m² -6,1 °C 3,2 km/h (1 Bft)
02.12.2016 00:07 -0,7 °C -0,6 °C 66 % 1023,3 hPa 0,0 mm 2,0 km/h (1 Bft) NO 54 ° 0 min 0,000 mm 0,0 UV-I 0 W/m² -6,2 °C 3,2 km/h (1 Bft)
02.12.2016 00:08 -0,7 °C -0,7 °C 67 % 1023,4 hPa 0,0 mm 1,6 km/h (1 Bft) NO 54 ° 0 min 0,000 mm 0,0 UV-I 0 W/m² -6,0 °C 4,8 km/h (1 Bft)
02.12.2016 00:09 -0,8 °C -0,7 °C 67 % 1023,4 hPa 0,0 mm 1,3 km/h (1 Bft) NO 54 ° 0 min 0,000 mm 0,0 UV-I 0 W/m² -6,1 °C 3,2 km/h (1 Bft)
02.12.2016 00:10 -0,8 °C -0,8 °C 67 % 1023,4 hPa 0,0 mm 1,9 km/h (1 Bft) NO 55 ° 0 min 0,000 mm 0,0 UV-I 0 W/m² -6,1 °C 3,2 km/h (1 Bft)
02.12.2016 00:11 -0,9 °C -0,8 °C 67 % 1023,4 hPa 0,0 mm 0,5 km/h (0 Bft) NO 55 ° 0 min 0,000 mm 0,0 UV-I 0 W/m² -6,2 °C 1,6 km/h (1 Bft)
02.12.2016 00:12 -1,0 °C -0,9 °C 67 % 1023,4 hPa 0,0 mm 1,1 km/h (1 Bft) NO 54 ° 0 min 0,000 mm 0,0 UV-I 0 W/m² -6,3 °C 3,2 km/h (1 Bft)
02.12.2016 00:13 -1,0 °C -0,9 °C 67 % 1023,4 hPa 0,0 mm 0,9 km/h (0 Bft) NO 54 ° 0 min 0,000 mm 0,0 UV-I 0 W/m² -6,3 °C 1,6 km/h (1 Bft)
02.12.2016 00:14 -1,1 °C -1,0 °C 67 % 1023,3 hPa 0,0 mm 2,6 km/h (1 Bft) NO 54 ° 0 min 0,000 mm 0,0 UV-I 0 W/m² -6,4 °C 4,8 km/h (1 Bft)
02.12.2016 00:15 -1,1 °C -1,1 °C 68 % 1023,4 hPa 0,0 mm 0,4 km/h (0 Bft) NO 54 ° 0 min 0,000 mm 0,0 UV-I 0 W/m² -6,2 °C 1,6 km/h (1 Bft)
02.12.2016 00:16 -1,2 °C -1,1 °C 68 % 1023,4 hPa 0,0 mm 0,0 km/h (0 Bft) NO 54 ° 0 min 0,000 mm 0,0 UV-I 0 W/m² -6,3 °C 0,0 km/h (0 Bft)
02.12.2016 00:17 -1,2 °C -1,2 °C 68 % 1023,4 hPa 0,0 mm 0,3 km/h (0 Bft) NO 54 ° 0 min 0,000 mm 0,0 UV-I 0 W/m² -6,3 °C 1,6 km/h (1 Bft)
02.12.2016 00:18 -1,2 °C -1,2 °C 68 % 1023,4 hPa 0,0 mm 0,2 km/h (0 Bft) NO 54 ° 0 min 0,000 mm 0,0 UV-I 0 W/m² -6,3 °C 1,6 km/h (1 Bft)
02.12.2016 00:19 -1,3 °C -1,2 °C 68 % 1023,4 hPa 0,0 mm 0,2 km/h (0 Bft) NO 55 ° 0 min 0,000 mm 0,0 UV-I 0 W/m² -6,4 °C 1,6 km/h (1 Bft)
02.12.2016 00:20 -1,4 °C -1,3 °C 69 % 1023,4 hPa 0,0 mm 0,0 km/h (0 Bft) NO 54 ° 0 min 0,000 mm 0,0 UV-I 0 W/m² -6,3 °C 0,0 km/h (0 Bft)
02.12.2016 00:21 -1,4 °C -1,4 °C 69 % 1023,4 hPa 0,0 mm 1,6 km/h (1 Bft) NO 54 ° 0 min 0,000 mm 0,0 UV-I 0 W/m² -6,3 °C 3,2 km/h (1 Bft)
02.12.2016 00:22 -1,4 °C -1,4 °C 69 % 1023,4 hPa 0,0 mm 0,2 km/h (0 Bft) NO 54 ° 0 min 0,000 mm 0,0 UV-I 0 W/m² -6,3 °C 1,6 km/h (1 Bft)
02.12.2016 00:23 -1,4 °C -1,4 °C 69 % 1023,4 hPa 0,0 mm 0,0 km/h (0 Bft) NO 54 ° 0 min 0,000 mm 0,0 UV-I 0 W/m² -6,3 °C 0,0 km/h (0 Bft)
02.12.2016 00:24 -1,6 °C -1,4 °C 70 % 1023,4 hPa 0,0 mm 0,0 km/h (0 Bft) NO 55 ° 0 min 0,000 mm 0,0 UV-I 0 W/m² -6,3 °C 0,0 km/h (0 Bft)
02.12.2016 00:25 -1,6 °C -1,6 °C 70 % 1023,4 hPa 0,0 mm 0,1 km/h (0 Bft) NO 54 ° 0 min 0,000 mm 0,0 UV-I 0 W/m² -6,3 °C 1,6 km/h (1 Bft)
02.12.2016 00:26 -1,7 °C -1,6 °C 71 % 1023,3 hPa 0,0 mm 0,7 km/h (0 Bft) NO 54 ° 0 min 0,000 mm 0,0 UV-I 0 W/m² -6,2 °C 1,6 km/h (1 Bft)
02.12.2016 00:27 -1,7 °C -1,7 °C 71 % 1023,3 hPa 0,0 mm 0,1 km/h (0 Bft) NO 54 ° 0 min 0,000 mm 0,0 UV-I 0 W/m² -6,2 °C 1,6 km/h (1 Bft)
02.12.2016 00:28 -1,8 °C -1,7 °C 71 % 1023,3 hPa 0,0 mm 0,8 km/h (0 Bft) NO 54 ° 0 min 0,000 mm 0,0 UV-I 0 W/m² -6,3 °C 1,6 km/h (1 Bft)
02.12.2016 00:29 -1,8 °C -1,8 °C 72 % 1023,3 hPa 0,0 mm 0,9 km/h (0 Bft) NO 54 ° 0 min 0,000 mm 0,0 UV-I 0 W/m² -6,2 °C 1,6 km/h (1 Bft)
02.12.2016 00:30 -1,8 °C -1,8 °C 72 % 1023,3 hPa 0,0 mm 0,0 km/h (0 Bft) NO 54 ° 0 min 0,000 mm 0,0 UV-I 0 W/m² -6,2 °C 0,0 km/h (0 Bft)
02.12.2016 00:31 -1,9 °C -1,8 °C 72 % 1023,3 hPa 0,0 mm 1,3 km/h (1 Bft) NO 55 ° 0 min 0,000 mm 0,0 UV-I 0 W/m² -6,3 °C 3,2 km/h (1 Bft)
02.12.2016 00:32 -1,9 °C -1,9 °C 72 % 1023,2 hPa 0,0 mm 1,7 km/h (1 Bft) O-NO 73 ° 0 min 0,000 mm 0,0 UV-I 0 W/m² -6,3 °C 3,2 km/h (1 Bft)
02.12.2016 00:33 -1,9 °C -1,9 °C 73 % 1023,2 hPa 0,0 mm 3,8 km/h (1 Bft) O-NO 57 ° 0 min 0,000 mm 0,0 UV-I 0 W/m² -6,1 °C 4,8 km/h (1 Bft)
02.12.2016 00:34 -1,9 °C -1,9 °C 73 % 1023,2 hPa 0,0 mm 3,9 km/h (1 Bft) O-NO 63 ° 0 min 0,000 mm 0,0 UV-I 0 W/m² -6,1 °C 6,4 km/h (2 Bft)
02.12.2016 00:35 -2,0 °C -1,9 °C 74 % 1023,1 hPa 0,0 mm 2,1 km/h (1 Bft) O-NO 63 ° 0 min 0,000 mm 0,0 UV-I 0 W/m² -6,0 °C 4,8 km/h (1 Bft)
02.12.2016 00:36 -2,0 °C -2,0 °C 73 % 1023,1 hPa 0,0 mm 1,1 km/h (1 Bft) O-NO 63 ° 0 min 0,000 mm 0,0 UV-I 0 W/m² -6,2 °C 3,2 km/h (1 Bft)
02.12.2016 00:37 -2,1 °C -2,0 °C 74 % 1023,1 hPa 0,0 mm 0,3 km/h (0 Bft) O-NO 63 ° 0 min 0,000 mm 0,0 UV-I 0 W/m² -6,1 °C 1,6 km/h (1 Bft)
02.12.2016 00:38 -2,1 °C -2,1 °C 74 % 1023,2 hPa 0,0 mm 0,2 km/h (0 Bft) O-NO 63 ° 0 min 0,000 mm 0,0 UV-I 0 W/m² -6,1 °C 1,6 km/h (1 Bft)
02.12.2016 00:39 -2,1 °C -2,1 °C 74 % 1023,1 hPa 0,0 mm 0,0 km/h (0 Bft) O-NO 63 ° 0 min 0,000 mm 0,0 UV-I 0 W/m² -6,1 °C 0,0 km/h (0 Bft)
02.12.2016 00:40 -2,2 °C -2,1 °C 75 % 1023,1 hPa 0,0 mm 0,1 km/h (0 Bft) O-NO 63 ° 0 min 0,000 mm 0,0 UV-I 0 W/m² -6,0 °C 1,6 km/h (1 Bft)
02.12.2016 00:41 -2,2 °C -2,2 °C 75 % 1023,1 hPa 0,0 mm 0,0 km/h (0 Bft) O-NO 63 ° 0 min 0,000 mm 0,0 UV-I 0 W/m² -6,0 °C 0,0 km/h (0 Bft)
02.12.2016 00:42 -2,2 °C -2,2 °C 75 % 1023,1 hPa 0,0 mm 0,1 km/h (0 Bft) O-NO 63 ° 0 min 0,000 mm 0,0 UV-I 0 W/m² -6,0 °C 1,6 km/h (1 Bft)
02.12.2016 00:43 -2,3 °C -2,2 °C 76 % 1023,2 hPa 0,0 mm 0,9 km/h (0 Bft) O-NO 63 ° 0 min 0,000 mm 0,0 UV-I 0 W/m² -5,9 °C 1,6 km/h (1 Bft)
02.12.2016 00:44 -2,3 °C -2,3 °C 76 % 1023,2 hPa 0,0 mm 0,8 km/h (0 Bft) O-NO 63 ° 0 min 0,000 mm 0,0 UV-I 0 W/m² -5,9 °C 1,6 km/h (1 Bft)
02.12.2016 00:45 -2,3 °C -2,3 °C 76 % 1023,2 hPa 0,0 mm 1,5 km/h (1 Bft) O-NO 63 ° 0 min 0,000 mm 0,0 UV-I 0 W/m² -5,9 °C 1,6 km/h (1 Bft)
02.12.2016 00:46 -2,3 °C -2,3 °C 76 % 1023,2 hPa 0,0 mm 0,6 km/h (0 Bft) O-NO 63 ° 0 min 0,000 mm 0,0 UV-I 0 W/m² -5,9 °C 1,6 km/h (1 Bft)
02.12.2016 00:47 -2,4 °C -2,3 °C 76 % 1023,2 hPa 0,0 mm 0,0 km/h (0 Bft) O-NO 63 ° 0 min 0,000 mm 0,0 UV-I 0 W/m² -6,0 °C 0,0 km/h (0 Bft)
02.12.2016 00:48 -2,4 °C -2,3 °C 76 % 1023,1 hPa 0,0 mm 0,0 km/h (0 Bft) O-NO 63 ° 0 min 0,000 mm 0,0 UV-I 0 W/m² -6,0 °C 0,0 km/h (0 Bft)
02.12.2016 00:49 -2,4 °C -2,3 °C 76 % 1023,2 hPa 0,0 mm 0,0 km/h (0 Bft) O-NO 63 ° 0 min 0,000 mm 0,0 UV-I 0 W/m² -6,0 °C 0,0 km/h (0 Bft)
02.12.2016 00:50 -2,4 °C -2,4 °C 77 % 1023,2 hPa 0,0 mm 0,0 km/h (0 Bft) O-NO 63 ° 0 min 0,000 mm 0,0 UV-I 0 W/m² -5,9 °C 0,0 km/h (0 Bft)
02.12.2016 00:51 -2,4 °C -2,4 °C 77 % 1023,2 hPa 0,0 mm 0,0 km/h (0 Bft) O-NO 63 ° 0 min 0,000 mm 0,0 UV-I 0 W/m² -5,9 °C 0,0 km/h (0 Bft)
02.12.2016 00:52 -2,5 °C -2,4 °C 77 % 1023,1 hPa 0,0 mm 0,0 km/h (0 Bft) O-NO 63 ° 0 min 0,000 mm 0,0 UV-I 0 W/m² -6,0 °C 0,0 km/h (0 Bft)
02.12.2016 00:53 -2,5 °C -2,5 °C 78 % 1023,1 hPa 0,0 mm 0,0 km/h (0 Bft) O-NO 63 ° 0 min 0,000 mm 0,0 UV-I 0 W/m² -5,8 °C 0,0 km/h (0 Bft)
02.12.2016 00:54 -2,5 °C -2,5 °C 78 % 1023,1 hPa 0,0 mm 0,0 km/h (0 Bft) O-NO 63 ° 0 min 0,000 mm 0,0 UV-I 0 W/m² -5,8 °C 0,0 km/h (0 Bft)
02.12.2016 00:55 -2,5 °C -2,5 °C 77 % 1023,1 hPa 0,0 mm 0,0 km/h (0 Bft) O-NO 63 ° 0 min 0,000 mm 0,0 UV-I 0 W/m² -6,0 °C 0,0 km/h (0 Bft)
02.12.2016 00:56 -2,5 °C -2,5 °C 78 % 1023,1 hPa 0,0 mm 0,0 km/h (0 Bft) O-NO 63 ° 0 min 0,000 mm 0,0 UV-I 0 W/m² -5,8 °C 0,0 km/h (0 Bft)
02.12.2016 00:57 -2,6 °C -2,5 °C 78 % 1023,1 hPa 0,0 mm 0,0 km/h (0 Bft) O-NO 63 ° 0 min 0,000 mm 0,0 UV-I 0 W/m² -5,9 °C 0,0 km/h (0 Bft)
02.12.2016 00:58 -2,6 °C -2,6 °C 78 % 1023,1 hPa 0,0 mm 0,0 km/h (0 Bft) O-NO 63 ° 0 min 0,000 mm 0,0 UV-I 0 W/m² -5,9 °C 0,0 km/h (0 Bft)
02.12.2016 00:59 -2,6 °C -2,5 °C 78 % 1023,1 hPa 0,0 mm 0,0 km/h (0 Bft) O-NO 63 ° 0 min 0,000 mm 0,0 UV-I 0 W/m² -5,9 °C 0,0 km/h (0 Bft)
02.12.2016 01:00 -2,6 °C -2,6 °C 79 % 1023,1 hPa 0,0 mm 0,0 km/h (0 Bft) O-NO 63 ° 0 min 0,025 mm 0,0 UV-I 0 W/m² -5,7 °C 0,0 km/h (0 Bft)
02.12.2016 01:01 -2,6 °C -2,6 °C 79 % 1023,1 hPa 0,0 mm 0,0 km/h (0 Bft) O-NO 63 ° 0 min 0,000 mm 0,0 UV-I 0 W/m² -5,7 °C 0,0 km/h (0 Bft)
02.12.2016 01:02 -2,6 °C -2,6 °C 79 % 1023,1 hPa 0,0 mm 0,0 km/h (0 Bft) O-NO 63 ° 0 min 0,000 mm 0,0 UV-I 0 W/m² -5,7 °C 0,0 km/h (0 Bft)
02.12.2016 01:03 -2,6 °C -2,6 °C 78 % 1023,1 hPa 0,0 mm 0,0 km/h (0 Bft) O-NO 63 ° 0 min 0,000 mm 0,0 UV-I 0 W/m² -5,9 °C 0,0 km/h (0 Bft)
02.12.2016 01:04 -2,6 °C -2,6 °C 78 % 1023,0 hPa 0,0 mm 0,0 km/h (0 Bft) O-NO 63 ° 0 min 0,000 mm 0,0 UV-I 0 W/m² -5,9 °C 0,0 km/h (0 Bft)
02.12.2016 01:05 -2,6 °C -2,6 °C 78 % 1023,0 hPa 0,0 mm 0,0 km/h (0 Bft) O-NO 63 ° 0 min 0,000 mm 0,0 UV-I 0 W/m² -5,9 °C 0,0 km/h (0 Bft)
02.12.2016 01:06 -2,6 °C -2,6 °C 78 % 1023,0 hPa 0,0 mm 0,0 km/h (0 Bft) O-NO 63 ° 0 min 0,000 mm 0,0 UV-I 0 W/m² -5,9 °C 0,0 km/h (0 Bft)
02.12.2016 01:07 -2,6 °C -2,6 °C 78 % 1023,0 hPa 0,0 mm 0,0 km/h (0 Bft) O-NO 63 ° 0 min 0,000 mm 0,0 UV-I 0 W/m² -5,9 °C 0,0 km/h (0 Bft)
02.12.2016 01:08 -2,6 °C -2,6 °C 79 % 1023,0 hPa 0,0 mm 0,0 km/h (0 Bft) O-NO 63 ° 0 min 0,000 mm 0,0 UV-I 0 W/m² -5,7 °C 0,0 km/h (0 Bft)
02.12.2016 01:09 -2,6 °C -2,6 °C 79 % 1022,9 hPa 0,0 mm 0,0 km/h (0 Bft) O-NO 63 ° 0 min 0,000 mm 0,0 UV-I 0 W/m² -5,7 °C 0,0 km/h (0 Bft)
02.12.2016 01:10 -2,7 °C -2,6 °C 79 % 1022,9 hPa 0,0 mm 0,0 km/h (0 Bft) O-NO 63 ° 0 min 0,000 mm 0,0 UV-I 0 W/m² -5,8 °C 0,0 km/h (0 Bft)
02.12.2016 01:11 -2,7 °C -2,7 °C 78 % 1023,0 hPa 0,0 mm 0,0 km/h (0 Bft) O-NO 63 ° 0 min 0,000 mm 0,0 UV-I 0 W/m² -6,0 °C 0,0 km/h (0 Bft)
02.12.2016 01:12 -2,7 °C -2,7 °C 79 % 1022,9 hPa 0,0 mm 0,0 km/h (0 Bft) O-NO 63 ° 0 min 0,000 mm 0,0 UV-I 0 W/m² -5,8 °C 0,0 km/h (0 Bft)
02.12.2016 01:13 -2,7 °C -2,7 °C 80 % 1022,9 hPa 0,0 mm 0,0 km/h (0 Bft) O-NO 63 ° 0 min 0,000 mm 0,0 UV-I 0 W/m² -5,7 °C 0,0 km/h (0 Bft)
02.12.2016 01:14 -2,7 °C -2,7 °C 80 % 1022,9 hPa 0,0 mm 0,0 km/h (0 Bft) O-NO 63 ° 0 min 0,000 mm 0,0 UV-I 0 W/m² -5,7 °C 0,0 km/h (0 Bft)
02.12.2016 01:15 -2,7 °C -2,7 °C 80 % 1022,9 hPa 0,0 mm 0,0 km/h (0 Bft) O-NO 63 ° 0 min 0,000 mm 0,0 UV-I 0 W/m² -5,7 °C 0,0 km/h (0 Bft)
02.12.2016 01:16 -2,7 °C -2,7 °C 80 % 1022,9 hPa 0,0 mm 0,0 km/h (0 Bft) O-NO 63 ° 0 min 0,000 mm 0,0 UV-I 0 W/m² -5,7 °C 0,0 km/h (0 Bft)
02.12.2016 01:17 -2,7 °C -2,7 °C 80 % 1022,9 hPa 0,0 mm 0,0 km/h (0 Bft) O-NO 63 ° 0 min 0,000 mm 0,0 UV-I 0 W/m² -5,7 °C 0,0 km/h (0 Bft)
02.12.2016 01:18 -2,7 °C -2,7 °C 80 % 1022,9 hPa 0,0 mm 0,0 km/h (0 Bft) O-NO 63 ° 0 min 0,000 mm 0,0 UV-I 0 W/m² -5,7 °C 0,0 km/h (0 Bft)
02.12.2016 01:19 -2,7 °C -2,7 °C 80 % 1022,9 hPa 0,0 mm 0,0 km/h (0 Bft) O-NO 63 ° 0 min 0,000 mm 0,0 UV-I 0 W/m² -5,7 °C 0,0 km/h (0 Bft)
02.12.2016 01:20 -2,7 °C -2,7 °C 80 % 1022,9 hPa 0,0 mm 0,0 km/h (0 Bft) O-NO 63 ° 0 min 0,000 mm 0,0 UV-I 0 W/m² -5,7 °C 0,0 km/h (0 Bft)
02.12.2016 01:21 -2,7 °C -2,7 °C 80 % 1022,9 hPa 0,0 mm 0,0 km/h (0 Bft) O-NO 63 ° 0 min 0,000 mm 0,0 UV-I 0 W/m² -5,7 °C 0,0 km/h (0 Bft)
02.12.2016 01:22 -2,7 °C -2,7 °C 80 % 1022,9 hPa 0,0 mm 0,0 km/h (0 Bft) O-NO 63 ° 0 min 0,000 mm 0,0 UV-I 0 W/m² -5,7 °C 0,0 km/h (0 Bft)
02.12.2016 01:23 -2,8 °C -2,7 °C 80 % 1022,9 hPa 0,0 mm 0,0 km/h (0 Bft) O-NO 63 ° 0 min 0,000 mm 0,0 UV-I 0 W/m² -5,8 °C 0,0 km/h (0 Bft)
02.12.2016 01:24 -2,7 °C -2,7 °C 80 % 1022,9 hPa 0,0 mm 0,0 km/h (0 Bft) O-NO 63 ° 0 min 0,000 mm 0,0 UV-I 0 W/m² -5,7 °C 0,0 km/h (0 Bft)
02.12.2016 01:25 -2,7 °C -2,7 °C 79 % 1022,9 hPa 0,0 mm 0,0 km/h (0 Bft) O-NO 63 ° 0 min 0,000 mm 0,0 UV-I 0 W/m² -5,8 °C 0,0 km/h (0 Bft)
02.12.2016 01:26 -2,8 °C -2,7 °C 79 % 1022,9 hPa 0,0 mm 0,0 km/h (0 Bft) O-NO 63 ° 0 min 0,000 mm 0,0 UV-I 0 W/m² -5,9 °C 0,0 km/h (0 Bft)
02.12.2016 01:27 -2,8 °C -2,7 °C 79 % 1022,9 hPa 0,0 mm 0,0 km/h (0 Bft) O-NO 63 ° 0 min 0,000 mm 0,0 UV-I 0 W/m² -5,9 °C 0,0 km/h (0 Bft)
02.12.2016 01:28 -2,8 °C -2,8 °C 79 % 1022,9 hPa 0,0 mm 0,0 km/h (0 Bft) O-NO 63 ° 0 min 0,000 mm 0,0 UV-I 0 W/m² -5,9 °C 0,0 km/h (0 Bft)
02.12.2016 01:29 -2,8 °C -2,8 °C 79 % 1022,9 hPa 0,0 mm 0,0 km/h (0 Bft) O-NO 63 ° 0 min 0,000 mm 0,0 UV-I 0 W/m² -5,9 °C 0,0 km/h (0 Bft)
02.12.2016 01:30 -2,8 °C -2,8 °C 79 % 1023,0 hPa 0,0 mm 0,0 km/h (0 Bft) O-NO 63 ° 0 min 0,000 mm 0,0 UV-I 0 W/m² -5,9 °C 0,0 km/h (0 Bft)
02.12.2016 01:31 -2,8 °C -2,8 °C 79 % 1022,9 hPa 0,0 mm 0,0 km/h (0 Bft) O-NO 63 ° 0 min 0,000 mm 0,0 UV-I 0 W/m² -5,9 °C 0,0 km/h (0 Bft)
02.12.2016 01:32 -2,9 °C -2,8 °C 78 % 1022,9 hPa 0,0 mm 0,0 km/h (0 Bft) O-NO 63 ° 0 min 0,000 mm 0,0 UV-I 0 W/m² -6,2 °C 0,0 km/h (0 Bft)
02.12.2016 01:33 -2,9 °C -2,8 °C 78 % 1022,9 hPa 0,0 mm 0,0 km/h (0 Bft) O-NO 63 ° 0 min 0,000 mm 0,0 UV-I 0 W/m² -6,2 °C 0,0 km/h (0 Bft)
02.12.2016 01:34 -2,9 °C -2,9 °C 78 % 1022,9 hPa 0,0 mm 0,0 km/h (0 Bft) O-NO 63 ° 0 min 0,000 mm 0,0 UV-I 0 W/m² -6,2 °C 0,0 km/h (0 Bft)
02.12.2016 01:35 -2,9 °C -2,9 °C 78 % 1022,9 hPa 0,0 mm 0,0 km/h (0 Bft) O-NO 63 ° 0 min 0,000 mm 0,0 UV-I 0 W/m² -6,2 °C 0,0 km/h (0 Bft)
02.12.2016 01:36 -2,9 °C -2,9 °C 79 % 1022,8 hPa 0,0 mm 0,0 km/h (0 Bft) O-NO 63 ° 0 min 0,000 mm 0,0 UV-I 0 W/m² -6,0 °C 0,0 km/h (0 Bft)
02.12.2016 01:37 -3,0 °C -2,9 °C 79 % 1022,8 hPa 0,0 mm 0,0 km/h (0 Bft) O-NO 63 ° 0 min 0,000 mm 0,0 UV-I 0 W/m² -6,1 °C 0,0 km/h (0 Bft)
02.12.2016 01:38 -3,1 °C -3,0 °C 79 % 1022,8 hPa 0,0 mm 0,0 km/h (0 Bft) O-NO 63 ° 0 min 0,000 mm 0,0 UV-I 0 W/m² -6,2 °C 0,0 km/h (0 Bft)
02.12.2016 01:39 -3,1 °C -3,1 °C 79 % 1022,8 hPa 0,0 mm 0,4 km/h (0 Bft) O-NO 63 ° 0 min 0,000 mm 0,0 UV-I 0 W/m² -6,2 °C 3,2 km/h (1 Bft)
02.12.2016 01:40 -3,1 °C -3,1 °C 80 % 1022,8 hPa 0,0 mm 1,9 km/h (1 Bft) O-NO 63 ° 0 min 0,000 mm 0,0 UV-I 0 W/m² -6,0 °C 3,2 km/h (1 Bft)
02.12.2016 01:41 -3,2 °C -3,1 °C 80 % 1022,7 hPa 0,0 mm 0,6 km/h (0 Bft) O-NO 63 ° 0 min 0,000 mm 0,0 UV-I 0 W/m² -6,1 °C 3,2 km/h (1 Bft)
02.12.2016 01:42 -3,2 °C -3,2 °C 80 % 1022,8 hPa 0,0 mm 0,1 km/h (0 Bft) O-NO 63 ° 0 min 0,000 mm 0,0 UV-I 0 W/m² -6,1 °C 1,6 km/h (1 Bft)
02.12.2016 01:43 -3,2 °C -3,2 °C 81 % 1022,8 hPa 0,0 mm 1,8 km/h (1 Bft) O-NO 63 ° 0 min 0,000 mm 0,0 UV-I 0 W/m² -6,0 °C 3,2 km/h (1 Bft)
02.12.2016 01:44 -3,2 °C -3,2 °C 81 % 1022,8 hPa 0,0 mm 1,5 km/h (1 Bft) O-NO 63 ° 0 min 0,000 mm 0,0 UV-I 0 W/m² -6,0 °C 3,2 km/h (1 Bft)
02.12.2016 01:45 -3,3 °C -3,2 °C 81 % 1022,8 hPa 0,0 mm 1,7 km/h (1 Bft) O-NO 63 ° 0 min 0,000 mm 0,0 UV-I 0 W/m² -6,1 °C 3,2 km/h (1 Bft)
02.12.2016 01:46 -3,3 °C -3,2 °C 81 % 1022,7 hPa 0,0 mm 2,6 km/h (1 Bft) O-NO 63 ° 0 min 0,000 mm 0,0 UV-I 0 W/m² -6,1 °C 3,2 km/h (1 Bft)
02.12.2016 01:47 -3,3 °C -3,3 °C 81 % 1022,6 hPa 0,0 mm 0,1 km/h (0 Bft) O-NO 63 ° 0 min 0,000 mm 0,0 UV-I 0 W/m² -6,1 °C 1,6 km/h (1 Bft)
02.12.2016 01:48 -3,3 °C -3,3 °C 81 % 1022,7 hPa 0,0 mm 0,0 km/h (0 Bft) O-NO 63 ° 0 min 0,000 mm 0,0 UV-I 0 W/m² -6,1 °C 0,0 km/h (0 Bft)
02.12.2016 01:49 -3,3 °C -3,3 °C 81 % 1022,7 hPa 0,0 mm 0,5 km/h (0 Bft) O-NO 63 ° 0 min 0,000 mm 0,0 UV-I 0 W/m² -6,1 °C 1,6 km/h (1 Bft)
02.12.2016 01:51 -3,3 °C -3,3 °C 82 % 1022,6 hPa 0,0 mm 4,8 km/h (1 Bft) O-NO 74 ° 0 min 0,000 mm 0,0 UV-I 0 W/m² -5,9 °C 4,8 km/h (1 Bft)
02.12.2016 01:52 -3,3 °C -3,3 °C 82 % 1022,6 hPa 0,0 mm 2,7 km/h (1 Bft) O-NO 74 ° 0 min 0,000 mm 0,0 UV-I 0 W/m² -5,9 °C 4,8 km/h (1 Bft)
02.12.2016 01:53 -3,3 °C -3,3 °C 82 % 1022,7 hPa 0,0 mm 0,4 km/h (0 Bft) O-NO 74 ° 0 min 0,000 mm 0,0 UV-I 0 W/m² -5,9 °C 1,6 km/h (1 Bft)
02.12.2016 01:54 -3,3 °C -3,3 °C 82 % 1022,7 hPa 0,0 mm 1,5 km/h (1 Bft) O-NO 75 ° 0 min 0,000 mm 0,0 UV-I 0 W/m² -5,9 °C 4,8 km/h (1 Bft)
02.12.2016 01:55 -3,3 °C -3,3 °C 82 % 1022,7 hPa 0,0 mm 2,9 km/h (1 Bft) O-NO 76 ° 0 min 0,000 mm 0,0 UV-I 0 W/m² -5,9 °C 3,2 km/h (1 Bft)
02.12.2016 01:56 -3,3 °C -3,3 °C 82 % 1022,6 hPa 0,0 mm 2,6 km/h (1 Bft) O-NO 76 ° 0 min 0,000 mm 0,0 UV-I 0 W/m² -5,9 °C 3,2 km/h (1 Bft)
02.12.2016 01:57 -3,3 °C -3,3 °C 82 % 1022,6 hPa 0,0 mm 0,2 km/h (0 Bft) O-NO 76 ° 0 min 0,000 mm 0,0 UV-I 0 W/m² -5,9 °C 1,6 km/h (1 Bft)
02.12.2016 01:58 -3,3 °C -3,3 °C 82 % 1022,7 hPa 0,0 mm 0,0 km/h (0 Bft) O-NO 76 ° 0 min 0,000 mm 0,0 UV-I 0 W/m² -5,9 °C 0,0 km/h (0 Bft)
02.12.2016 01:59 -3,3 °C -3,3 °C 82 % 1022,7 hPa 0,0 mm 0,8 km/h (0 Bft) O-NO 76 ° 0 min 0,000 mm 0,0 UV-I 0 W/m² -5,9 °C 1,6 km/h (1 Bft)
02.12.2016 02:00 -3,3 °C -3,3 °C 82 % 1022,7 hPa 0,0 mm 0,5 km/h (0 Bft) O-NO 76 ° 0 min 0,000 mm 0,0 UV-I 0 W/m² -5,9 °C 1,6 km/h (1 Bft)
02.12.2016 02:01 -3,3 °C -3,3 °C 82 % 1022,7 hPa 0,0 mm 0,5 km/h (0 Bft) O-NO 76 ° 0 min 0,000 mm 0,0 UV-I 0 W/m² -5,9 °C 1,6 km/h (1 Bft)
02.12.2016 02:02 -3,3 °C -3,3 °C 82 % 1022,6 hPa 0,0 mm 0,7 km/h (0 Bft) O-NO 76 ° 0 min 0,000 mm 0,0 UV-I 0 W/m² -5,9 °C 1,6 km/h (1 Bft)
02.12.2016 02:03 -3,3 °C -3,3 °C 82 % 1022,6 hPa 0,0 mm 2,3 km/h (1 Bft) O-NO 76 ° 0 min 0,000 mm 0,0 UV-I 0 W/m² -5,9 °C 3,2 km/h (1 Bft)
02.12.2016 02:04 -3,3 °C -3,3 °C 82 % 1022,6 hPa 0,0 mm 1,7 km/h (1 Bft) O-NO 76 ° 0 min 0,000 mm 0,0 UV-I 0 W/m² -5,9 °C 3,2 km/h (1 Bft)
02.12.2016 02:05 -3,3 °C -3,3 °C 82 % 1022,6 hPa 0,0 mm 1,3 km/h (1 Bft) O-NO 76 ° 0 min 0,000 mm 0,0 UV-I 0 W/m² -5,9 °C 3,2 km/h (1 Bft)
02.12.2016 02:06 -3,3 °C -3,3 °C 82 % 1022,6 hPa 0,0 mm 1,2 km/h (1 Bft) O-NO 76 ° 0 min 0,000 mm 0,0 UV-I 0 W/m² -5,9 °C 1,6 km/h (1 Bft)
02.12.2016 02:07 -3,3 °C -3,3 °C 82 % 1022,6 hPa 0,0 mm 1,5 km/h (1 Bft) O-NO 76 ° 0 min 0,000 mm 0,0 UV-I 0 W/m² -5,9 °C 3,2 km/h (1 Bft)
02.12.2016 02:08 -3,3 °C -3,3 °C 82 % 1022,6 hPa 0,0 mm 2,1 km/h (1 Bft) O-NO 76 ° 0 min 0,000 mm 0,0 UV-I 0 W/m² -5,9 °C 3,2 km/h (1 Bft)
02.12.2016 02:09 -3,3 °C -3,3 °C 82 % 1022,6 hPa 0,0 mm 1,1 km/h (1 Bft) O-NO 76 ° 0 min 0,000 mm 0,0 UV-I 0 W/m² -5,9 °C 1,6 km/h (1 Bft)
02.12.2016 02:10 -3,3 °C -3,3 °C 82 % 1022,6 hPa 0,0 mm 1,5 km/h (1 Bft) O-NO 76 ° 0 min 0,000 mm 0,0 UV-I 0 W/m² -5,9 °C 3,2 km/h (1 Bft)
02.12.2016 02:11 -3,3 °C -3,3 °C 82 % 1022,5 hPa 0,0 mm 2,2 km/h (1 Bft) O-NO 76 ° 0 min 0,000 mm 0,0 UV-I 0 W/m² -5,9 °C 3,2 km/h (1 Bft)
02.12.2016 02:12 -3,2 °C -3,2 °C 82 % 1022,5 hPa 0,0 mm 5,0 km/h (1 Bft) S 174 ° 0 min 0,000 mm 0,0 UV-I 0 W/m² -5,8 °C 6,4 km/h (2 Bft)
02.12.2016 02:13 -3,2 °C -3,2 °C 82 % 1022,5 hPa 0,0 mm 3,6 km/h (1 Bft) S 183 ° 0 min 0,000 mm 0,0 UV-I 0 W/m² -5,8 °C 4,8 km/h (1 Bft)
02.12.2016 02:14 -3,2 °C -3,2 °C 82 % 1022,6 hPa 0,0 mm 1,6 km/h (1 Bft) S 183 ° 0 min 0,000 mm 0,0 UV-I 0 W/m² -5,8 °C 3,2 km/h (1 Bft)
02.12.2016 02:15 -3,3 °C -3,2 °C 81 % 1022,5 hPa 0,0 mm 2,2 km/h (1 Bft) S 183 ° 0 min 0,000 mm 0,0 UV-I 0 W/m² -6,1 °C 3,2 km/h (1 Bft)
02.12.2016 02:16 -3,3 °C -3,3 °C 81 % 1022,6 hPa 0,0 mm 3,2 km/h (1 Bft) S 183 ° 0 min 0,000 mm 0,0 UV-I 0 W/m² -6,1 °C 4,8 km/h (1 Bft)
02.12.2016 02:17 -3,3 °C -3,3 °C 82 % 1022,6 hPa 0,0 mm 0,9 km/h (0 Bft) S 183 ° 0 min 0,000 mm 0,0 UV-I 0 W/m² -5,9 °C 1,6 km/h (1 Bft)
02.12.2016 02:18 -3,3 °C -3,3 °C 81 % 1022,6 hPa 0,0 mm 0,9 km/h (0 Bft) S 183 ° 0 min 0,000 mm 0,0 UV-I 0 W/m² -6,1 °C 1,6 km/h (1 Bft)
02.12.2016 02:19 -3,3 °C -3,3 °C 81 % 1022,6 hPa 0,0 mm 0,1 km/h (0 Bft) S 183 ° 0 min 0,000 mm 0,0 UV-I 0 W/m² -6,1 °C 1,6 km/h (1 Bft)
02.12.2016 02:20 -3,3 °C -3,3 °C 80 % 1022,5 hPa 0,0 mm 0,0 km/h (0 Bft) S 183 ° 0 min 0,000 mm 0,0 UV-I 0 W/m² -6,2 °C 0,0 km/h (0 Bft)
02.12.2016 02:21 -3,3 °C -3,3 °C 80 % 1022,5 hPa 0,0 mm 0,0 km/h (0 Bft) S 183 ° 0 min 0,000 mm 0,0 UV-I 0 W/m² -6,2 °C 0,0 km/h (0 Bft)
02.12.2016 02:22 -3,4 °C -3,3 °C 80 % 1022,5 hPa 0,0 mm 0,1 km/h (0 Bft) S 183 ° 0 min 0,000 mm 0,0 UV-I 0 W/m² -6,3 °C 1,6 km/h (1 Bft)
02.12.2016 02:23 -3,4 °C -3,3 °C 80 % 1022,5 hPa 0,0 mm 0,1 km/h (0 Bft) S 183 ° 0 min 0,000 mm 0,0 UV-I 0 W/m² -6,3 °C 1,6 km/h (1 Bft)
02.12.2016 02:24 -3,4 °C -3,4 °C 80 % 1022,5 hPa 0,0 mm 0,0 km/h (0 Bft) S 183 ° 0 min 0,000 mm 0,0 UV-I 0 W/m² -6,3 °C 0,0 km/h (0 Bft)
02.12.2016 02:25 -3,4 °C -3,4 °C 80 % 1022,5 hPa 0,0 mm 0,3 km/h (0 Bft) S 183 ° 0 min 0,000 mm 0,0 UV-I 0 W/m² -6,3 °C 1,6 km/h (1 Bft)
02.12.2016 02:26 -3,4 °C -3,4 °C 80 % 1022,4 hPa 0,0 mm 2,3 km/h (1 Bft) S 183 ° 0 min 0,000 mm 0,0 UV-I 0 W/m² -6,3 °C 3,2 km/h (1 Bft)
02.12.2016 02:27 -3,4 °C -3,4 °C 81 % 1022,4 hPa 0,0 mm 2,7 km/h (1 Bft) S 183 ° 0 min 0,000 mm 0,0 UV-I 0 W/m² -6,2 °C 3,2 km/h (1 Bft)
02.12.2016 02:28 -3,4 °C -3,4 °C 82 % 1022,4 hPa 0,0 mm 2,0 km/h (1 Bft) S 183 ° 0 min 0,000 mm 0,0 UV-I 0 W/m² -6,0 °C 3,2 km/h (1 Bft)
02.12.2016 02:29 -3,5 °C -3,4 °C 82 % 1022,4 hPa 0,0 mm 2,5 km/h (1 Bft) S 183 ° 0 min 0,000 mm 0,0 UV-I 0 W/m² -6,1 °C 3,2 km/h (1 Bft)
02.12.2016 02:30 -3,4 °C -3,4 °C 82 % 1022,4 hPa 0,0 mm 4,4 km/h (1 Bft) S 170 ° 0 min 0,000 mm 0,0 UV-I 0 W/m² -6,0 °C 8,0 km/h (2 Bft)
02.12.2016 02:31 -3,4 °C -3,4 °C 83 % 1022,4 hPa 0,0 mm 3,0 km/h (1 Bft) S 170 ° 0 min 0,000 mm 0,0 UV-I 0 W/m² -5,9 °C 6,4 km/h (2 Bft)
02.12.2016 02:32 -3,4 °C -3,4 °C 83 % 1022,4 hPa 0,0 mm 0,9 km/h (0 Bft) S 170 ° 0 min 0,000 mm 0,0 UV-I 0 W/m² -5,9 °C 3,2 km/h (1 Bft)
02.12.2016 02:33 -3,4 °C -3,4 °C 83 % 1022,5 hPa 0,0 mm 0,2 km/h (0 Bft) S 170 ° 0 min 0,000 mm 0,0 UV-I 0 W/m² -5,9 °C 1,6 km/h (1 Bft)
02.12.2016 02:34 -3,4 °C -3,4 °C 83 % 1022,5 hPa 0,0 mm 0,2 km/h (0 Bft) S 170 ° 0 min 0,000 mm 0,0 UV-I 0 W/m² -5,9 °C 1,6 km/h (1 Bft)
02.12.2016 02:35 -3,4 °C -3,4 °C 83 % 1022,4 hPa 0,0 mm 1,9 km/h (1 Bft) S-SO 167 ° 0 min 0,000 mm 0,0 UV-I 0 W/m² -5,9 °C 4,8 km/h (1 Bft)
02.12.2016 02:36 -3,4 °C -3,4 °C 83 % 1022,4 hPa 0,0 mm 0,3 km/h (0 Bft) S-SO 167 ° 0 min 0,000 mm 0,0 UV-I 0 W/m² -5,9 °C 1,6 km/h (1 Bft)
02.12.2016 02:37 -3,4 °C -3,4 °C 83 % 1022,4 hPa 0,0 mm 1,9 km/h (1 Bft) S-SO 167 ° 0 min 0,000 mm 0,0 UV-I 0 W/m² -5,9 °C 4,8 km/h (1 Bft)
02.12.2016 02:38 -3,3 °C -3,3 °C 83 % 1022,4 hPa 0,0 mm 1,5 km/h (1 Bft) S-SO 167 ° 0 min 0,000 mm 0,0 UV-I 0 W/m² -5,8 °C 4,8 km/h (1 Bft)
02.12.2016 02:39 -3,3 °C -3,3 °C 83 % 1022,4 hPa 0,0 mm 0,5 km/h (0 Bft) S-SO 167 ° 0 min 0,000 mm 0,0 UV-I 0 W/m² -5,8 °C 1,6 km/h (1 Bft)
02.12.2016 02:40 -3,3 °C -3,3 °C 83 % 1022,4 hPa 0,0 mm 1,4 km/h (1 Bft) S-SO 167 ° 0 min 0,000 mm 0,0 UV-I 0 W/m² -5,8 °C 4,8 km/h (1 Bft)
02.12.2016 02:41 -3,2 °C -3,2 °C 83 % 1022,3 hPa 0,0 mm 2,5 km/h (1 Bft) S-SO 167 ° 0 min 0,000 mm 0,0 UV-I 0 W/m² -5,7 °C 4,8 km/h (1 Bft)
02.12.2016 02:42 -3,2 °C -3,2 °C 83 % 1022,3 hPa 0,0 mm 4,5 km/h (1 Bft) S-SO 167 ° 0 min 0,000 mm 0,0 UV-I 0 W/m² -5,7 °C 6,4 km/h (2 Bft)
02.12.2016 02:43 -3,2 °C -3,1 °C 83 % 1022,3 hPa 0,0 mm 1,9 km/h (1 Bft) S-SO 167 ° 0 min 0,000 mm 0,0 UV-I 0 W/m² -5,7 °C 4,8 km/h (1 Bft)
02.12.2016 02:44 -3,1 °C -3,1 °C 83 % 1022,3 hPa 0,0 mm 3,2 km/h (1 Bft) S-SO 157 ° 0 min 0,000 mm 0,0 UV-I 0 W/m² -5,6 °C 4,8 km/h (1 Bft)
02.12.2016 02:45 -3,1 °C -3,1 °C 83 % 1022,3 hPa 0,0 mm 1,6 km/h (1 Bft) S-SO 157 ° 0 min 0,000 mm 0,0 UV-I 0 W/m² -5,6 °C 4,8 km/h (1 Bft)
02.12.2016 02:46 -3,1 °C -3,1 °C 83 % 1022,3 hPa 0,0 mm 0,0 km/h (0 Bft) S-SO 157 ° 0 min 0,000 mm 0,0 UV-I 0 W/m² -5,6 °C 1,6 km/h (1 Bft)
02.12.2016 02:47 -3,0 °C -3,0 °C 83 % 1022,3 hPa 0,0 mm 0,0 km/h (0 Bft) S-SO 157 ° 0 min 0,000 mm 0,0 UV-I 0 W/m² -5,5 °C 1,6 km/h (1 Bft)
02.12.2016 02:48 -2,9 °C -2,9 °C 82 % 1022,3 hPa 0,0 mm 0,0 km/h (0 Bft) S-SO 157 ° 0 min 0,000 mm 0,0 UV-I 0 W/m² -5,5 °C 1,6 km/h (1 Bft)
02.12.2016 02:49 -3,0 °C -2,9 °C 82 % 1022,3 hPa 0,0 mm 0,0 km/h (0 Bft) S-SO 157 ° 0 min 0,000 mm 0,0 UV-I 0 W/m² -5,6 °C 1,6 km/h (1 Bft)
02.12.2016 02:50 -3,0 °C -2,9 °C 81 % 1022,2 hPa 0,0 mm 0,0 km/h (0 Bft) S-SO 157 ° 0 min 0,000 mm 0,0 UV-I 0 W/m² -5,8 °C 1,6 km/h (1 Bft)
02.12.2016 02:51 -3,0 °C -3,0 °C 81 % 1022,3 hPa 0,0 mm 0,0 km/h (0 Bft) N 0 ° 0 min 0,000 mm 0,0 UV-I 0 W/m² -5,8 °C 0,0 km/h (0 Bft)
02.12.2016 02:52 -3,1 °C -3,0 °C 80 % 1022,3 hPa 0,0 mm 0,0 km/h (0 Bft) S-SO 157 ° 0 min 0,000 mm 0,0 UV-I 0 W/m² -6,0 °C 1,6 km/h (1 Bft)
02.12.2016 02:53 -3,1 °C -3,1 °C 80 % 1022,3 hPa 0,0 mm 0,0 km/h (0 Bft) N 0 ° 0 min 0,000 mm 0,0 UV-I 0 W/m² -6,0 °C 0,0 km/h (0 Bft)
02.12.2016 02:54 -3,1 °C -3,1 °C 80 % 1022,2 hPa 0,0 mm 0,0 km/h (0 Bft) S-SO 157 ° 0 min 0,000 mm 0,0 UV-I 0 W/m² -6,0 °C 1,6 km/h (1 Bft)
02.12.2016 02:55 -3,1 °C -3,1 °C 79 % 1022,3 hPa 0,0 mm 0,0 km/h (0 Bft) S-SO 157 ° 0 min 0,000 mm 0,0 UV-I 0 W/m² -6,2 °C 1,6 km/h (1 Bft)
02.12.2016 02:56 -3,1 °C -3,1 °C 79 % 1022,2 hPa 0,0 mm 0,0 km/h (0 Bft) N 0 ° 0 min 0,000 mm 0,0 UV-I 0 W/m² -6,2 °C 0,0 km/h (0 Bft)
02.12.2016 02:57 -3,1 °C -3,1 °C 79 % 1022,3 hPa 0,0 mm 0,0 km/h (0 Bft) N 0 ° 0 min 0,000 mm 0,0 UV-I 0 W/m² -6,2 °C 0,0 km/h (0 Bft)
02.12.2016 02:58 -3,2 °C -3,1 °C 79 % 1022,4 hPa 0,0 mm 0,0 km/h (0 Bft) N 0 ° 0 min 0,000 mm 0,0 UV-I 0 W/m² -6,3 °C 0,0 km/h (0 Bft)
02.12.2016 02:59 -3,2 °C -3,1 °C 79 % 1022,4 hPa 0,0 mm 0,0 km/h (0 Bft) N 0 ° 0 min 0,000 mm 0,0 UV-I 0 W/m² -6,3 °C 0,0 km/h (0 Bft)
02.12.2016 03:00 -3,2 °C -3,1 °C 80 % 1022,4 hPa 0,0 mm 0,0 km/h (0 Bft) N 0 ° 0 min 0,000 mm 0,0 UV-I 0 W/m² -6,1 °C 0,0 km/h (0 Bft)
02.12.2016 03:01 -3,2 °C -3,2 °C 80 % 1022,4 hPa 0,0 mm 0,0 km/h (0 Bft) N 0 ° 0 min 0,000 mm 0,0 UV-I 0 W/m² -6,1 °C 0,0 km/h (0 Bft)
02.12.2016 03:02 -3,2 °C -3,2 °C 80 % 1022,4 hPa 0,0 mm 0,0 km/h (0 Bft) N 0 ° 0 min 0,000 mm 0,0 UV-I 0 W/m² -6,1 °C 0,0 km/h (0 Bft)
02.12.2016 03:03 -3,2 °C -3,2 °C 80 % 1022,4 hPa 0,0 mm 0,0 km/h (0 Bft) N 0 ° 0 min 0,000 mm 0,0 UV-I 0 W/m² -6,1 °C 0,0 km/h (0 Bft)
02.12.2016 03:04 -3,2 °C -3,2 °C 79 % 1022,4 hPa 0,0 mm 0,0 km/h (0 Bft) N 0 ° 0 min 0,000 mm 0,0 UV-I 0 W/m² -6,3 °C 0,0 km/h (0 Bft)
02.12.2016 03:05 -3,2 °C -3,2 °C 80 % 1022,4 hPa 0,0 mm 0,0 km/h (0 Bft) N 0 ° 0 min 0,000 mm 0,0 UV-I 0 W/m² -6,1 °C 0,0 km/h (0 Bft)
02.12.2016 03:06 -3,3 °C -3,3 °C 80 % 1022,4 hPa 0,0 mm 0,0 km/h (0 Bft) N 0 ° 0 min 0,000 mm 0,0 UV-I 0 W/m² -6,2 °C 0,0 km/h (0 Bft)
02.12.2016 03:08 -3,3 °C -3,3 °C 80 % 1022,3 hPa 0,0 mm 0,3 km/h (0 Bft) S-SO 167 ° 0 min 0,000 mm 0,0 UV-I 0 W/m² -6,2 °C 1,6 km/h (1 Bft)
02.12.2016 03:09 -3,4 °C -3,3 °C 81 % 1022,3 hPa 0,0 mm 0,1 km/h (0 Bft) S-SO 167 ° 0 min 0,000 mm 0,0 UV-I 0 W/m² -6,2 °C 1,6 km/h (1 Bft)
02.12.2016 03:10 -3,4 °C -3,3 °C 82 % 1022,4 hPa 0,0 mm 0,0 km/h (0 Bft) S-SO 167 ° 0 min 0,000 mm 0,0 UV-I 0 W/m² -6,0 °C 0,0 km/h (0 Bft)
02.12.2016 03:11 -3,4 °C -3,4 °C 82 % 1022,4 hPa 0,0 mm 0,0 km/h (0 Bft) S-SO 167 ° 0 min 0,000 mm 0,0 UV-I 0 W/m² -6,0 °C 0,0 km/h (0 Bft)
02.12.2016 03:12 -3,4 °C -3,4 °C 82 % 1022,3 hPa 0,0 mm 0,0 km/h (0 Bft) S-SO 167 ° 0 min 0,000 mm 0,0 UV-I 0 W/m² -6,0 °C 0,0 km/h (0 Bft)
02.12.2016 03:13 -3,4 °C -3,4 °C 82 % 1022,4 hPa 0,0 mm 0,0 km/h (0 Bft) S-SO 167 ° 0 min 0,000 mm 0,0 UV-I 0 W/m² -6,0 °C 0,0 km/h (0 Bft)
02.12.2016 03:14 -3,4 °C -3,4 °C 82 % 1022,4 hPa 0,0 mm 0,7 km/h (0 Bft) S-SO 167 ° 0 min 0,000 mm 0,0 UV-I 0 W/m² -6,0 °C 1,6 km/h (1 Bft)
02.12.2016 03:15 -3,5 °C -3,4 °C 82 % 1022,4 hPa 0,0 mm 0,5 km/h (0 Bft) S-SO 167 ° 0 min 0,000 mm 0,0 UV-I 0 W/m² -6,1 °C 1,6 km/h (1 Bft)
02.12.2016 03:16 -3,6 °C -3,5 °C 81 % 1022,3 hPa 0,0 mm 0,0 km/h (0 Bft) S-SO 167 ° 0 min 0,000 mm 0,0 UV-I 0 W/m² -6,4 °C 0,0 km/h (0 Bft)
02.12.2016 03:17 -3,6 °C -3,6 °C 81 % 1022,3 hPa 0,0 mm 0,0 km/h (0 Bft) S-SO 167 ° 0 min 0,000 mm 0,0 UV-I 0 W/m² -6,4 °C 0,0 km/h (0 Bft)
02.12.2016 03:18 -3,6 °C -3,6 °C 81 % 1022,3 hPa 0,0 mm 0,0 km/h (0 Bft) S-SO 167 ° 0 min 0,000 mm 0,0 UV-I 0 W/m² -6,4 °C 0,0 km/h (0 Bft)
02.12.2016 03:20 -3,7 °C -3,6 °C 81 % 1022,3 hPa 0,0 mm 0,0 km/h (0 Bft) S-SO 167 ° 0 min 0,000 mm 0,0 UV-I 0 W/m² -6,5 °C 0,0 km/h (0 Bft)
02.12.2016 03:21 -3,7 °C -3,6 °C 81 % 1022,3 hPa 0,0 mm 0,0 km/h (0 Bft) S-SO 167 ° 0 min 0,000 mm 0,0 UV-I 0 W/m² -6,5 °C 0,0 km/h (0 Bft)
02.12.2016 03:22 -3,7 °C -3,6 °C 81 % 1022,3 hPa 0,0 mm 0,0 km/h (0 Bft) S-SO 167 ° 0 min 0,000 mm 0,0 UV-I 0 W/m² -6,5 °C 0,0 km/h (0 Bft)
02.12.2016 03:23 -3,7 °C -3,7 °C 81 % 1022,3 hPa 0,0 mm 0,0 km/h (0 Bft) S-SO 167 ° 0 min 0,000 mm 0,0 UV-I 0 W/m² -6,5 °C 0,0 km/h (0 Bft)
02.12.2016 03:24 -3,7 °C -3,7 °C 81 % 1022,4 hPa 0,0 mm 0,0 km/h (0 Bft) S-SO 167 ° 0 min 0,000 mm 0,0 UV-I 0 W/m² -6,5 °C 0,0 km/h (0 Bft)
02.12.2016 03:25 -3,8 °C -3,7 °C 81 % 1022,4 hPa 0,0 mm 0,0 km/h (0 Bft) S-SO 167 ° 0 min 0,000 mm 0,0 UV-I 0 W/m² -6,6 °C 0,0 km/h (0 Bft)
02.12.2016 03:26 -3,7 °C -3,7 °C 81 % 1022,4 hPa 0,0 mm 0,0 km/h (0 Bft) S-SO 167 ° 0 min 0,000 mm 0,0 UV-I 0 W/m² -6,5 °C 0,0 km/h (0 Bft)
02.12.2016 03:27 -3,8 °C -3,7 °C 82 % 1022,4 hPa 0,0 mm 0,0 km/h (0 Bft) S-SO 167 ° 0 min 0,000 mm 0,0 UV-I 0 W/m² -6,4 °C 0,0 km/h (0 Bft)
02.12.2016 03:28 -3,8 °C -3,8 °C 81 % 1022,4 hPa 0,0 mm 0,5 km/h (0 Bft) S-SO 167 ° 0 min 0,000 mm 0,0 UV-I 0 W/m² -6,6 °C 1,6 km/h (1 Bft)
02.12.2016 03:29 -3,8 °C -3,8 °C 82 % 1022,4 hPa 0,0 mm 0,0 km/h (0 Bft) S-SO 167 ° 0 min 0,000 mm 0,0 UV-I 0 W/m² -6,4 °C 0,0 km/h (0 Bft)
02.12.2016 03:30 -3,8 °C -3,8 °C 82 % 1022,4 hPa 0,0 mm 0,0 km/h (0 Bft) S-SO 167 ° 0 min 0,000 mm 0,0 UV-I 0 W/m² -6,4 °C 0,0 km/h (0 Bft)
02.12.2016 03:31 -3,8 °C -3,8 °C 82 % 1022,4 hPa 0,0 mm 0,0 km/h (0 Bft) S-SO 167 ° 0 min 0,000 mm 0,0 UV-I 0 W/m² -6,4 °C 0,0 km/h (0 Bft)
02.12.2016 03:32 -3,9 °C -3,8 °C 82 % 1022,4 hPa 0,0 mm 0,0 km/h (0 Bft) S-SO 167 ° 0 min 0,000 mm 0,0 UV-I 0 W/m² -6,5 °C 0,0 km/h (0 Bft)
02.12.2016 03:33 -3,9 °C -3,9 °C 82 % 1022,4 hPa 0,0 mm 0,1 km/h (0 Bft) S-SO 167 ° 0 min 0,000 mm 0,0 UV-I 0 W/m² -6,5 °C 1,6 km/h (1 Bft)
02.12.2016 03:34 -3,9 °C -3,9 °C 82 % 1022,4 hPa 0,0 mm 0,0 km/h (0 Bft) S-SO 167 ° 0 min 0,000 mm 0,0 UV-I 0 W/m² -6,5 °C 0,0 km/h (0 Bft)
02.12.2016 03:35 -3,9 °C -3,9 °C 82 % 1022,4 hPa 0,0 mm 0,2 km/h (0 Bft) S-SO 167 ° 0 min 0,000 mm 0,0 UV-I 0 W/m² -6,5 °C 1,6 km/h (1 Bft)
02.12.2016 03:36 -3,9 °C -3,9 °C 82 % 1022,4 hPa 0,0 mm 2,6 km/h (1 Bft) S-SO 167 ° 0 min 0,000 mm 0,0 UV-I 0 W/m² -6,5 °C 4,8 km/h (1 Bft)
02.12.2016 03:37 -3,9 °C -3,9 °C 83 % 1022,5 hPa 0,0 mm 1,7 km/h (1 Bft) S-SO 167 ° 0 min 0,000 mm 0,0 UV-I 0 W/m² -6,4 °C 4,8 km/h (1 Bft)
02.12.2016 03:38 -4,0 °C -3,9 °C 83 % 1022,5 hPa 0,0 mm 0,2 km/h (0 Bft) S-SO 167 ° 0 min 0,000 mm 0,0 UV-I 0 W/m² -6,4 °C 1,6 km/h (1 Bft)
02.12.2016 03:39 -4,0 °C -4,0 °C 85 % 1022,5 hPa 0,0 mm 0,0 km/h (0 Bft) S-SO 167 ° 0 min 0,000 mm 0,0 UV-I 0 W/m² -6,1 °C 0,0 km/h (0 Bft)
02.12.2016 03:40 -4,0 °C -4,0 °C 85 % 1022,5 hPa 0,0 mm 0,0 km/h (0 Bft) S-SO 167 ° 0 min 0,000 mm 0,0 UV-I 0 W/m² -6,1 °C 0,0 km/h (0 Bft)
02.12.2016 03:41 -4,0 °C -4,0 °C 85 % 1022,6 hPa 0,0 mm 0,0 km/h (0 Bft) S-SO 167 ° 0 min 0,000 mm 0,0 UV-I 0 W/m² -6,1 °C 0,0 km/h (0 Bft)
02.12.2016 03:42 -4,1 °C -4,0 °C 85 % 1022,5 hPa 0,0 mm 0,0 km/h (0 Bft) S-SO 167 ° 0 min 0,000 mm 0,0 UV-I 0 W/m² -6,2 °C 0,0 km/h (0 Bft)
02.12.2016 03:43 -4,1 °C -4,0 °C 86 % 1022,5 hPa 0,0 mm 0,0 km/h (0 Bft) S-SO 167 ° 0 min 0,000 mm 0,0 UV-I 0 W/m² -6,1 °C 0,0 km/h (0 Bft)
02.12.2016 03:44 -4,0 °C -4,0 °C 86 % 1022,5 hPa 0,0 mm 0,8 km/h (0 Bft) S-SO 167 ° 0 min 0,000 mm 0,0 UV-I 0 W/m² -6,0 °C 4,8 km/h (1 Bft)
02.12.2016 03:45 -3,9 °C -3,9 °C 86 % 1022,5 hPa 0,0 mm 0,9 km/h (0 Bft) S-SO 167 ° 0 min 0,000 mm 0,0 UV-I 0 W/m² -5,9 °C 1,6 km/h (1 Bft)
02.12.2016 03:46 -3,9 °C -3,9 °C 86 % 1022,5 hPa 0,0 mm 0,0 km/h (0 Bft) S-SO 167 ° 0 min 0,000 mm 0,0 UV-I 0 W/m² -5,9 °C 0,0 km/h (0 Bft)
02.12.2016 03:47 -3,9 °C -3,9 °C 86 % 1022,5 hPa 0,0 mm 0,2 km/h (0 Bft) S-SO 167 ° 0 min 0,000 mm 0,0 UV-I 0 W/m² -5,9 °C 1,6 km/h (1 Bft)
02.12.2016 03:48 -3,9 °C -3,9 °C 86 % 1022,5 hPa 0,0 mm 2,8 km/h (1 Bft) S-SO 167 ° 0 min 0,000 mm 0,0 UV-I 0 W/m² -5,9 °C 4,8 km/h (1 Bft)
02.12.2016 03:49 -3,9 °C -3,9 °C 86 % 1022,5 hPa 0,0 mm 2,1 km/h (1 Bft) S-SO 167 ° 0 min 0,000 mm 0,0 UV-I 0 W/m² -5,9 °C 4,8 km/h (1 Bft)
02.12.2016 03:50 -3,9 °C -3,9 °C 86 % 1022,5 hPa 0,0 mm 2,0 km/h (1 Bft) S-SO 167 ° 0 min 0,000 mm 0,0 UV-I 0 W/m² -5,9 °C 4,8 km/h (1 Bft)
02.12.2016 03:51 -3,8 °C -3,8 °C 86 % 1022,5 hPa 0,0 mm 4,3 km/h (1 Bft) S-SO 167 ° 0 min 0,000 mm 0,0 UV-I 0 W/m² -5,8 °C 6,4 km/h (2 Bft)
02.12.2016 03:52 -3,8 °C -3,8 °C 86 % 1022,4 hPa 0,0 mm 2,6 km/h (1 Bft) S-SO 167 ° 0 min 0,000 mm 0,0 UV-I 0 W/m² -5,8 °C 4,8 km/h (1 Bft)
02.12.2016 03:53 -3,7 °C -3,7 °C 86 % 1022,4 hPa 0,0 mm 3,1 km/h (1 Bft) S-SO 167 ° 0 min 0,000 mm 0,0 UV-I 0 W/m² -5,7 °C 4,8 km/h (1 Bft)
02.12.2016 03:54 -3,7 °C -3,7 °C 86 % 1022,4 hPa 0,0 mm 2,1 km/h (1 Bft) S-SO 167 ° 0 min 0,000 mm 0,0 UV-I 0 W/m² -5,7 °C 4,8 km/h (1 Bft)
02.12.2016 03:55 -3,6 °C -3,6 °C 85 % 1022,4 hPa 0,0 mm 3,6 km/h (1 Bft) S-SO 167 ° 0 min 0,000 mm 0,0 UV-I 0 W/m² -5,7 °C 6,4 km/h (2 Bft)
02.12.2016 03:56 -3,6 °C -3,6 °C 85 % 1022,5 hPa 0,0 mm 4,3 km/h (1 Bft) S-SO 167 ° 0 min 0,000 mm 0,0 UV-I 0 W/m² -5,7 °C 6,4 km/h (2 Bft)
02.12.2016 03:57 -3,5 °C -3,5 °C 85 % 1022,4 hPa 0,0 mm 3,1 km/h (1 Bft) S 175 ° 0 min 0,000 mm 0,0 UV-I 0 W/m² -5,6 °C 6,4 km/h (2 Bft)
02.12.2016 03:58 -3,4 °C -3,4 °C 85 % 1022,4 hPa 0,0 mm 3,0 km/h (1 Bft) S 175 ° 0 min 0,000 mm 0,0 UV-I 0 W/m² -5,5 °C 4,8 km/h (1 Bft)
02.12.2016 03:59 -3,3 °C -3,3 °C 85 % 1022,4 hPa 0,0 mm 1,8 km/h (1 Bft) S 175 ° 0 min 0,000 mm 0,0 UV-I 0 W/m² -5,5 °C 3,2 km/h (1 Bft)
02.12.2016 04:00 -3,3 °C -3,3 °C 84 % 1022,4 hPa 0,0 mm 2,8 km/h (1 Bft) S 180 ° 0 min 0,000 mm 0,0 UV-I 0 W/m² -5,6 °C 4,8 km/h (1 Bft)
02.12.2016 04:01 -3,3 °C -3,3 °C 84 % 1022,4 hPa 0,0 mm 2,5 km/h (1 Bft) S-SO 155 ° 0 min 0,000 mm 0,0 UV-I 0 W/m² -5,6 °C 4,8 km/h (1 Bft)
02.12.2016 04:02 -3,2 °C -3,2 °C 84 % 1022,4 hPa 0,0 mm 2,3 km/h (1 Bft) S 174 ° 0 min 0,000 mm 0,0 UV-I 0 W/m² -5,5 °C 3,2 km/h (1 Bft)
02.12.2016 04:03 -3,2 °C -3,2 °C 84 % 1022,5 hPa 0,0 mm 1,5 km/h (1 Bft) S 190 ° 0 min 0,000 mm 0,0 UV-I 0 W/m² -5,5 °C 1,6 km/h (1 Bft)
02.12.2016 04:05 -3,2 °C -3,2 °C 81 % 1022,6 hPa 0,0 mm 0,0 km/h (0 Bft) S 190 ° 0 min 0,000 mm 0,0 UV-I 0 W/m² -6,0 °C 0,0 km/h (0 Bft)
02.12.2016 04:06 -3,2 °C -3,2 °C 81 % 1022,6 hPa 0,0 mm 0,0 km/h (0 Bft) S 190 ° 0 min 0,000 mm 0,0 UV-I 0 W/m² -6,0 °C 0,0 km/h (0 Bft)
02.12.2016 04:07 -3,2 °C -3,2 °C 81 % 1022,5 hPa 0,0 mm 0,0 km/h (0 Bft) S 190 ° 0 min 0,000 mm 0,0 UV-I 0 W/m² -6,0 °C 0,0 km/h (0 Bft)
02.12.2016 04:08 -3,2 °C -3,2 °C 81 % 1022,6 hPa 0,0 mm 0,0 km/h (0 Bft) S 190 ° 0 min 0,000 mm 0,0 UV-I 0 W/m² -6,0 °C 0,0 km/h (0 Bft)
02.12.2016 04:09 -3,2 °C -3,2 °C 81 % 1022,6 hPa 0,0 mm 0,9 km/h (0 Bft) S 190 ° 0 min 0,000 mm 0,0 UV-I 0 W/m² -6,0 °C 1,6 km/h (1 Bft)
02.12.2016 04:10 -3,2 °C -3,2 °C 81 % 1022,6 hPa 0,0 mm 1,5 km/h (1 Bft) S 190 ° 0 min 0,000 mm 0,0 UV-I 0 W/m² -6,0 °C 3,2 km/h (1 Bft)
02.12.2016 04:11 -3,2 °C -3,2 °C 82 % 1022,6 hPa 0,0 mm 1,3 km/h (1 Bft) S 190 ° 0 min 0,000 mm 0,0 UV-I 0 W/m² -5,8 °C 1,6 km/h (1 Bft)
02.12.2016 04:12 -3,2 °C -3,2 °C 82 % 1022,6 hPa 0,0 mm 0,5 km/h (0 Bft) S 190 ° 0 min 0,000 mm 0,0 UV-I 0 W/m² -5,8 °C 1,6 km/h (1 Bft)
02.12.2016 04:13 -3,2 °C -3,2 °C 82 % 1022,6 hPa 0,0 mm 0,2 km/h (0 Bft) S 190 ° 0 min 0,000 mm 0,0 UV-I 0 W/m² -5,8 °C 1,6 km/h (1 Bft)
02.12.2016 04:14 -3,2 °C -3,2 °C 82 % 1022,6 hPa 0,0 mm 0,6 km/h (0 Bft) S 190 ° 0 min 0,000 mm 0,0 UV-I 0 W/m² -5,8 °C 1,6 km/h (1 Bft)
02.12.2016 04:15 -3,2 °C -3,2 °C 83 % 1022,6 hPa 0,0 mm 0,0 km/h (0 Bft) S 180 ° 0 min 0,000 mm 0,0 UV-I 0 W/m² -5,7 °C 3,2 km/h (1 Bft)
02.12.2016 04:16 -3,2 °C -3,2 °C 83 % 1022,6 hPa 0,0 mm 0,0 km/h (0 Bft) S 180 ° 0 min 0,000 mm 0,0 UV-I 0 W/m² -5,7 °C 3,2 km/h (1 Bft)
02.12.2016 04:17 -3,2 °C -3,2 °C 83 % 1022,5 hPa 0,0 mm 3,2 km/h (1 Bft) S 180 ° 0 min 0,000 mm 0,0 UV-I 0 W/m² -5,7 °C 4,8 km/h (1 Bft)
02.12.2016 04:18 -3,2 °C -3,2 °C 83 % 1022,5 hPa 0,0 mm 2,7 km/h (1 Bft) S 184 ° 0 min 0,000 mm 0,0 UV-I 0 W/m² -5,7 °C 3,2 km/h (1 Bft)
02.12.2016 04:19 -3,1 °C -3,1 °C 83 % 1022,5 hPa 0,0 mm 3,6 km/h (1 Bft) S-SW 192 ° 0 min 0,000 mm 0,0 UV-I 0 W/m² -5,6 °C 6,4 km/h (2 Bft)
02.12.2016 04:20 -3,1 °C -3,1 °C 83 % 1022,5 hPa 0,0 mm 5,5 km/h (1 Bft) S-SW 196 ° 0 min 0,000 mm 0,0 UV-I 0 W/m² -5,6 °C 8,0 km/h (2 Bft)
02.12.2016 04:21 -2,9 °C -2,9 °C 82 % 1022,5 hPa 0,0 mm 7,1 km/h (2 Bft) S 171 ° 0 min 0,000 mm 0,0 UV-I 0 W/m² -5,5 °C 9,7 km/h (2 Bft)
02.12.2016 04:22 -2,9 °C -2,9 °C 82 % 1022,5 hPa 0,0 mm 4,7 km/h (1 Bft) S-SO 166 ° 0 min 0,000 mm 0,0 UV-I 0 W/m² -5,5 °C 8,0 km/h (2 Bft)
02.12.2016 04:23 -2,9 °C -2,9 °C 82 % 1022,4 hPa 0,0 mm 3,7 km/h (1 Bft) S 172 ° 0 min 0,000 mm 0,0 UV-I 0 W/m² -5,5 °C 6,4 km/h (2 Bft)
02.12.2016 04:24 -2,8 °C -2,8 °C 82 % 1022,4 hPa 0,0 mm 8,2 km/h (2 Bft) S-SW 200 ° 0 min 0,000 mm 0,0 UV-I 0 W/m² -5,4 °C 11,3 km/h (2 Bft)
02.12.2016 04:25 -2,8 °C -2,8 °C 82 % 1022,5 hPa 0,0 mm 5,4 km/h (1 Bft) S-SO 163 ° 0 min 0,000 mm 0,0 UV-I 0 W/m² -5,4 °C 9,7 km/h (2 Bft)
02.12.2016 04:26 -2,7 °C -2,7 °C 82 % 1022,5 hPa 0,0 mm 5,2 km/h (1 Bft) S 187 ° 0 min 0,000 mm 0,0 UV-I 0 W/m² -5,3 °C 8,0 km/h (2 Bft)
02.12.2016 04:27 -2,6 °C -2,6 °C 81 % 1022,4 hPa 0,0 mm 6,9 km/h (2 Bft) S-SW 196 ° 0 min 0,000 mm 0,0 UV-I 0 W/m² -5,4 °C 11,3 km/h (2 Bft)
02.12.2016 04:28 -2,6 °C -2,6 °C 81 % 1022,4 hPa 0,0 mm 7,4 km/h (2 Bft) S 190 ° 0 min 0,000 mm 0,0 UV-I 0 W/m² -5,4 °C 9,7 km/h (2 Bft)
02.12.2016 04:29 -2,5 °C -2,5 °C 81 % 1022,4 hPa 0,0 mm 5,8 km/h (2 Bft) S-SW 203 ° 0 min 0,000 mm 0,0 UV-I 0 W/m² -5,3 °C 9,7 km/h (2 Bft)
02.12.2016 04:30 -2,5 °C -2,4 °C 81 % 1022,4 hPa 0,0 mm 7,6 km/h (2 Bft) S-SW 196 ° 0 min 0,000 mm 0,0 UV-I 0 W/m² -5,3 °C 11,3 km/h (2 Bft)
02.12.2016 04:31 -2,4 °C -2,4 °C 81 % 1022,4 hPa 0,0 mm 8,1 km/h (2 Bft) S 180 ° 0 min 0,000 mm 0,0 UV-I 0 W/m² -5,2 °C 9,7 km/h (2 Bft)
02.12.2016 04:32 -2,3 °C -2,3 °C 80 % 1022,4 hPa 0,0 mm 9,7 km/h (2 Bft) S-SW 203 ° 0 min 0,000 mm 0,0 UV-I 0 W/m² -5,3 °C 11,3 km/h (2 Bft)
02.12.2016 04:33 -2,3 °C -2,3 °C 80 % 1022,4 hPa 0,0 mm 7,1 km/h (2 Bft) S-SW 192 ° 0 min 0,000 mm 0,0 UV-I 0 W/m² -5,3 °C 9,7 km/h (2 Bft)
02.12.2016 04:34 -2,2 °C -2,2 °C 80 % 1022,4 hPa 0,0 mm 9,5 km/h (2 Bft) S 188 ° 0 min 0,000 mm 0,0 UV-I 0 W/m² -5,2 °C 12,9 km/h (3 Bft)
02.12.2016 04:35 -2,1 °C -2,1 °C 79 % 1022,4 hPa 0,0 mm 8,0 km/h (2 Bft) S-SW 194 ° 0 min 0,000 mm 0,0 UV-I 0 W/m² -5,2 °C 12,9 km/h (3 Bft)
02.12.2016 04:36 -2,0 °C -2,0 °C 79 % 1022,4 hPa 0,0 mm 8,4 km/h (2 Bft) S-SW 198 ° 0 min 0,000 mm 0,0 UV-I 0 W/m² -5,1 °C 11,3 km/h (2 Bft)
02.12.2016 04:37 -1,9 °C -1,9 °C 79 % 1022,4 hPa 0,0 mm 9,4 km/h (2 Bft) S-SW 203 ° 0 min 0,000 mm 0,0 UV-I 0 W/m² -5,0 °C 11,3 km/h (2 Bft)
02.12.2016 04:38 -1,9 °C -1,9 °C 78 % 1022,4 hPa 0,0 mm 10,8 km/h (2 Bft) S-SW 194 ° 0 min 0,000 mm 0,0 UV-I 0 W/m² -5,2 °C 16,1 km/h (3 Bft)
02.12.2016 04:39 -1,8 °C -1,8 °C 78 % 1022,4 hPa 0,0 mm 9,0 km/h (2 Bft) S 184 ° 0 min 0,000 mm 0,0 UV-I 0 W/m² -5,1 °C 12,9 km/h (3 Bft)
02.12.2016 04:40 -1,7 °C -1,7 °C 78 % 1022,4 hPa 0,0 mm 10,4 km/h (2 Bft) S-SW 198 ° 0 min 0,000 mm 0,0 UV-I 0 W/m² -5,0 °C 14,5 km/h (3 Bft)
02.12.2016 04:41 -1,7 °C -1,7 °C 78 % 1022,4 hPa 0,0 mm 9,4 km/h (2 Bft) S-SW 193 ° 0 min 0,000 mm 0,0 UV-I 0 W/m² -5,0 °C 11,3 km/h (2 Bft)
02.12.2016 04:42 -1,6 °C -1,6 °C 78 % 1022,4 hPa 0,0 mm 8,7 km/h (2 Bft) S 182 ° 0 min 0,000 mm 0,0 UV-I 0 W/m² -4,9 °C 11,3 km/h (2 Bft)
02.12.2016 04:43 -1,6 °C -1,6 °C 77 % 1022,4 hPa 0,0 mm 8,3 km/h (2 Bft) S-SW 193 ° 0 min 0,000 mm 0,0 UV-I 0 W/m² -5,1 °C 9,7 km/h (2 Bft)
02.12.2016 04:44 -1,6 °C -1,5 °C 77 % 1022,4 hPa 0,0 mm 9,6 km/h (2 Bft) S-SW 198 ° 0 min 0,000 mm 0,0 UV-I 0 W/m² -5,1 °C 11,3 km/h (2 Bft)
02.12.2016 04:45 -1,4 °C -1,4 °C 77 % 1022,3 hPa 0,0 mm 9,7 km/h (2 Bft) SW 218 ° 0 min 0,000 mm 0,0 UV-I 0 W/m² -4,9 °C 12,9 km/h (3 Bft)
02.12.2016 04:46 -1,4 °C -1,4 °C 77 % 1022,3 hPa 0,0 mm 8,5 km/h (2 Bft) S-SW 194 ° 0 min 0,000 mm 0,0 UV-I 0 W/m² -4,9 °C 12,9 km/h (3 Bft)
02.12.2016 04:47 -1,3 °C -1,3 °C 76 % 1022,3 hPa 0,0 mm 8,0 km/h (2 Bft) S-SW 211 ° 0 min 0,000 mm 0,0 UV-I 0 W/m² -5,0 °C 11,3 km/h (2 Bft)
02.12.2016 04:48 -1,2 °C -1,2 °C 76 % 1022,4 hPa 0,0 mm 7,1 km/h (2 Bft) S-SW 209 ° 0 min 0,000 mm 0,0 UV-I 0 W/m² -4,9 °C 11,3 km/h (2 Bft)
02.12.2016 04:49 -1,2 °C -1,2 °C 76 % 1022,3 hPa 0,0 mm 7,5 km/h (2 Bft) S-SW 198 ° 0 min 0,000 mm 0,0 UV-I 0 W/m² -4,9 °C 12,9 km/h (3 Bft)
02.12.2016 04:50 -1,2 °C -1,2 °C 76 % 1022,3 hPa 0,0 mm 9,8 km/h (2 Bft) S 190 ° 0 min 0,000 mm 0,0 UV-I 0 W/m² -4,9 °C 14,5 km/h (3 Bft)
02.12.2016 04:51 -1,1 °C -1,1 °C 76 % 1022,3 hPa 0,0 mm 7,2 km/h (2 Bft) S 181 ° 0 min 0,000 mm 0,0 UV-I 0 W/m² -4,8 °C 9,7 km/h (2 Bft)
02.12.2016 04:52 -1,0 °C -1,0 °C 76 % 1022,4 hPa 0,0 mm 5,0 km/h (1 Bft) S-SW 209 ° 0 min 0,000 mm 0,0 UV-I 0 W/m² -4,7 °C 8,0 km/h (2 Bft)
02.12.2016 04:53 -0,9 °C -0,9 °C 75 % 1022,3 hPa 0,0 mm 7,5 km/h (2 Bft) S-SW 198 ° 0 min 0,000 mm 0,0 UV-I 0 W/m² -4,8 °C 11,3 km/h (2 Bft)
02.12.2016 04:54 -0,9 °C -0,9 °C 75 % 1022,4 hPa 0,0 mm 8,6 km/h (2 Bft) S-SW 207 ° 0 min 0,000 mm 0,0 UV-I 0 W/m² -4,8 °C 11,3 km/h (2 Bft)
02.12.2016 04:55 -0,9 °C -0,9 °C 75 % 1022,4 hPa 0,0 mm 8,9 km/h (2 Bft) S-SW 203 ° 0 min 0,000 mm 0,0 UV-I 0 W/m² -4,8 °C 11,3 km/h (2 Bft)
02.12.2016 04:56 -0,9 °C -0,9 °C 75 % 1022,2 hPa 0,0 mm 8,9 km/h (2 Bft) S-SW 198 ° 0 min 0,000 mm 0,0 UV-I 0 W/m² -4,8 °C 11,3 km/h (2 Bft)
02.12.2016 04:57 -0,9 °C -0,9 °C 74 % 1022,4 hPa 0,0 mm 8,6 km/h (2 Bft) S-SW 196 ° 0 min 0,000 mm 0,0 UV-I 0 W/m² -4,9 °C 11,3 km/h (2 Bft)
02.12.2016 04:58 -0,9 °C -0,8 °C 74 % 1022,4 hPa 0,0 mm 7,8 km/h (2 Bft) W-SW 238 ° 0 min 0,000 mm 0,0 UV-I 0 W/m² -4,9 °C 11,3 km/h (2 Bft)
02.12.2016 04:59 -0,8 °C -0,8 °C 74 % 1022,3 hPa 0,0 mm 7,6 km/h (2 Bft) S-SW 198 ° 0 min 0,000 mm 0,0 UV-I 0 W/m² -4,8 °C 9,7 km/h (2 Bft)
02.12.2016 05:00 -0,8 °C -0,8 °C 75 % 1022,4 hPa 0,0 mm 9,8 km/h (2 Bft) S 184 ° 0 min 0,026 mm 0,0 UV-I 0 W/m² -4,7 °C 11,3 km/h (2 Bft)
02.12.2016 05:01 -0,8 °C -0,8 °C 75 % 1022,4 hPa 0,0 mm 6,7 km/h (2 Bft) S-SW 196 ° 0 min 0,000 mm 0,0 UV-I 0 W/m² -4,7 °C 9,7 km/h (2 Bft)
02.12.2016 05:02 -0,8 °C -0,8 °C 75 % 1022,4 hPa 0,0 mm 5,1 km/h (1 Bft) S-SW 194 ° 0 min 0,000 mm 0,0 UV-I 0 W/m² -4,7 °C 8,0 km/h (2 Bft)
02.12.2016 05:03 -0,8 °C -0,8 °C 74 % 1022,4 hPa 0,0 mm 8,1 km/h (2 Bft) S-SW 192 ° 0 min 0,000 mm 0,0 UV-I 0 W/m² -4,8 °C 9,7 km/h (2 Bft)
02.12.2016 05:04 -0,8 °C -0,8 °C 74 % 1022,4 hPa 0,0 mm 6,3 km/h (2 Bft) S-SW 192 ° 0 min 0,000 mm 0,0 UV-I 0 W/m² -4,8 °C 8,0 km/h (2 Bft)
02.12.2016 05:05 -0,8 °C -0,8 °C 75 % 1022,4 hPa 0,0 mm 6,0 km/h (2 Bft) S-SW 194 ° 0 min 0,000 mm 0,0 UV-I 0 W/m² -4,7 °C 9,7 km/h (2 Bft)
02.12.2016 05:06 -0,8 °C -0,8 °C 75 % 1022,4 hPa 0,0 mm 5,7 km/h (1 Bft) S 175 ° 0 min 0,000 mm 0,0 UV-I 0 W/m² -4,7 °C 8,0 km/h (2 Bft)
02.12.2016 05:07 -0,8 °C -0,8 °C 75 % 1022,4 hPa 0,0 mm 5,6 km/h (1 Bft) S-SW 204 ° 0 min 0,000 mm 0,0 UV-I 0 W/m² -4,7 °C 6,4 km/h (2 Bft)
02.12.2016 05:08 -0,8 °C -0,8 °C 75 % 1022,4 hPa 0,0 mm 5,3 km/h (1 Bft) S-SW 202 ° 0 min 0,000 mm 0,0 UV-I 0 W/m² -4,7 °C 6,4 km/h (2 Bft)
02.12.2016 05:09 -0,8 °C -0,8 °C 75 % 1022,4 hPa 0,0 mm 6,4 km/h (2 Bft) S-SW 205 ° 0 min 0,000 mm 0,0 UV-I 0 W/m² -4,7 °C 8,0 km/h (2 Bft)
02.12.2016 05:10 -0,8 °C -0,8 °C 75 % 1022,4 hPa 0,0 mm 3,8 km/h (1 Bft) S-SW 197 ° 0 min 0,000 mm 0,0 UV-I 0 W/m² -4,7 °C 8,0 km/h (2 Bft)
02.12.2016 05:11 -0,8 °C -0,8 °C 76 % 1022,4 hPa 0,0 mm 5,4 km/h (1 Bft) S-SW 192 ° 0 min 0,000 mm 0,0 UV-I 0 W/m² -4,5 °C 6,4 km/h (2 Bft)
02.12.2016 05:12 -0,8 °C -0,8 °C 76 % 1022,4 hPa 0,0 mm 6,4 km/h (2 Bft) SW 215 ° 0 min 0,000 mm 0,0 UV-I 0 W/m² -4,5 °C 8,0 km/h (2 Bft)
02.12.2016 05:13 -0,8 °C -0,8 °C 76 % 1022,4 hPa 0,0 mm 5,5 km/h (1 Bft) S-SW 201 ° 0 min 0,000 mm 0,0 UV-I 0 W/m² -4,5 °C 6,4 km/h (2 Bft)
02.12.2016 05:14 -0,8 °C -0,8 °C 76 % 1022,4 hPa 0,0 mm 4,4 km/h (1 Bft) S-SW 201 ° 0 min 0,000 mm 0,0 UV-I 0 W/m² -4,5 °C 6,4 km/h (2 Bft)
02.12.2016 05:15 -0,8 °C -0,8 °C 76 % 1022,4 hPa 0,0 mm 6,3 km/h (2 Bft) S-SW 201 ° 0 min 0,000 mm 0,0 UV-I 0 W/m² -4,5 °C 8,0 km/h (2 Bft)
02.12.2016 05:16 -0,8 °C -0,8 °C 76 % 1022,4 hPa 0,0 mm 5,0 km/h (1 Bft) S-SW 198 ° 0 min 0,000 mm 0,0 UV-I 0 W/m² -4,5 °C 6,4 km/h (2 Bft)
02.12.2016 05:17 -0,8 °C -0,8 °C 76 % 1022,4 hPa 0,0 mm 6,2 km/h (2 Bft) S-SW 194 ° 0 min 0,000 mm 0,0 UV-I 0 W/m² -4,5 °C 8,0 km/h (2 Bft)
02.12.2016 05:18 -0,8 °C -0,8 °C 76 % 1022,4 hPa 0,0 mm 6,3 km/h (2 Bft) S 186 ° 0 min 0,000 mm 0,0 UV-I 0 W/m² -4,5 °C 8,0 km/h (2 Bft)
02.12.2016 05:19 -0,8 °C -0,8 °C 76 % 1022,4 hPa 0,0 mm 5,0 km/h (1 Bft) S-SW 192 ° 0 min 0,000 mm 0,0 UV-I 0 W/m² -4,5 °C 6,4 km/h (2 Bft)
02.12.2016 05:20 -0,8 °C -0,8 °C 76 % 1022,4 hPa 0,0 mm 6,7 km/h (2 Bft) S 186 ° 0 min 0,000 mm 0,0 UV-I 0 W/m² -4,5 °C 9,7 km/h (2 Bft)
02.12.2016 05:21 -0,8 °C -0,8 °C 77 % 1022,3 hPa 0,0 mm 6,1 km/h (2 Bft) S-SW 196 ° 0 min 0,000 mm 0,0 UV-I 0 W/m² -4,3 °C 9,7 km/h (2 Bft)
02.12.2016 05:22 -0,8 °C -0,8 °C 77 % 1022,3 hPa 0,0 mm 9,0 km/h (2 Bft) S 190 ° 0 min 0,000 mm 0,0 UV-I 0 W/m² -4,3 °C 12,9 km/h (3 Bft)
02.12.2016 05:23 -0,8 °C -0,8 °C 77 % 1022,3 hPa 0,0 mm 5,0 km/h (1 Bft) S-SW 211 ° 0 min 0,000 mm 0,0 UV-I 0 W/m² -4,3 °C 8,0 km/h (2 Bft)
02.12.2016 05:24 -0,8 °C -0,8 °C 77 % 1022,3 hPa 0,0 mm 6,5 km/h (2 Bft) S-SW 197 ° 0 min 0,000 mm 0,0 UV-I 0 W/m² -4,3 °C 8,0 km/h (2 Bft)
02.12.2016 05:25 -0,8 °C -0,8 °C 77 % 1022,3 hPa 0,0 mm 6,0 km/h (2 Bft) S-SW 199 ° 0 min 0,000 mm 0,0 UV-I 0 W/m² -4,3 °C 8,0 km/h (2 Bft)
02.12.2016 05:26 -0,8 °C -0,8 °C 77 % 1022,3 hPa 0,0 mm 6,3 km/h (2 Bft) S-SW 200 ° 0 min 0,000 mm 0,0 UV-I 0 W/m² -4,3 °C 8,0 km/h (2 Bft)
02.12.2016 05:27 -0,8 °C -0,8 °C 77 % 1022,3 hPa 0,0 mm 6,4 km/h (2 Bft) S-SW 200 ° 0 min 0,000 mm 0,0 UV-I 0 W/m² -4,3 °C 9,7 km/h (2 Bft)
02.12.2016 05:28 -0,8 °C -0,8 °C 77 % 1022,2 hPa 0,0 mm 5,1 km/h (1 Bft) S-SW 198 ° 0 min 0,000 mm 0,0 UV-I 0 W/m² -4,3 °C 6,4 km/h (2 Bft)
02.12.2016 05:29 -0,8 °C -0,8 °C 77 % 1022,2 hPa 0,0 mm 3,9 km/h (1 Bft) S-SW 198 ° 0 min 0,000 mm 0,0 UV-I 0 W/m² -4,3 °C 4,8 km/h (1 Bft)
02.12.2016 05:30 -0,9 °C -0,8 °C 77 % 1022,2 hPa 0,0 mm 6,9 km/h (2 Bft) S-SW 194 ° 0 min 0,000 mm 0,0 UV-I 0 W/m² -4,4 °C 9,7 km/h (2 Bft)
02.12.2016 05:31 -0,9 °C -0,8 °C 77 % 1022,2 hPa 0,0 mm 6,3 km/h (2 Bft) S-SW 196 ° 0 min 0,000 mm 0,0 UV-I 0 W/m² -4,4 °C 8,0 km/h (2 Bft)
02.12.2016 05:32 -0,8 °C -0,8 °C 77 % 1022,2 hPa 0,0 mm 8,1 km/h (2 Bft) S-SW 192 ° 0 min 0,000 mm 0,0 UV-I 0 W/m² -4,3 °C 11,3 km/h (2 Bft)
02.12.2016 05:33 -0,8 °C -0,8 °C 77 % 1022,2 hPa 0,0 mm 9,2 km/h (2 Bft) S 186 ° 0 min 0,000 mm 0,0 UV-I 0 W/m² -4,3 °C 11,3 km/h (2 Bft)
02.12.2016 05:34 -0,8 °C -0,8 °C 77 % 1022,2 hPa 0,0 mm 7,6 km/h (2 Bft) S 190 ° 0 min 0,000 mm 0,0 UV-I 0 W/m² -4,3 °C 11,3 km/h (2 Bft)
02.12.2016 05:35 -0,8 °C -0,8 °C 77 % 1022,2 hPa 0,0 mm 9,0 km/h (2 Bft) S 184 ° 0 min 0,000 mm 0,0 UV-I 0 W/m² -4,3 °C 11,3 km/h (2 Bft)
02.12.2016 05:36 -0,7 °C -0,7 °C 77 % 1022,2 hPa 0,0 mm 6,9 km/h (2 Bft) S-SW 200 ° 0 min 0,000 mm 0,0 UV-I 0 W/m² -4,2 °C 11,3 km/h (2 Bft)
02.12.2016 05:37 -0,7 °C -0,7 °C 78 % 1022,2 hPa 0,0 mm 7,0 km/h (2 Bft) S-SW 212 ° 0 min 0,000 mm 0,0 UV-I 0 W/m² -4,0 °C 9,7 km/h (2 Bft)
02.12.2016 05:38 -0,7 °C -0,7 °C 78 % 1022,1 hPa 0,0 mm 7,6 km/h (2 Bft) S-SW 206 ° 0 min 0,000 mm 0,0 UV-I 0 W/m² -4,0 °C 11,3 km/h (2 Bft)
02.12.2016 05:39 -0,7 °C -0,7 °C 78 % 1022,1 hPa 0,0 mm 7,1 km/h (2 Bft) S-SW 195 ° 0 min 0,000 mm 0,0 UV-I 0 W/m² -4,0 °C 11,3 km/h (2 Bft)
02.12.2016 05:40 -0,7 °C -0,7 °C 78 % 1022,1 hPa 0,0 mm 8,0 km/h (2 Bft) S 191 ° 0 min 0,000 mm 0,0 UV-I 0 W/m² -4,0 °C 11,3 km/h (2 Bft)
02.12.2016 05:41 -0,7 °C -0,6 °C 78 % 1022,1 hPa 0,0 mm 7,1 km/h (2 Bft) S-SW 206 ° 0 min 0,000 mm 0,0 UV-I 0 W/m² -4,0 °C 9,7 km/h (2 Bft)
02.12.2016 05:42 -0,6 °C -0,6 °C 78 % 1022,1 hPa 0,0 mm 7,4 km/h (2 Bft) S-SW 212 ° 0 min 0,000 mm 0,0 UV-I 0 W/m² -3,9 °C 11,3 km/h (2 Bft)
02.12.2016 05:43 -0,6 °C -0,6 °C 78 % 1022,1 hPa 0,0 mm 7,2 km/h (2 Bft) S-SW 200 ° 0 min 0,000 mm 0,0 UV-I 0 W/m² -3,9 °C 9,7 km/h (2 Bft)
02.12.2016 05:44 -0,6 °C -0,6 °C 78 % 1022,1 hPa 0,0 mm 8,8 km/h (2 Bft) S-SW 199 ° 0 min 0,000 mm 0,0 UV-I 0 W/m² -3,9 °C 11,3 km/h (2 Bft)
02.12.2016 05:45 -0,5 °C -0,5 °C 78 % 1022,0 hPa 0,0 mm 9,9 km/h (2 Bft) S-SW 203 ° 0 min 0,000 mm 0,0 UV-I 0 W/m² -3,9 °C 12,9 km/h (3 Bft)
02.12.2016 05:46 -0,5 °C -0,5 °C 78 % 1022,0 hPa 0,0 mm 11,5 km/h (2 Bft) S-SW 196 ° 0 min 0,000 mm 0,0 UV-I 0 W/m² -3,9 °C 16,1 km/h (3 Bft)
02.12.2016 05:47 -0,4 °C -0,4 °C 78 % 1022,0 hPa 0,0 mm 9,5 km/h (2 Bft) S 190 ° 0 min 0,000 mm 0,0 UV-I 0 W/m² -3,8 °C 14,5 km/h (3 Bft)
02.12.2016 05:48 -0,4 °C -0,4 °C 79 % 1022,0 hPa 0,0 mm 9,4 km/h (2 Bft) W-SW 240 ° 0 min 0,000 mm 0,0 UV-I 0 W/m² -3,6 °C 14,5 km/h (3 Bft)
02.12.2016 05:49 -0,4 °C -0,4 °C 79 % 1021,9 hPa 0,0 mm 8,2 km/h (2 Bft) SW 230 ° 0 min 0,000 mm 0,0 UV-I 0 W/m² -3,6 °C 16,1 km/h (3 Bft)
02.12.2016 05:50 -0,3 °C -0,3 °C 79 % 1022,1 hPa 0,0 mm 9,1 km/h (2 Bft) S-SW 213 ° 0 min 0,000 mm 0,0 UV-I 0 W/m² -3,5 °C 12,9 km/h (3 Bft)
02.12.2016 05:51 -0,3 °C -0,3 °C 79 % 1022,0 hPa 0,0 mm 7,3 km/h (2 Bft) S 181 ° 0 min 0,000 mm 0,0 UV-I 0 W/m² -3,5 °C 11,3 km/h (2 Bft)
02.12.2016 05:52 -0,3 °C -0,3 °C 79 % 1022,0 hPa 0,0 mm 8,0 km/h (2 Bft) W-SW 243 ° 0 min 0,000 mm 0,0 UV-I 0 W/m² -3,5 °C 11,3 km/h (2 Bft)
02.12.2016 05:53 -0,3 °C -0,3 °C 79 % 1022,0 hPa 0,0 mm 6,7 km/h (2 Bft) S-SW 212 ° 0 min 0,000 mm 0,0 UV-I 0 W/m² -3,5 °C 11,3 km/h (2 Bft)
02.12.2016 05:54 -0,3 °C -0,3 °C 79 % 1022,0 hPa 0,0 mm 5,8 km/h (2 Bft) S-SW 197 ° 0 min 0,000 mm 0,0 UV-I 0 W/m² -3,5 °C 8,0 km/h (2 Bft)
02.12.2016 05:55 -0,2 °C -0,2 °C 79 % 1022,0 hPa 0,0 mm 6,8 km/h (2 Bft) S-SW 200 ° 0 min 0,000 mm 0,0 UV-I 0 W/m² -3,4 °C 9,7 km/h (2 Bft)
02.12.2016 05:56 -0,2 °C -0,2 °C 79 % 1022,1 hPa 0,0 mm 4,7 km/h (1 Bft) W-SW 242 ° 0 min 0,000 mm 0,0 UV-I 0 W/m² -3,4 °C 6,4 km/h (2 Bft)
02.12.2016 05:57 -0,2 °C -0,2 °C 79 % 1022,1 hPa 0,0 mm 5,2 km/h (1 Bft) W-SW 238 ° 0 min 0,000 mm 0,0 UV-I 0 W/m² -3,4 °C 8,0 km/h (2 Bft)
02.12.2016 05:58 -0,2 °C -0,2 °C 79 % 1022,1 hPa 0,0 mm 5,6 km/h (1 Bft) SW 229 ° 0 min 0,000 mm 0,0 UV-I 0 W/m² -3,4 °C 9,7 km/h (2 Bft)
02.12.2016 05:59 -0,2 °C -0,2 °C 79 % 1022,1 hPa 0,0 mm 5,3 km/h (1 Bft) SW 227 ° 0 min 0,000 mm 0,0 UV-I 0 W/m² -3,4 °C 8,0 km/h (2 Bft)
02.12.2016 06:00 -0,2 °C -0,2 °C 79 % 1022,1 hPa 0,0 mm 3,1 km/h (1 Bft) SW 217 ° 0 min 0,025 mm 0,0 UV-I 0 W/m² -3,4 °C 4,8 km/h (1 Bft)
02.12.2016 06:01 -0,2 °C -0,1 °C 79 % 1022,1 hPa 0,0 mm 5,1 km/h (1 Bft) S-SW 208 ° 0 min 0,000 mm 0,0 UV-I 0 W/m² -3,4 °C 9,7 km/h (2 Bft)
02.12.2016 06:02 -0,2 °C -0,1 °C 79 % 1022,2 hPa 0,0 mm 6,8 km/h (2 Bft) S-SW 204 ° 0 min 0,000 mm 0,0 UV-I 0 W/m² -3,4 °C 12,9 km/h (3 Bft)
02.12.2016 06:03 -0,1 °C -0,1 °C 79 % 1022,2 hPa 0,0 mm 5,9 km/h (2 Bft) S-SW 205 ° 0 min 0,000 mm 0,0 UV-I 0 W/m² -3,3 °C 9,7 km/h (2 Bft)
02.12.2016 06:04 -0,1 °C -0,1 °C 79 % 1022,1 hPa 0,0 mm 7,2 km/h (2 Bft) S-SW 207 ° 0 min 0,000 mm 0,0 UV-I 0 W/m² -3,3 °C 9,7 km/h (2 Bft)
02.12.2016 06:05 -0,1 °C -0,1 °C 79 % 1022,2 hPa 0,0 mm 6,1 km/h (2 Bft) S 176 ° 0 min 0,000 mm 0,0 UV-I 0 W/m² -3,3 °C 9,7 km/h (2 Bft)
02.12.2016 06:06 -0,1 °C -0,1 °C 79 % 1022,2 hPa 0,0 mm 7,0 km/h (2 Bft) S-SW 199 ° 0 min 0,000 mm 0,0 UV-I 0 W/m² -3,3 °C 9,7 km/h (2 Bft)
02.12.2016 06:07 -0,1 °C -0,1 °C 79 % 1022,2 hPa 0,0 mm 6,3 km/h (2 Bft) S-SW 207 ° 0 min 0,000 mm 0,0 UV-I 0 W/m² -3,3 °C 8,0 km/h (2 Bft)
02.12.2016 06:08 -0,1 °C -0,1 °C 79 % 1022,2 hPa 0,0 mm 5,7 km/h (1 Bft) S-SW 198 ° 0 min 0,000 mm 0,0 UV-I 0 W/m² -3,3 °C 8,0 km/h (2 Bft)
02.12.2016 06:09 -0,1 °C -0,1 °C 79 % 1022,2 hPa 0,0 mm 6,1 km/h (2 Bft) S-SW 194 ° 0 min 0,000 mm 0,0 UV-I 0 W/m² -3,3 °C 11,3 km/h (2 Bft)
02.12.2016 06:10 -0,1 °C -0,1 °C 79 % 1022,2 hPa 0,0 mm 7,2 km/h (2 Bft) S-SW 193 ° 0 min 0,000 mm 0,0 UV-I 0 W/m² -3,3 °C 9,7 km/h (2 Bft)
02.12.2016 06:11 -0,1 °C -0,1 °C 79 % 1022,2 hPa 0,0 mm 4,9 km/h (1 Bft) SW 231 ° 0 min 0,000 mm 0,0 UV-I 0 W/m² -3,3 °C 8,0 km/h (2 Bft)
02.12.2016 06:12 -0,1 °C -0,1 °C 79 % 1022,4 hPa 0,0 mm 3,8 km/h (1 Bft) SW 225 ° 0 min 0,000 mm 0,0 UV-I 0 W/m² -3,3 °C 4,8 km/h (1 Bft)
02.12.2016 06:13 -0,1 °C -0,1 °C 79 % 1022,4 hPa 0,0 mm 4,1 km/h (1 Bft) S-SW 207 ° 0 min 0,000 mm 0,0 UV-I 0 W/m² -3,3 °C 6,4 km/h (2 Bft)
02.12.2016 06:14 -0,1 °C -0,1 °C 79 % 1022,4 hPa 0,0 mm 4,7 km/h (1 Bft) S-SW 202 ° 0 min 0,000 mm 0,0 UV-I 0 W/m² -3,3 °C 6,4 km/h (2 Bft)
02.12.2016 06:15 -0,1 °C -0,1 °C 79 % 1022,4 hPa 0,0 mm 5,6 km/h (1 Bft) S-SW 196 ° 0 min 0,000 mm 0,0 UV-I 0 W/m² -3,3 °C 6,4 km/h (2 Bft)
02.12.2016 06:16 -0,1 °C -0,1 °C 79 % 1022,4 hPa 0,0 mm 4,7 km/h (1 Bft) S 184 ° 0 min 0,000 mm 0,0 UV-I 0 W/m² -3,3 °C 6,4 km/h (2 Bft)
02.12.2016 06:17 -0,1 °C -0,1 °C 80 % 1022,4 hPa 0,0 mm 4,4 km/h (1 Bft) SW 221 ° 0 min 0,000 mm 0,0 UV-I 0 W/m² -3,1 °C 6,4 km/h (2 Bft)
02.12.2016 06:18 -0,1 °C -0,1 °C 80 % 1022,3 hPa 0,0 mm 3,1 km/h (1 Bft) SW 221 ° 0 min 0,000 mm 0,0 UV-I 0 W/m² -3,1 °C 4,8 km/h (1 Bft)
02.12.2016 06:19 -0,1 °C -0,1 °C 80 % 1022,3 hPa 0,0 mm 2,2 km/h (1 Bft) SW 221 ° 0 min 0,000 mm 0,0 UV-I 0 W/m² -3,1 °C 3,2 km/h (1 Bft)
02.12.2016 06:20 -0,2 °C -0,1 °C 79 % 1022,4 hPa 0,0 mm 5,3 km/h (1 Bft) S-SW 192 ° 0 min 0,000 mm 0,0 UV-I 0 W/m² -3,4 °C 8,0 km/h (2 Bft)
02.12.2016 06:21 -0,2 °C -0,1 °C 79 % 1022,2 hPa 0,0 mm 5,7 km/h (1 Bft) S 184 ° 0 min 0,000 mm 0,0 UV-I 0 W/m² -3,4 °C 9,7 km/h (2 Bft)
02.12.2016 06:22 -0,2 °C -0,1 °C 79 % 1022,3 hPa 0,0 mm 4,3 km/h (1 Bft) S 189 ° 0 min 0,000 mm 0,0 UV-I 0 W/m² -3,4 °C 6,4 km/h (2 Bft)
02.12.2016 06:23 -0,2 °C -0,1 °C 79 % 1022,3 hPa 0,0 mm 4,4 km/h (1 Bft) S-SW 196 ° 0 min 0,000 mm 0,0 UV-I 0 W/m² -3,4 °C 6,4 km/h (2 Bft)
02.12.2016 06:24 -0,2 °C -0,2 °C 79 % 1022,3 hPa 0,0 mm 6,3 km/h (2 Bft) S-SW 200 ° 0 min 0,000 mm 0,0 UV-I 0 W/m² -3,4 °C 8,0 km/h (2 Bft)
02.12.2016 06:25 -0,2 °C -0,2 °C 79 % 1022,4 hPa 0,0 mm 4,1 km/h (1 Bft) S-SW 197 ° 0 min 0,000 mm 0,0 UV-I 0 W/m² -3,4 °C 8,0 km/h (2 Bft)
02.12.2016 06:26 -0,2 °C -0,2 °C 79 % 1022,2 hPa 0,0 mm 4,7 km/h (1 Bft) S-SW 201 ° 0 min 0,000 mm 0,0 UV-I 0 W/m² -3,4 °C 6,4 km/h (2 Bft)
02.12.2016 06:27 -0,2 °C -0,2 °C 80 % 1022,2 hPa 0,0 mm 3,6 km/h (1 Bft) S-SW 203 ° 0 min 0,000 mm 0,0 UV-I 0 W/m² -3,2 °C 6,4 km/h (2 Bft)
02.12.2016 06:28 -0,2 °C -0,2 °C 79 % 1022,2 hPa 0,0 mm 3,4 km/h (1 Bft) S-SW 203 ° 0 min 0,000 mm 0,0 UV-I 0 W/m² -3,4 °C 6,4 km/h (2 Bft)
02.12.2016 06:29 -0,2 °C -0,2 °C 80 % 1022,3 hPa 0,0 mm 3,2 km/h (1 Bft) S-SW 199 ° 0 min 0,000 mm 0,0 UV-I 0 W/m² -3,2 °C 4,8 km/h (1 Bft)
02.12.2016 06:30 -0,2 °C -0,2 °C 80 % 1022,3 hPa 0,0 mm 4,4 km/h (1 Bft) SW 225 ° 0 min 0,000 mm 0,0 UV-I 0 W/m² -3,2 °C 6,4 km/h (2 Bft)
02.12.2016 06:31 -0,2 °C -0,2 °C 79 % 1022,2 hPa 0,0 mm 4,4 km/h (1 Bft) S-SW 211 ° 0 min 0,000 mm 0,0 UV-I 0 W/m² -3,4 °C 8,0 km/h (2 Bft)
02.12.2016 06:32 -0,2 °C -0,2 °C 80 % 1022,2 hPa 0,0 mm 4,0 km/h (1 Bft) SW 215 ° 0 min 0,000 mm 0,0 UV-I 0 W/m² -3,2 °C 8,0 km/h (2 Bft)
02.12.2016 06:33 -0,2 °C -0,2 °C 79 % 1022,3 hPa 0,0 mm 3,1 km/h (1 Bft) SW 215 ° 0 min 0,000 mm 0,0 UV-I 0 W/m² -3,4 °C 4,8 km/h (1 Bft)
02.12.2016 06:34 -0,2 °C -0,2 °C 80 % 1022,2 hPa 0,0 mm 3,6 km/h (1 Bft) SW 216 ° 0 min 0,000 mm 0,0 UV-I 0 W/m² -3,2 °C 4,8 km/h (1 Bft)
02.12.2016 06:35 -0,2 °C -0,2 °C 79 % 1022,2 hPa 0,0 mm 4,5 km/h (1 Bft) S-SW 201 ° 0 min 0,000 mm 0,0 UV-I 0 W/m² -3,4 °C 6,4 km/h (2 Bft)
02.12.2016 06:36 -0,2 °C -0,2 °C 79 % 1022,2 hPa 0,0 mm 4,3 km/h (1 Bft) S-SW 205 ° 0 min 0,000 mm 0,0 UV-I 0 W/m² -3,4 °C 4,8 km/h (1 Bft)
02.12.2016 06:37 -0,2 °C -0,2 °C 79 % 1022,2 hPa 0,0 mm 3,1 km/h (1 Bft) W-SW 243 ° 0 min 0,000 mm 0,0 UV-I 0 W/m² -3,4 °C 4,8 km/h (1 Bft)
02.12.2016 06:38 -0,2 °C -0,2 °C 79 % 1022,3 hPa 0,0 mm 4,8 km/h (1 Bft) W-SW 244 ° 0 min 0,000 mm 0,0 UV-I 0 W/m² -3,4 °C 8,0 km/h (2 Bft)
02.12.2016 06:39 -0,2 °C -0,2 °C 79 % 1022,2 hPa 0,0 mm 3,7 km/h (1 Bft) W-SW 256 ° 0 min 0,000 mm 0,0 UV-I 0 W/m² -3,4 °C 9,7 km/h (2 Bft)
02.12.2016 06:40 -0,2 °C -0,2 °C 80 % 1022,3 hPa 0,0 mm 3,4 km/h (1 Bft) W-SW 252 ° 0 min 0,000 mm 0,0 UV-I 0 W/m² -3,2 °C 6,4 km/h (2 Bft)
02.12.2016 06:41 -0,2 °C -0,2 °C 79 % 1022,2 hPa 0,0 mm 2,1 km/h (1 Bft) W-SW 252 ° 0 min 0,000 mm 0,0 UV-I 0 W/m² -3,4 °C 3,2 km/h (1 Bft)
02.12.2016 06:42 -0,2 °C -0,2 °C 79 % 1022,3 hPa 0,0 mm 2,7 km/h (1 Bft) W-SW 252 ° 0 min 0,000 mm 0,0 UV-I 0 W/m² -3,4 °C 3,2 km/h (1 Bft)
02.12.2016 06:43 -0,2 °C -0,2 °C 79 % 1022,3 hPa 0,0 mm 3,6 km/h (1 Bft) W 267 ° 0 min 0,000 mm 0,0 UV-I 0 W/m² -3,4 °C 4,8 km/h (1 Bft)
02.12.2016 06:44 -0,2 °C -0,2 °C 79 % 1022,3 hPa 0,0 mm 4,0 km/h (1 Bft) W 267 ° 0 min 0,000 mm 0,0 UV-I 0 W/m² -3,4 °C 4,8 km/h (1 Bft)
02.12.2016 06:45 -0,2 °C -0,2 °C 78 % 1022,3 hPa 0,0 mm 3,9 km/h (1 Bft) W 267 ° 0 min 0,000 mm 0,0 UV-I 0 W/m² -3,6 °C 6,4 km/h (2 Bft)
02.12.2016 06:46 -0,2 °C -0,2 °C 78 % 1022,3 hPa 0,0 mm 3,6 km/h (1 Bft) W-SW 252 ° 0 min 0,000 mm 0,0 UV-I 0 W/m² -3,6 °C 6,4 km/h (2 Bft)
02.12.2016 06:47 -0,2 °C -0,2 °C 79 % 1022,3 hPa 0,0 mm 4,1 km/h (1 Bft) SW 222 ° 0 min 0,000 mm 0,0 UV-I 0 W/m² -3,4 °C 6,4 km/h (2 Bft)
02.12.2016 06:48 -0,2 °C -0,2 °C 79 % 1022,3 hPa 0,0 mm 4,0 km/h (1 Bft) W-SW 258 ° 0 min 0,000 mm 0,0 UV-I 0 W/m² -3,4 °C 6,4 km/h (2 Bft)
02.12.2016 06:49 -0,2 °C -0,2 °C 79 % 1022,2 hPa 0,0 mm 3,8 km/h (1 Bft) W-SW 254 ° 0 min 0,000 mm 0,0 UV-I 0 W/m² -3,4 °C 6,4 km/h (2 Bft)
02.12.2016 06:50 -0,2 °C -0,2 °C 79 % 1022,2 hPa 0,0 mm 5,5 km/h (1 Bft) SW 225 ° 0 min 0,000 mm 0,0 UV-I 0 W/m² -3,4 °C 8,0 km/h (2 Bft)
02.12.2016 06:51 -0,2 °C -0,2 °C 79 % 1022,3 hPa 0,0 mm 3,9 km/h (1 Bft) W-SW 239 ° 0 min 0,000 mm 0,0 UV-I 0 W/m² -3,4 °C 8,0 km/h (2 Bft)
02.12.2016 06:52 -0,3 °C -0,2 °C 79 % 1022,3 hPa 0,0 mm 4,0 km/h (1 Bft) W-SW 242 ° 0 min 0,000 mm 0,0 UV-I 0 W/m² -3,5 °C 4,8 km/h (1 Bft)
02.12.2016 06:53 -0,3 °C -0,2 °C 79 % 1022,2 hPa 0,0 mm 4,7 km/h (1 Bft) S-SW 213 ° 0 min 0,000 mm 0,0 UV-I 0 W/m² -3,5 °C 6,4 km/h (2 Bft)
02.12.2016 06:54 -0,3 °C -0,3 °C 79 % 1022,2 hPa 0,0 mm 6,0 km/h (2 Bft) S-SW 195 ° 0 min 0,000 mm 0,0 UV-I 0 W/m² -3,5 °C 8,0 km/h (2 Bft)
02.12.2016 06:55 -0,3 °C -0,2 °C 79 % 1022,2 hPa 0,0 mm 5,2 km/h (1 Bft) SW 215 ° 0 min 0,000 mm 0,0 UV-I 0 W/m² -3,5 °C 9,7 km/h (2 Bft)
02.12.2016 06:56 -0,2 °C -0,2 °C 79 % 1022,3 hPa 0,0 mm 5,5 km/h (1 Bft) W-SW 238 ° 0 min 0,000 mm 0,0 UV-I 0 W/m² -3,4 °C 6,4 km/h (2 Bft)
02.12.2016 06:57 -0,2 °C -0,2 °C 79 % 1022,2 hPa 0,0 mm 4,2 km/h (1 Bft) S-SW 204 ° 0 min 0,000 mm 0,0 UV-I 0 W/m² -3,4 °C 6,4 km/h (2 Bft)
02.12.2016 06:58 -0,2 °C -0,2 °C 79 % 1022,3 hPa 0,0 mm 3,6 km/h (1 Bft) W-SW 252 ° 0 min 0,000 mm 0,0 UV-I 0 W/m² -3,4 °C 6,4 km/h (2 Bft)
02.12.2016 06:59 -0,2 °C -0,2 °C 79 % 1022,3 hPa 0,0 mm 4,0 km/h (1 Bft) W-SW 246 ° 0 min 0,000 mm 0,0 UV-I 0 W/m² -3,4 °C 8,0 km/h (2 Bft)
02.12.2016 07:00 -0,2 °C -0,2 °C 79 % 1022,3 hPa 0,0 mm 5,3 km/h (1 Bft) W-SW 254 ° 0 min 0,000 mm 0,0 UV-I 0 W/m² -3,4 °C 6,4 km/h (2 Bft)
02.12.2016 07:01 -0,2 °C -0,2 °C 78 % 1022,3 hPa 0,0 mm 4,6 km/h (1 Bft) W-SW 246 ° 0 min 0,026 mm 0,0 UV-I 0 W/m² -3,6 °C 8,0 km/h (2 Bft)
02.12.2016 07:02 -0,2 °C -0,1 °C 79 % 1022,3 hPa 0,0 mm 3,8 km/h (1 Bft) W-SW 244 ° 0 min 0,000 mm 0,0 UV-I 0 W/m² -3,4 °C 4,8 km/h (1 Bft)
02.12.2016 07:03 -0,2 °C -0,1 °C 78 % 1022,3 hPa 0,0 mm 3,7 km/h (1 Bft) W-SW 244 ° 0 min 0,000 mm 0,0 UV-I 0 W/m² -3,6 °C 4,8 km/h (1 Bft)
02.12.2016 07:04 -0,1 °C -0,1 °C 78 % 1022,3 hPa 0,0 mm 3,9 km/h (1 Bft) W-SW 244 ° 0 min 0,000 mm 0,0 UV-I 0 W/m² -3,5 °C 6,4 km/h (2 Bft)
02.12.2016 07:05 -0,2 °C -0,1 °C 78 % 1022,3 hPa 0,0 mm 4,4 km/h (1 Bft) SW 214 ° 0 min 0,000 mm 0,0 UV-I 0 W/m² -3,6 °C 8,0 km/h (2 Bft)
02.12.2016 07:06 -0,2 °C -0,1 °C 78 % 1022,3 hPa 0,0 mm 3,3 km/h (1 Bft) SW 229 ° 0 min 0,000 mm 0,0 UV-I 0 W/m² -3,6 °C 4,8 km/h (1 Bft)
02.12.2016 07:07 -0,1 °C -0,1 °C 78 % 1022,3 hPa 0,0 mm 6,6 km/h (2 Bft) W-SW 237 ° 0 min 0,000 mm 0,0 UV-I 0 W/m² -3,5 °C 12,9 km/h (3 Bft)
02.12.2016 07:08 -0,1 °C -0,1 °C 78 % 1022,3 hPa 0,0 mm 5,2 km/h (1 Bft) SW 221 ° 0 min 0,000 mm 0,0 UV-I 0 W/m² -3,5 °C 9,7 km/h (2 Bft)
02.12.2016 07:09 -0,1 °C -0,1 °C 78 % 1022,4 hPa 0,0 mm 5,6 km/h (1 Bft) W 263 ° 0 min 0,000 mm 0,0 UV-I 0 W/m² -3,5 °C 9,7 km/h (2 Bft)
02.12.2016 07:10 -0,1 °C -0,1 °C 78 % 1022,4 hPa 0,0 mm 5,5 km/h (1 Bft) S-SW 207 ° 0 min 0,000 mm 0,0 UV-I 0 W/m² -3,5 °C 8,0 km/h (2 Bft)
02.12.2016 07:11 0,0 °C 0,0 °C 78 % 1022,3 hPa 0,0 mm 4,6 km/h (1 Bft) SW 219 ° 0 min 0,000 mm 0,0 UV-I 0 W/m² -3,4 °C 6,4 km/h (2 Bft)
02.12.2016 07:12 0,0 °C 0,0 °C 78 % 1022,4 hPa 0,0 mm 3,5 km/h (1 Bft) S-SW 192 ° 0 min 0,000 mm 0,0 UV-I 0 W/m² -3,4 °C 6,4 km/h (2 Bft)
02.12.2016 07:13 0,1 °C 0,1 °C 78 % 1022,4 hPa 0,0 mm 5,4 km/h (1 Bft) S-SW 206 ° 0 min 0,000 mm 0,0 UV-I 0 W/m² -3,3 °C 8,0 km/h (2 Bft)
02.12.2016 07:14 0,1 °C 0,1 °C 78 % 1022,4 hPa 0,0 mm 5,2 km/h (1 Bft) S-SW 209 ° 0 min 0,000 mm 0,0 UV-I 0 W/m² -3,3 °C 6,4 km/h (2 Bft)
02.12.2016 07:15 0,2 °C 0,2 °C 78 % 1022,4 hPa 0,0 mm 4,7 km/h (1 Bft) SW 234 ° 0 min 0,000 mm 0,0 UV-I 0 W/m² -3,2 °C 6,4 km/h (2 Bft)
02.12.2016 07:16 0,2 °C 0,2 °C 78 % 1022,4 hPa 0,0 mm 5,0 km/h (1 Bft) SW 220 ° 0 min 0,000 mm 0,0 UV-I 0 W/m² -3,2 °C 8,0 km/h (2 Bft)
02.12.2016 07:17 0,2 °C 0,2 °C 78 % 1022,5 hPa 0,0 mm 5,2 km/h (1 Bft) S-SW 205 ° 0 min 0,000 mm 0,0 UV-I 0 W/m² -3,2 °C 8,0 km/h (2 Bft)
02.12.2016 07:18 0,2 °C 0,2 °C 77 % 1022,5 hPa 0,0 mm 6,5 km/h (2 Bft) S-SW 193 ° 0 min 0,000 mm 0,0 UV-I 0 W/m² -3,3 °C 9,7 km/h (2 Bft)
02.12.2016 07:19 0,3 °C 0,3 °C 77 % 1022,5 hPa 0,0 mm 7,5 km/h (2 Bft) S-SW 196 ° 0 min 0,000 mm 0,0 UV-I 0 W/m² -3,2 °C 12,9 km/h (3 Bft)
02.12.2016 07:20 0,3 °C 0,3 °C 77 % 1022,5 hPa 0,0 mm 6,0 km/h (2 Bft) SW 216 ° 0 min 0,000 mm 0,0 UV-I 0 W/m² -3,2 °C 8,0 km/h (2 Bft)
02.12.2016 07:21 0,3 °C 0,3 °C 77 % 1022,5 hPa 0,0 mm 3,8 km/h (1 Bft) SW 231 ° 0 min 0,000 mm 0,0 UV-I 0 W/m² -3,2 °C 4,8 km/h (1 Bft)
02.12.2016 07:22 0,4 °C 0,4 °C 77 % 1022,5 hPa 0,0 mm 2,7 km/h (1 Bft) W-SW 240 ° 0 min 0,000 mm 0,0 UV-I 0 W/m² -3,1 °C 8,0 km/h (2 Bft)
02.12.2016 07:23 0,4 °C 0,4 °C 77 % 1022,5 hPa 0,0 mm 8,0 km/h (2 Bft) SW 225 ° 0 min 0,000 mm 0,0 UV-I 0 W/m² -3,1 °C 12,9 km/h (3 Bft)
02.12.2016 07:24 0,4 °C 0,4 °C 77 % 1022,5 hPa 0,0 mm 7,1 km/h (2 Bft) SW 232 ° 0 min 0,000 mm 0,0 UV-I 0 W/m² -3,1 °C 11,3 km/h (2 Bft)
02.12.2016 07:25 0,4 °C 0,5 °C 77 % 1022,5 hPa 0,0 mm 6,0 km/h (2 Bft) SW 221 ° 0 min 0,000 mm 0,0 UV-I 0 W/m² -3,1 °C 9,7 km/h (2 Bft)
02.12.2016 07:26 0,5 °C 0,5 °C 77 % 1022,5 hPa 0,0 mm 3,8 km/h (1 Bft) SW 229 ° 0 min 0,000 mm 0,0 UV-I 0 W/m² -3,1 °C 6,4 km/h (2 Bft)
02.12.2016 07:27 0,6 °C 0,6 °C 77 % 1022,5 hPa 0,0 mm 4,8 km/h (1 Bft) S-SW 203 ° 0 min 0,000 mm 0,0 UV-I 0 W/m² -3,0 °C 8,0 km/h (2 Bft)
02.12.2016 07:28 0,6 °C 0,6 °C 77 % 1022,5 hPa 0,0 mm 7,8 km/h (2 Bft) S-SW 196 ° 0 min 0,000 mm 0,0 UV-I 0 W/m² -3,0 °C 9,7 km/h (2 Bft)
02.12.2016 07:29 0,6 °C 0,6 °C 77 % 1022,5 hPa 0,0 mm 8,2 km/h (2 Bft) W-SW 244 ° 0 min 0,000 mm 0,0 UV-I 0 W/m² -3,0 °C 16,1 km/h (3 Bft)
02.12.2016 07:30 0,6 °C 0,6 °C 77 % 1022,5 hPa 0,0 mm 6,7 km/h (2 Bft) SW 231 ° 0 min 0,000 mm 0,0 UV-I 0 W/m² -3,0 °C 14,5 km/h (3 Bft)
02.12.2016 07:31 0,6 °C 0,6 °C 77 % 1022,5 hPa 0,0 mm 4,4 km/h (1 Bft) S-SW 203 ° 0 min 0,000 mm 0,0 UV-I 0 W/m² -3,0 °C 6,4 km/h (2 Bft)
02.12.2016 07:32 0,6 °C 0,6 °C 77 % 1022,4 hPa 0,0 mm 4,2 km/h (1 Bft) SW 232 ° 0 min 0,000 mm 0,0 UV-I 0 W/m² -3,0 °C 8,0 km/h (2 Bft)
02.12.2016 07:33 0,6 °C 0,6 °C 77 % 1022,4 hPa 0,0 mm 3,9 km/h (1 Bft) S-SW 192 ° 0 min 0,000 mm 0,0 UV-I 0 W/m² -3,0 °C 6,4 km/h (2 Bft)
02.12.2016 07:34 0,6 °C 0,6 °C 77 % 1022,4 hPa 0,0 mm 6,4 km/h (2 Bft) SW 229 ° 0 min 0,000 mm 0,0 UV-I 0 W/m² -3,0 °C 9,7 km/h (2 Bft)
02.12.2016 07:35 0,6 °C 0,6 °C 77 % 1022,4 hPa 0,0 mm 8,0 km/h (2 Bft) SW 217 ° 0 min 0,000 mm 0,0 UV-I 0 W/m² -3,0 °C 12,9 km/h (3 Bft)
02.12.2016 07:36 0,6 °C 0,7 °C 76 % 1022,4 hPa 0,0 mm 5,7 km/h (1 Bft) SW 230 ° 0 min 0,000 mm 0,0 UV-I 0 W/m² -3,1 °C 12,9 km/h (3 Bft)
02.12.2016 07:37 0,7 °C 0,7 °C 76 % 1022,4 hPa 0,0 mm 4,8 km/h (1 Bft) W-SW 238 ° 0 min 0,000 mm 0,0 UV-I 0 W/m² -3,0 °C 6,4 km/h (2 Bft)
02.12.2016 07:38 0,6 °C 0,7 °C 76 % 1022,4 hPa 0,0 mm 5,4 km/h (1 Bft) SW 216 ° 0 min 0,000 mm 0,0 UV-I 0 W/m² -3,1 °C 9,7 km/h (2 Bft)
02.12.2016 07:39 0,6 °C 0,7 °C 76 % 1022,4 hPa 0,0 mm 5,3 km/h (1 Bft) W-SW 244 ° 0 min 0,000 mm 0,0 UV-I 0 W/m² -3,1 °C 8,0 km/h (2 Bft)
02.12.2016 07:40 0,6 °C 0,7 °C 76 % 1022,5 hPa 0,0 mm 4,0 km/h (1 Bft) SW 236 ° 0 min 0,000 mm 0,0 UV-I 0 W/m² -3,1 °C 8,0 km/h (2 Bft)
02.12.2016 07:41 0,7 °C 0,7 °C 76 % 1022,5 hPa 0,0 mm 6,3 km/h (2 Bft) SW 229 ° 0 min 0,000 mm 0,0 UV-I 0 W/m² -3,0 °C 12,9 km/h (3 Bft)
02.12.2016 07:42 0,7 °C 0,7 °C 76 % 1022,4 hPa 0,0 mm 3,9 km/h (1 Bft) S-SW 213 ° 0 min 0,000 mm 0,0 UV-I 0 W/m² -3,0 °C 6,4 km/h (2 Bft)
02.12.2016 07:43 0,6 °C 0,7 °C 76 % 1022,4 hPa 0,0 mm 5,3 km/h (1 Bft) S-SW 192 ° 0 min 0,000 mm 0,0 UV-I 0 W/m² -3,1 °C 8,0 km/h (2 Bft)
02.12.2016 07:44 0,6 °C 0,7 °C 76 % 1022,4 hPa 0,0 mm 5,4 km/h (1 Bft) W-SW 237 ° 0 min 0,000 mm 0,0 UV-I 0 W/m² -3,1 °C 8,0 km/h (2 Bft)
02.12.2016 07:45 0,7 °C 0,7 °C 76 % 1022,4 hPa 0,0 mm 4,2 km/h (1 Bft) SW 231 ° 0 min 0,000 mm 0,0 UV-I 0 W/m² -3,0 °C 6,4 km/h (2 Bft)
02.12.2016 07:46 0,6 °C 0,7 °C 76 % 1022,4 hPa 0,0 mm 4,9 km/h (1 Bft) W-SW 252 ° 0 min 0,000 mm 0,0 UV-I 0 W/m² -3,1 °C 8,0 km/h (2 Bft)
02.12.2016 07:47 0,6 °C 0,7 °C 76 % 1022,5 hPa 0,0 mm 6,2 km/h (2 Bft) W 263 ° 0 min 0,000 mm 0,0 UV-I 0 W/m² -3,1 °C 14,5 km/h (3 Bft)
02.12.2016 07:48 0,6 °C 0,6 °C 76 % 1022,5 hPa 0,0 mm 6,3 km/h (2 Bft) SW 227 ° 0 min 0,000 mm 0,0 UV-I 0 W/m² -3,1 °C 14,5 km/h (3 Bft)
02.12.2016 07:49 0,6 °C 0,6 °C 76 % 1022,5 hPa 0,0 mm 3,0 km/h (1 Bft) W-SW 251 ° 0 min 0,000 mm 0,0 UV-I 0 W/m² -3,1 °C 6,4 km/h (2 Bft)
02.12.2016 07:50 0,6 °C 0,6 °C 76 % 1022,5 hPa 0,0 mm 4,8 km/h (1 Bft) SW 227 ° 0 min 0,000 mm 0,0 UV-I 0 W/m² -3,1 °C 6,4 km/h (2 Bft)
02.12.2016 07:51 0,6 °C 0,6 °C 76 % 1022,5 hPa 0,0 mm 4,0 km/h (1 Bft) SW 234 ° 0 min 0,000 mm 0,0 UV-I 0 W/m² -3,1 °C 6,4 km/h (2 Bft)
02.12.2016 07:52 0,6 °C 0,6 °C 76 % 1022,5 hPa 0,0 mm 4,2 km/h (1 Bft) SW 229 ° 0 min 0,000 mm 0,0 UV-I 0 W/m² -3,1 °C 4,8 km/h (1 Bft)
02.12.2016 07:53 0,6 °C 0,6 °C 76 % 1022,5 hPa 0,0 mm 2,7 km/h (1 Bft) SW 227 ° 0 min 0,000 mm 0,0 UV-I 0 W/m² -3,1 °C 4,8 km/h (1 Bft)
02.12.2016 07:54 0,6 °C 0,6 °C 76 % 1022,5 hPa 0,0 mm 3,7 km/h (1 Bft) S-SW 200 ° 0 min 0,000 mm 0,0 UV-I 0 W/m² -3,1 °C 6,4 km/h (2 Bft)
02.12.2016 07:55 0,6 °C 0,6 °C 76 % 1022,5 hPa 0,0 mm 3,8 km/h (1 Bft) SW 232 ° 0 min 0,000 mm 0,0 UV-I 0 W/m² -3,1 °C 6,4 km/h (2 Bft)
02.12.2016 07:56 0,6 °C 0,6 °C 76 % 1022,6 hPa 0,0 mm 4,1 km/h (1 Bft) S-SW 205 ° 0 min 0,000 mm 0,0 UV-I 0 W/m² -3,1 °C 6,4 km/h (2 Bft)
02.12.2016 07:57 0,6 °C 0,6 °C 76 % 1022,5 hPa 0,0 mm 5,1 km/h (1 Bft) SW 223 ° 0 min 0,000 mm 0,0 UV-I 0 W/m² -3,1 °C 6,4 km/h (2 Bft)
02.12.2016 07:58 0,6 °C 0,6 °C 76 % 1022,5 hPa 0,0 mm 3,3 km/h (1 Bft) SW 223 ° 0 min 0,000 mm 0,0 UV-I 0 W/m² -3,1 °C 4,8 km/h (1 Bft)
02.12.2016 07:59 0,6 °C 0,6 °C 77 % 1022,5 hPa 0,0 mm 4,6 km/h (1 Bft) W-SW 249 ° 0 min 0,000 mm 0,0 UV-I 0 W/m² -3,0 °C 6,4 km/h (2 Bft)
02.12.2016 08:00 0,6 °C 0,6 °C 76 % 1022,6 hPa 0,0 mm 3,3 km/h (1 Bft) S-SW 210 ° 0 min 0,000 mm 0,0 UV-I 5 W/m² -3,1 °C 6,4 km/h (2 Bft)
02.12.2016 08:01 0,6 °C 0,6 °C 77 % 1022,6 hPa 0,0 mm 2,9 km/h (1 Bft) S-SW 210 ° 0 min 0,000 mm 0,0 UV-I 5 W/m² -3,0 °C 6,4 km/h (2 Bft)
02.12.2016 08:02 0,6 °C 0,6 °C 77 % 1022,7 hPa 0,0 mm 3,6 km/h (1 Bft) W 260 ° 0 min 0,000 mm 0,0 UV-I 5 W/m² -3,0 °C 4,8 km/h (1 Bft)
02.12.2016 08:03 0,6 °C 0,7 °C 77 % 1022,7 hPa 0,0 mm 2,9 km/h (1 Bft) W 259 ° 0 min 0,000 mm 0,0 UV-I 5 W/m² -3,0 °C 4,8 km/h (1 Bft)
02.12.2016 08:04 0,6 °C 0,7 °C 77 % 1022,7 hPa 0,0 mm 4,6 km/h (1 Bft) SW 234 ° 0 min 0,000 mm 0,0 UV-I 5 W/m² -3,0 °C 6,4 km/h (2 Bft)
02.12.2016 08:05 0,7 °C 0,7 °C 77 % 1022,6 hPa 0,0 mm 2,7 km/h (1 Bft) SW 234 ° 0 min 0,000 mm 0,0 UV-I 5 W/m² -2,9 °C 4,8 km/h (1 Bft)
02.12.2016 08:06 0,7 °C 0,7 °C 77 % 1022,7 hPa 0,0 mm 3,5 km/h (1 Bft) W-SW 246 ° 0 min 0,000 mm 0,0 UV-I 5 W/m² -2,9 °C 6,4 km/h (2 Bft)
02.12.2016 08:07 0,7 °C 0,7 °C 77 % 1022,6 hPa 0,0 mm 1,7 km/h (1 Bft) W-SW 246 ° 0 min 0,000 mm 0,0 UV-I 5 W/m² -2,9 °C 3,2 km/h (1 Bft)
02.12.2016 08:08 0,7 °C 0,7 °C 77 % 1022,6 hPa 0,0 mm 4,6 km/h (1 Bft) SW 232 ° 0 min 0,000 mm 0,0 UV-I 5 W/m² -2,9 °C 6,4 km/h (2 Bft)
02.12.2016 08:09 0,7 °C 0,7 °C 77 % 1022,7 hPa 0,0 mm 4,3 km/h (1 Bft) SW 225 ° 0 min 0,000 mm 0,0 UV-I 7 W/m² -2,9 °C 6,4 km/h (2 Bft)
02.12.2016 08:10 0,7 °C 0,7 °C 77 % 1022,7 hPa 0,0 mm 4,4 km/h (1 Bft) W-SW 242 ° 0 min 0,000 mm 0,0 UV-I 7 W/m² -2,9 °C 4,8 km/h (1 Bft)
02.12.2016 08:11 0,7 °C 0,7 °C 77 % 1022,7 hPa 0,0 mm 6,7 km/h (2 Bft) W-SW 246 ° 0 min 0,000 mm 0,0 UV-I 7 W/m² -2,9 °C 11,3 km/h (2 Bft)
02.12.2016 08:12 0,7 °C 0,7 °C 77 % 1022,7 hPa 0,0 mm 6,8 km/h (2 Bft) W-SW 254 ° 0 min 0,000 mm 0,0 UV-I 7 W/m² -2,9 °C 9,7 km/h (2 Bft)
02.12.2016 08:13 0,7 °C 0,7 °C 77 % 1022,7 hPa 0,0 mm 5,8 km/h (2 Bft) W-SW 250 ° 0 min 0,000 mm 0,0 UV-I 9 W/m² -2,9 °C 8,0 km/h (2 Bft)
02.12.2016 08:14 0,8 °C 0,8 °C 77 % 1022,7 hPa 0,0 mm 5,4 km/h (1 Bft) W-SW 252 ° 0 min 0,000 mm 0,0 UV-I 9 W/m² -2,8 °C 6,4 km/h (2 Bft)
02.12.2016 08:15 0,8 °C 0,8 °C 77 % 1022,7 hPa 0,0 mm 5,1 km/h (1 Bft) W-SW 252 ° 0 min 0,000 mm 0,0 UV-I 9 W/m² -2,8 °C 6,4 km/h (2 Bft)
02.12.2016 08:16 0,7 °C 0,8 °C 77 % 1022,7 hPa 0,0 mm 4,7 km/h (1 Bft) SW 219 ° 0 min 0,000 mm 0,0 UV-I 9 W/m² -2,9 °C 6,4 km/h (2 Bft)
02.12.2016 08:17 0,8 °C 0,8 °C 77 % 1022,7 hPa 0,0 mm 5,0 km/h (1 Bft) SW 220 ° 0 min 0,000 mm 0,0 UV-I 11 W/m² -2,8 °C 6,4 km/h (2 Bft)
02.12.2016 08:18 0,8 °C 0,8 °C 77 % 1022,7 hPa 0,0 mm 4,0 km/h (1 Bft) S-SW 211 ° 0 min 0,000 mm 0,0 UV-I 12 W/m² -2,8 °C 6,4 km/h (2 Bft)
02.12.2016 08:19 0,8 °C 0,8 °C 77 % 1022,8 hPa 0,0 mm 3,4 km/h (1 Bft) SW 221 ° 0 min 0,000 mm 0,0 UV-I 12 W/m² -2,8 °C 4,8 km/h (1 Bft)
02.12.2016 08:20 0,8 °C 0,8 °C 77 % 1022,8 hPa 0,0 mm 3,8 km/h (1 Bft) W-SW 255 ° 0 min 0,000 mm 0,0 UV-I 12 W/m² -2,8 °C 8,0 km/h (2 Bft)
02.12.2016 08:21 0,8 °C 0,8 °C 77 % 1022,8 hPa 0,0 mm 5,2 km/h (1 Bft) SW 234 ° 0 min 0,000 mm 0,0 UV-I 14 W/m² -2,8 °C 11,3 km/h (2 Bft)
02.12.2016 08:22 0,8 °C 0,8 °C 77 % 1022,8 hPa 0,0 mm 3,1 km/h (1 Bft) W-SW 238 ° 0 min 0,000 mm 0,0 UV-I 14 W/m² -2,8 °C 4,8 km/h (1 Bft)
02.12.2016 08:23 0,8 °C 0,8 °C 77 % 1022,8 hPa 0,0 mm 5,2 km/h (1 Bft) W-SW 248 ° 0 min 0,000 mm 0,0 UV-I 14 W/m² -2,8 °C 6,4 km/h (2 Bft)
02.12.2016 08:24 0,8 °C 0,8 °C 77 % 1022,8 hPa 0,0 mm 4,2 km/h (1 Bft) W-SW 248 ° 0 min 0,000 mm 0,0 UV-I 14 W/m² -2,8 °C 6,4 km/h (2 Bft)
02.12.2016 08:25 0,8 °C 0,8 °C 77 % 1022,9 hPa 0,0 mm 4,8 km/h (1 Bft) W-SW 250 ° 0 min 0,000 mm 0,0 UV-I 18 W/m² -2,8 °C 8,0 km/h (2 Bft)
02.12.2016 08:26 0,9 °C 0,9 °C 77 % 1022,8 hPa 0,0 mm 3,4 km/h (1 Bft) SW 234 ° 0 min 0,000 mm 0,0 UV-I 18 W/m² -2,7 °C 4,8 km/h (1 Bft)
02.12.2016 08:27 0,9 °C 0,9 °C 77 % 1022,9 hPa 0,0 mm 5,7 km/h (1 Bft) SW 226 ° 0 min 0,000 mm 0,0 UV-I 18 W/m² -2,7 °C 11,3 km/h (2 Bft)
02.12.2016 08:28 0,9 °C 0,9 °C 77 % 1022,9 hPa 0,0 mm 4,8 km/h (1 Bft) W 261 ° 0 min 0,000 mm 0,0 UV-I 18 W/m² -2,7 °C 12,9 km/h (3 Bft)
02.12.2016 08:29 0,9 °C 0,9 °C 77 % 1022,9 hPa 0,0 mm 4,5 km/h (1 Bft) W-SW 239 ° 0 min 0,000 mm 0,0 UV-I 19 W/m² -2,7 °C 9,7 km/h (2 Bft)
02.12.2016 08:30 0,9 °C 0,9 °C 77 % 1022,9 hPa 0,0 mm 5,0 km/h (1 Bft) S-SW 213 ° 0 min 0,000 mm 0,0 UV-I 21 W/m² -2,7 °C 8,0 km/h (2 Bft)
02.12.2016 08:31 0,9 °C 0,9 °C 77 % 1022,9 hPa 0,0 mm 4,5 km/h (1 Bft) W-SW 238 ° 0 min 0,000 mm 0,0 UV-I 21 W/m² -2,7 °C 6,4 km/h (2 Bft)
02.12.2016 08:32 0,9 °C 0,9 °C 77 % 1022,9 hPa 0,0 mm 4,0 km/h (1 Bft) SW 215 ° 0 min 0,000 mm 0,0 UV-I 23 W/m² -2,7 °C 6,4 km/h (2 Bft)
02.12.2016 08:33 0,9 °C 0,9 °C 77 % 1022,9 hPa 0,0 mm 5,0 km/h (1 Bft) SW 225 ° 0 min 0,000 mm 0,0 UV-I 25 W/m² -2,7 °C 6,4 km/h (2 Bft)
02.12.2016 08:34 1,0 °C 1,0 °C 77 % 1022,9 hPa 0,0 mm 3,2 km/h (1 Bft) SW 223 ° 0 min 0,000 mm 0,0 UV-I 28 W/m² -2,6 °C 6,4 km/h (2 Bft)
02.12.2016 08:35 1,0 °C 1,0 °C 78 % 1022,9 hPa 0,0 mm 4,6 km/h (1 Bft) SW 221 ° 0 min 0,000 mm 0,0 UV-I 28 W/m² -2,4 °C 6,4 km/h (2 Bft)
02.12.2016 08:36 1,0 °C 1,0 °C 78 % 1022,8 hPa 0,0 mm 6,1 km/h (2 Bft) S-SW 211 ° 0 min 0,000 mm 0,0 UV-I 28 W/m² -2,4 °C 8,0 km/h (2 Bft)
02.12.2016 08:37 1,0 °C 1,1 °C 78 % 1022,9 hPa 0,0 mm 4,1 km/h (1 Bft) W 263 ° 0 min 0,000 mm 0,0 UV-I 28 W/m² -2,4 °C 6,4 km/h (2 Bft)
02.12.2016 08:38 1,1 °C 1,1 °C 77 % 1022,9 hPa 0,0 mm 4,7 km/h (1 Bft) SW 223 ° 0 min 0,000 mm 0,0 UV-I 28 W/m² -2,5 °C 8,0 km/h (2 Bft)
02.12.2016 08:39 1,1 °C 1,1 °C 77 % 1022,9 hPa 0,0 mm 5,0 km/h (1 Bft) SW 236 ° 0 min 0,000 mm 0,0 UV-I 28 W/m² -2,5 °C 6,4 km/h (2 Bft)
02.12.2016 08:40 1,1 °C 1,1 °C 77 % 1022,8 hPa 0,0 mm 4,2 km/h (1 Bft) SW 219 ° 0 min 0,000 mm 0,0 UV-I 28 W/m² -2,5 °C 6,4 km/h (2 Bft)
02.12.2016 08:41 1,1 °C 1,1 °C 77 % 1022,8 hPa 0,0 mm 5,6 km/h (1 Bft) S-SW 197 ° 0 min 0,000 mm 0,0 UV-I 28 W/m² -2,5 °C 8,0 km/h (2 Bft)
02.12.2016 08:42 1,1 °C 1,1 °C 77 % 1022,8 hPa 0,0 mm 6,6 km/h (2 Bft) W-SW 246 ° 0 min 0,000 mm 0,0 UV-I 32 W/m² -2,5 °C 14,5 km/h (3 Bft)
02.12.2016 08:43 1,1 °C 1,1 °C 77 % 1022,9 hPa 0,0 mm 6,2 km/h (2 Bft) SW 221 ° 0 min 0,000 mm 0,0 UV-I 35 W/m² -2,5 °C 8,0 km/h (2 Bft)
02.12.2016 08:44 1,1 °C 1,1 °C 77 % 1022,9 hPa 0,0 mm 9,5 km/h (2 Bft) W-SW 244 ° 0 min 0,000 mm 0,0 UV-I 33 W/m² -2,5 °C 12,9 km/h (3 Bft)
02.12.2016 08:45 1,1 °C 1,1 °C 77 % 1022,9 hPa 0,0 mm 8,0 km/h (2 Bft) W-SW 244 ° 0 min 0,000 mm 0,0 UV-I 32 W/m² -2,5 °C 12,9 km/h (3 Bft)
02.12.2016 08:46 1,1 °C 1,1 °C 77 % 1022,9 hPa 0,0 mm 8,3 km/h (2 Bft) W-SW 257 ° 0 min 0,000 mm 0,0 UV-I 35 W/m² -2,5 °C 12,9 km/h (3 Bft)
02.12.2016 08:47 1,1 °C 1,2 °C 77 % 1023,0 hPa 0,0 mm 3,6 km/h (1 Bft) W-SW 247 ° 0 min 0,000 mm 0,0 UV-I 37 W/m² -2,5 °C 6,4 km/h (2 Bft)
02.12.2016 08:48 1,1 °C 1,2 °C 77 % 1022,9 hPa 0,0 mm 4,4 km/h (1 Bft) W-SW 253 ° 0 min 0,000 mm 0,0 UV-I 35 W/m² -2,5 °C 6,4 km/h (2 Bft)
02.12.2016 08:49 1,2 °C 1,2 °C 77 % 1023,0 hPa 0,0 mm 5,6 km/h (1 Bft) W-SW 258 ° 0 min 0,000 mm 0,0 UV-I 35 W/m² -2,4 °C 6,4 km/h (2 Bft)
02.12.2016 08:50 1,2 °C 1,2 °C 77 % 1022,9 hPa 0,0 mm 5,3 km/h (1 Bft) W-SW 255 ° 0 min 0,000 mm 0,0 UV-I 35 W/m² -2,4 °C 9,7 km/h (2 Bft)
02.12.2016 08:51 1,2 °C 1,2 °C 77 % 1023,0 hPa 0,0 mm 4,0 km/h (1 Bft) W-SW 248 ° 0 min 0,000 mm 0,0 UV-I 35 W/m² -2,4 °C 4,8 km/h (1 Bft)
02.12.2016 08:52 1,2 °C 1,2 °C 77 % 1023,0 hPa 0,0 mm 2,5 km/h (1 Bft) W-SW 248 ° 0 min 0,000 mm 0,0 UV-I 37 W/m² -2,4 °C 4,8 km/h (1 Bft)
02.12.2016 08:53 1,2 °C 1,2 °C 77 % 1022,9 hPa 0,0 mm 4,4 km/h (1 Bft) W-SW 248 ° 0 min 0,000 mm 0,0 UV-I 40 W/m² -2,4 °C 9,7 km/h (2 Bft)
02.12.2016 08:54 1,2 °C 1,2 °C 77 % 1023,0 hPa 0,0 mm 3,0 km/h (1 Bft) W 267 ° 0 min 0,000 mm 0,0 UV-I 40 W/m² -2,4 °C 4,8 km/h (1 Bft)
02.12.2016 08:55 1,2 °C 1,2 °C 77 % 1023,0 hPa 0,0 mm 4,0 km/h (1 Bft) W-SW 253 ° 0 min 0,000 mm 0,0 UV-I 42 W/m² -2,4 °C 6,4 km/h (2 Bft)
02.12.2016 08:56 1,2 °C 1,2 °C 77 % 1023,0 hPa 0,0 mm 4,6 km/h (1 Bft) W-SW 246 ° 0 min 0,000 mm 0,0 UV-I 44 W/m² -2,4 °C 6,4 km/h (2 Bft)
02.12.2016 08:57 1,2 °C 1,2 °C 77 % 1023,1 hPa 0,0 mm 4,5 km/h (1 Bft) W 275 ° 0 min 0,000 mm 0,0 UV-I 46 W/m² -2,4 °C 9,7 km/h (2 Bft)
02.12.2016 08:58 1,2 °C 1,2 °C 77 % 1023,1 hPa 0,0 mm 3,0 km/h (1 Bft) W 280 ° 0 min 0,000 mm 0,0 UV-I 49 W/m² -2,4 °C 4,8 km/h (1 Bft)
02.12.2016 08:59 1,2 °C 1,2 °C 77 % 1023,1 hPa 0,0 mm 3,0 km/h (1 Bft) W-SW 252 ° 0 min 0,000 mm 0,0 UV-I 47 W/m² -2,4 °C 4,8 km/h (1 Bft)
02.12.2016 09:00 1,2 °C 1,2 °C 77 % 1023,1 hPa 0,0 mm 3,2 km/h (1 Bft) W-SW 252 ° 0 min 0,000 mm 0,0 UV-I 49 W/m² -2,4 °C 4,8 km/h (1 Bft)
02.12.2016 09:01 1,2 °C 1,2 °C 78 % 1023,2 hPa 0,0 mm 1,7 km/h (1 Bft) W-SW 252 ° 0 min 0,025 mm 0,0 UV-I 51 W/m² -2,2 °C 3,2 km/h (1 Bft)
02.12.2016 09:02 1,2 °C 1,2 °C 77 % 1023,1 hPa 0,0 mm 2,6 km/h (1 Bft) W-SW 252 ° 0 min 0,000 mm 0,0 UV-I 49 W/m² -2,4 °C 4,8 km/h (1 Bft)
02.12.2016 09:03 1,2 °C 1,2 °C 78 % 1023,1 hPa 0,0 mm 2,4 km/h (1 Bft) W-SW 252 ° 0 min 0,000 mm 0,0 UV-I 53 W/m² -2,2 °C 3,2 km/h (1 Bft)
02.12.2016 09:04 1,2 °C 1,2 °C 78 % 1023,1 hPa 0,0 mm 2,1 km/h (1 Bft) SW 215 ° 0 min 0,000 mm 0,0 UV-I 54 W/m² -2,2 °C 3,2 km/h (1 Bft)
02.12.2016 09:05 1,2 °C 1,2 °C 78 % 1023,1 hPa 0,0 mm 5,7 km/h (1 Bft) W-SW 246 ° 0 min 0,000 mm 0,0 UV-I 53 W/m² -2,2 °C 9,7 km/h (2 Bft)
02.12.2016 09:06 1,2 °C 1,2 °C 78 % 1023,1 hPa 0,0 mm 5,8 km/h (2 Bft) W-SW 251 ° 0 min 0,000 mm 0,0 UV-I 54 W/m² -2,2 °C 8,0 km/h (2 Bft)
02.12.2016 09:07 1,2 °C 1,2 °C 78 % 1023,2 hPa 0,0 mm 5,3 km/h (1 Bft) W-SW 255 ° 0 min 0,000 mm 0,0 UV-I 54 W/m² -2,2 °C 8,0 km/h (2 Bft)
02.12.2016 09:08 1,2 °C 1,2 °C 78 % 1023,1 hPa 0,0 mm 7,4 km/h (2 Bft) W 278 ° 0 min 0,000 mm 0,0 UV-I 54 W/m² -2,2 °C 11,3 km/h (2 Bft)
02.12.2016 09:09 1,2 °C 1,2 °C 79 % 1023,1 hPa 0,0 mm 4,8 km/h (1 Bft) W-SW 258 ° 0 min 0,000 mm 0,0 UV-I 60 W/m² -2,0 °C 8,0 km/h (2 Bft)
02.12.2016 09:10 1,2 °C 1,2 °C 79 % 1023,1 hPa 0,0 mm 4,7 km/h (1 Bft) W 270 ° 0 min 0,000 mm 0,0 UV-I 58 W/m² -2,0 °C 6,4 km/h (2 Bft)
02.12.2016 09:11 1,2 °C 1,2 °C 78 % 1023,1 hPa 0,0 mm 2,8 km/h (1 Bft) W 271 ° 0 min 0,000 mm 0,0 UV-I 54 W/m² -2,2 °C 4,8 km/h (1 Bft)
02.12.2016 09:12 1,3 °C 1,3 °C 78 % 1023,1 hPa 0,0 mm 4,6 km/h (1 Bft) W-SW 250 ° 0 min 0,000 mm 0,0 UV-I 51 W/m² -2,1 °C 6,4 km/h (2 Bft)
02.12.2016 09:13 1,2 °C 1,3 °C 79 % 1023,1 hPa 0,0 mm 3,2 km/h (1 Bft) SW 233 ° 0 min 0,000 mm 0,0 UV-I 49 W/m² -2,0 °C 6,4 km/h (2 Bft)
02.12.2016 09:14 1,3 °C 1,3 °C 79 % 1023,1 hPa 0,0 mm 4,9 km/h (1 Bft) W-SW 256 ° 0 min 0,000 mm 0,0 UV-I 54 W/m² -1,9 °C 8,0 km/h (2 Bft)
02.12.2016 09:15 1,2 °C 1,3 °C 79 % 1023,1 hPa 0,0 mm 4,1 km/h (1 Bft) W-SW 255 ° 0 min 0,000 mm 0,0 UV-I 76 W/m² -2,0 °C 4,8 km/h (1 Bft)
02.12.2016 09:16 1,3 °C 1,3 °C 79 % 1023,1 hPa 0,0 mm 3,4 km/h (1 Bft) W-SW 255 ° 0 min 0,000 mm 0,0 UV-I 91 W/m² -1,9 °C 6,4 km/h (2 Bft)
02.12.2016 09:17 1,3 °C 1,3 °C 79 % 1023,1 hPa 0,0 mm 7,3 km/h (2 Bft) W-SW 252 ° 0 min 0,000 mm 0,0 UV-I 102 W/m² -1,9 °C 11,3 km/h (2 Bft)
02.12.2016 09:18 1,3 °C 1,3 °C 79 % 1023,0 hPa 0,0 mm 4,5 km/h (1 Bft) W 259 ° 0 min 0,000 mm 0,0 UV-I 100 W/m² -1,9 °C 9,7 km/h (2 Bft)
02.12.2016 09:19 1,4 °C 1,4 °C 78 % 1023,0 hPa 0,0 mm 5,6 km/h (1 Bft) W-SW 237 ° 0 min 0,000 mm 0,0 UV-I 100 W/m² -2,0 °C 8,0 km/h (2 Bft)
02.12.2016 09:20 1,5 °C 1,5 °C 78 % 1023,0 hPa 0,0 mm 8,0 km/h (2 Bft) W-SW 241 ° 0 min 0,000 mm 0,0 UV-I 104 W/m² -1,9 °C 14,5 km/h (3 Bft)
02.12.2016 09:21 1,6 °C 1,6 °C 78 % 1023,0 hPa 0,0 mm 6,9 km/h (2 Bft) W-SW 253 ° 0 min 0,000 mm 0,0 UV-I 111 W/m² -1,8 °C 11,3 km/h (2 Bft)
02.12.2016 09:22 1,7 °C 1,7 °C 78 % 1023,0 hPa 0,0 mm 4,4 km/h (1 Bft) W-SW 246 ° 0 min 0,000 mm 0,0 UV-I 100 W/m² -1,7 °C 8,0 km/h (2 Bft)
02.12.2016 09:23 1,7 °C 1,7 °C 78 % 1023,0 hPa 0,0 mm 7,3 km/h (2 Bft) W-SW 240 ° 0 min 0,000 mm 0,0 UV-I 90 W/m² -1,7 °C 14,5 km/h (3 Bft)
02.12.2016 09:24 1,8 °C 1,8 °C 78 % 1023,0 hPa 0,0 mm 5,0 km/h (1 Bft) W-SW 244 ° 0 min 0,000 mm 0,0 UV-I 90 W/m² -1,6 °C 8,0 km/h (2 Bft)
02.12.2016 09:25 1,8 °C 1,8 °C 78 % 1023,0 hPa 0,0 mm 9,4 km/h (2 Bft) W 267 ° 0 min 0,000 mm 0,0 UV-I 91 W/m² -1,6 °C 14,5 km/h (3 Bft)
02.12.2016 09:26 1,9 °C 1,9 °C 77 % 1023,0 hPa 0,0 mm 10,0 km/h (2 Bft) W 265 ° 0 min 0,000 mm 0,0 UV-I 91 W/m² -1,7 °C 14,5 km/h (3 Bft)
02.12.2016 09:27 1,9 °C 1,9 °C 78 % 1023,0 hPa 0,0 mm 8,5 km/h (2 Bft) SW 234 ° 0 min 0,000 mm 0,0 UV-I 90 W/m² -1,5 °C 12,9 km/h (3 Bft)
02.12.2016 09:28 1,9 °C 1,9 °C 78 % 1023,0 hPa 0,0 mm 6,0 km/h (2 Bft) W-SW 240 ° 0 min 0,000 mm 0,0 UV-I 86 W/m² -1,5 °C 11,3 km/h (2 Bft)
02.12.2016 09:29 2,0 °C 2,0 °C 78 % 1023,0 hPa 0,0 mm 5,5 km/h (1 Bft) SW 234 ° 0 min 0,000 mm 0,0 UV-I 86 W/m² -1,4 °C 8,0 km/h (2 Bft)
02.12.2016 09:30 2,0 °C 2,0 °C 77 % 1023,0 hPa 0,0 mm 6,4 km/h (2 Bft) W-SW 247 ° 0 min 0,000 mm 0,5 UV-I 93 W/m² -1,6 °C 12,9 km/h (3 Bft)
02.12.2016 09:31 2,1 °C 2,1 °C 77 % 1023,1 hPa 0,0 mm 7,3 km/h (2 Bft) SW 236 ° 0 min 0,000 mm 0,5 UV-I 95 W/m² -1,5 °C 14,5 km/h (3 Bft)
02.12.2016 09:32 2,1 °C 2,1 °C 77 % 1023,1 hPa 0,0 mm 6,0 km/h (2 Bft) W 265 ° 0 min 0,000 mm 0,5 UV-I 83 W/m² -1,5 °C 12,9 km/h (3 Bft)
02.12.2016 09:33 2,1 °C 2,1 °C 77 % 1023,1 hPa 0,0 mm 9,7 km/h (2 Bft) W-SW 247 ° 0 min 0,000 mm 0,5 UV-I 83 W/m² -1,5 °C 12,9 km/h (3 Bft)
02.12.2016 09:34 2,1 °C 2,2 °C 76 % 1023,1 hPa 0,0 mm 8,3 km/h (2 Bft) W-SW 252 ° 0 min 0,000 mm 0,5 UV-I 88 W/m² -1,7 °C 14,5 km/h (3 Bft)
02.12.2016 09:35 2,2 °C 2,2 °C 77 % 1023,0 hPa 0,0 mm 7,7 km/h (2 Bft) W-NW 286 ° 0 min 0,000 mm 0,5 UV-I 91 W/m² -1,4 °C 14,5 km/h (3 Bft)
02.12.2016 09:36 2,2 °C 2,2 °C 77 % 1023,0 hPa 0,0 mm 8,1 km/h (2 Bft) W 263 ° 0 min 0,000 mm 0,5 UV-I 95 W/m² -1,4 °C 12,9 km/h (3 Bft)
02.12.2016 09:37 2,2 °C 2,2 °C 77 % 1023,0 hPa 0,0 mm 6,3 km/h (2 Bft) W-SW 241 ° 0 min 0,000 mm 0,5 UV-I 97 W/m² -1,4 °C 11,3 km/h (2 Bft)
02.12.2016 09:38 2,2 °C 2,2 °C 77 % 1022,9 hPa 0,0 mm 8,6 km/h (2 Bft) W 269 ° 0 min 0,000 mm 0,5 UV-I 105 W/m² -1,4 °C 12,9 km/h (3 Bft)
02.12.2016 09:39 2,2 °C 2,2 °C 77 % 1022,9 hPa 0,0 mm 7,2 km/h (2 Bft) W 261 ° 0 min 0,000 mm 0,6 UV-I 107 W/m² -1,4 °C 11,3 km/h (2 Bft)
02.12.2016 09:40 2,2 °C 2,2 °C 77 % 1023,0 hPa 0,0 mm 9,5 km/h (2 Bft) W 272 ° 0 min 0,000 mm 0,6 UV-I 104 W/m² -1,4 °C 14,5 km/h (3 Bft)
02.12.2016 09:41 2,2 °C 2,3 °C 77 % 1023,0 hPa 0,0 mm 9,0 km/h (2 Bft) W-SW 252 ° 0 min 0,000 mm 0,6 UV-I 111 W/m² -1,4 °C 11,3 km/h (2 Bft)
02.12.2016 09:42 2,3 °C 2,3 °C 77 % 1022,9 hPa 0,0 mm 4,8 km/h (1 Bft) W 273 ° 0 min 0,000 mm 0,6 UV-I 118 W/m² -1,3 °C 8,0 km/h (2 Bft)
02.12.2016 09:43 2,3 °C 2,3 °C 77 % 1023,0 hPa 0,0 mm 3,8 km/h (1 Bft) W 259 ° 0 min 0,000 mm 0,5 UV-I 114 W/m² -1,3 °C 4,8 km/h (1 Bft)
02.12.2016 09:44 2,3 °C 2,3 °C 77 % 1023,0 hPa 0,0 mm 4,1 km/h (1 Bft) W-NW 294 ° 0 min 0,000 mm 0,5 UV-I 88 W/m² -1,3 °C 6,4 km/h (2 Bft)
02.12.2016 09:45 2,3 °C 2,3 °C 77 % 1023,0 hPa 0,0 mm 2,5 km/h (1 Bft) W-NW 294 ° 0 min 0,000 mm 0,5 UV-I 90 W/m² -1,3 °C 4,8 km/h (1 Bft)
02.12.2016 09:46 2,4 °C 2,4 °C 77 % 1023,0 hPa 0,0 mm 8,9 km/h (2 Bft) W 259 ° 0 min 0,000 mm 0,5 UV-I 88 W/m² -1,2 °C 16,1 km/h (3 Bft)
02.12.2016 09:47 2,4 °C 2,4 °C 76 % 1023,0 hPa 0,0 mm 7,9 km/h (2 Bft) W 263 ° 0 min 0,000 mm 0,5 UV-I 93 W/m² -1,4 °C 14,5 km/h (3 Bft)
02.12.2016 09:48 2,4 °C 2,4 °C 76 % 1023,0 hPa 0,0 mm 6,4 km/h (2 Bft) W-NW 292 ° 0 min 0,000 mm 0,5 UV-I 98 W/m² -1,4 °C 11,3 km/h (2 Bft)
02.12.2016 09:49 2,4 °C 2,4 °C 76 % 1023,0 hPa 0,0 mm 8,4 km/h (2 Bft) W 276 ° 0 min 0,000 mm 0,5 UV-I 93 W/m² -1,4 °C 12,9 km/h (3 Bft)
02.12.2016 09:50 2,5 °C 2,5 °C 76 % 1023,0 hPa 0,0 mm 5,5 km/h (1 Bft) W-SW 251 ° 0 min 0,000 mm 0,5 UV-I 95 W/m² -1,3 °C 11,3 km/h (2 Bft)
02.12.2016 09:51 2,5 °C 2,5 °C 76 % 1023,1 hPa 0,0 mm 6,7 km/h (2 Bft) W 271 ° 0 min 0,000 mm 0,5 UV-I 98 W/m² -1,3 °C 11,3 km/h (2 Bft)
02.12.2016 09:52 2,5 °C 2,5 °C 76 % 1023,1 hPa 0,0 mm 4,8 km/h (1 Bft) W 265 ° 0 min 0,000 mm 0,5 UV-I 93 W/m² -1,3 °C 9,7 km/h (2 Bft)
02.12.2016 09:53 2,6 °C 2,6 °C 76 % 1023,1 hPa 0,0 mm 3,9 km/h (1 Bft) W-SW 240 ° 0 min 0,000 mm 0,5 UV-I 90 W/m² -1,2 °C 6,4 km/h (2 Bft)
02.12.2016 09:54 2,6 °C 2,6 °C 76 % 1023,1 hPa 0,0 mm 6,4 km/h (2 Bft) W 278 ° 0 min 0,000 mm 0,5 UV-I 90 W/m² -1,2 °C 11,3 km/h (2 Bft)
02.12.2016 09:55 2,6 °C 2,6 °C 76 % 1023,1 hPa 0,0 mm 10,0 km/h (2 Bft) W 269 ° 0 min 0,000 mm 0,5 UV-I 97 W/m² -1,2 °C 14,5 km/h (3 Bft)
02.12.2016 09:56 2,6 °C 2,6 °C 76 % 1023,1 hPa 0,0 mm 8,4 km/h (2 Bft) W-SW 248 ° 0 min 0,000 mm 0,5 UV-I 86 W/m² -1,2 °C 11,3 km/h (2 Bft)
02.12.2016 09:57 2,6 °C 2,6 °C 76 % 1023,1 hPa 0,0 mm 7,0 km/h (2 Bft) W-SW 244 ° 0 min 0,000 mm 0,5 UV-I 77 W/m² -1,2 °C 11,3 km/h (2 Bft)
02.12.2016 09:58 2,6 °C 2,6 °C 76 % 1023,1 hPa 0,0 mm 5,9 km/h (2 Bft) W-SW 254 ° 0 min 0,000 mm 0,5 UV-I 69 W/m² -1,2 °C 9,7 km/h (2 Bft)
02.12.2016 09:59 2,6 °C 2,6 °C 75 % 1023,1 hPa 0,0 mm 5,1 km/h (1 Bft) W-SW 246 ° 0 min 0,000 mm 0,6 UV-I 65 W/m² -1,4 °C 8,0 km/h (2 Bft)
02.12.2016 10:00 2,6 °C 2,6 °C 76 % 1023,1 hPa 0,0 mm 8,0 km/h (2 Bft) W 273 ° 0 min 0,000 mm 0,6 UV-I 70 W/m² -1,2 °C 11,3 km/h (2 Bft)
02.12.2016 10:01 2,6 °C 2,6 °C 76 % 1023,1 hPa 0,0 mm 10,3 km/h (2 Bft) W 264 ° 0 min 0,051 mm 0,6 UV-I 72 W/m² -1,2 °C 16,1 km/h (3 Bft)
02.12.2016 10:02 2,6 °C 2,6 °C 76 % 1023,1 hPa 0,0 mm 6,6 km/h (2 Bft) W-SW 246 ° 0 min 0,000 mm 0,6 UV-I 60 W/m² -1,2 °C 9,7 km/h (2 Bft)
02.12.2016 10:03 2,6 °C 2,6 °C 76 % 1023,1 hPa 0,0 mm 9,7 km/h (2 Bft) W 260 ° 0 min 0,000 mm 0,0 UV-I 46 W/m² -1,2 °C 14,5 km/h (3 Bft)
02.12.2016 10:04 2,5 °C 2,6 °C 76 % 1023,1 hPa 0,0 mm 10,9 km/h (2 Bft) W-SW 251 ° 0 min 0,000 mm 0,0 UV-I 37 W/m² -1,3 °C 14,5 km/h (3 Bft)
02.12.2016 10:05 2,4 °C 2,5 °C 76 % 1023,0 hPa 0,0 mm 6,2 km/h (2 Bft) W-SW 242 ° 0 min 0,000 mm 0,0 UV-I 30 W/m² -1,4 °C 9,7 km/h (2 Bft)
02.12.2016 10:06 2,4 °C 2,4 °C 76 % 1023,0 hPa 0,0 mm 4,9 km/h (1 Bft) SW 231 ° 0 min 0,000 mm 0,0 UV-I 26 W/m² -1,4 °C 6,4 km/h (2 Bft)
02.12.2016 10:07 2,4 °C 2,4 °C 76 % 1023,0 hPa 0,0 mm 6,6 km/h (2 Bft) SW 235 ° 0 min 0,000 mm 0,0 UV-I 26 W/m² -1,4 °C 11,3 km/h (2 Bft)
02.12.2016 10:08 2,3 °C 2,4 °C 76 % 1022,9 hPa 0,0 mm 6,4 km/h (2 Bft) S 188 ° 0 min 0,000 mm 0,0 UV-I 25 W/m² -1,5 °C 8,0 km/h (2 Bft)
02.12.2016 10:09 2,3 °C 2,3 °C 76 % 1023,0 hPa 0,0 mm 5,5 km/h (1 Bft) W-SW 240 ° 0 min 0,000 mm 0,0 UV-I 23 W/m² -1,5 °C 9,7 km/h (2 Bft)
02.12.2016 10:10 2,3 °C 2,3 °C 76 % 1023,0 hPa 0,0 mm 6,6 km/h (2 Bft) SW 224 ° 0 min 0,000 mm 0,0 UV-I 21 W/m² -1,5 °C 9,7 km/h (2 Bft)
02.12.2016 10:11 2,2 °C 2,3 °C 76 % 1022,9 hPa 0,0 mm 6,0 km/h (2 Bft) W-SW 242 ° 0 min 0,000 mm 0,0 UV-I 21 W/m² -1,6 °C 9,7 km/h (2 Bft)
02.12.2016 10:12 2,2 °C 2,3 °C 76 % 1022,9 hPa 0,0 mm 4,6 km/h (1 Bft) S-SW 211 ° 0 min 0,000 mm 0,0 UV-I 21 W/m² -1,6 °C 11,3 km/h (2 Bft)
02.12.2016 10:13 2,2 °C 2,2 °C 76 % 1022,9 hPa 0,0 mm 5,0 km/h (1 Bft) S 186 ° 0 min 0,000 mm 0,0 UV-I 21 W/m² -1,6 °C 8,0 km/h (2 Bft)
02.12.2016 10:14 2,2 °C 2,2 °C 76 % 1022,9 hPa 0,0 mm 5,2 km/h (1 Bft) W-SW 253 ° 0 min 0,000 mm 0,0 UV-I 23 W/m² -1,6 °C 9,7 km/h (2 Bft)
02.12.2016 10:15 2,2 °C 2,2 °C 76 % 1022,9 hPa 0,0 mm 7,8 km/h (2 Bft) W-SW 248 ° 0 min 0,000 mm 0,0 UV-I 23 W/m² -1,6 °C 12,9 km/h (3 Bft)
02.12.2016 10:16 2,2 °C 2,2 °C 76 % 1023,0 hPa 0,0 mm 6,4 km/h (2 Bft) W 274 ° 0 min 0,000 mm 0,0 UV-I 23 W/m² -1,6 °C 9,7 km/h (2 Bft)
02.12.2016 10:17 2,1 °C 2,2 °C 77 % 1023,0 hPa 0,0 mm 8,9 km/h (2 Bft) W-SW 253 ° 0 min 0,000 mm 0,0 UV-I 23 W/m² -1,5 °C 14,5 km/h (3 Bft)
02.12.2016 10:18 2,1 °C 2,2 °C 77 % 1022,9 hPa 0,0 mm 7,2 km/h (2 Bft) W 260 ° 0 min 0,000 mm 0,0 UV-I 23 W/m² -1,5 °C 11,3 km/h (2 Bft)
02.12.2016 10:19 2,1 °C 2,2 °C 76 % 1022,9 hPa 0,0 mm 6,2 km/h (2 Bft) W 268 ° 0 min 0,000 mm 0,0 UV-I 23 W/m² -1,7 °C 11,3 km/h (2 Bft)
02.12.2016 10:20 2,1 °C 2,2 °C 77 % 1022,9 hPa 0,0 mm 7,6 km/h (2 Bft) W-SW 246 ° 0 min 0,000 mm 0,0 UV-I 23 W/m² -1,5 °C 12,9 km/h (3 Bft)
02.12.2016 10:21 2,1 °C 2,2 °C 77 % 1022,9 hPa 0,0 mm 14,3 km/h (3 Bft) W-SW 241 ° 0 min 0,000 mm 0,0 UV-I 23 W/m² -1,5 °C 20,9 km/h (4 Bft)
02.12.2016 10:22 2,1 °C 2,1 °C 77 % 1022,9 hPa 0,0 mm 13,5 km/h (3 Bft) SW 230 ° 0 min 0,000 mm 0,0 UV-I 21 W/m² -1,5 °C 20,9 km/h (4 Bft)
02.12.2016 10:23 2,1 °C 2,2 °C 77 % 1023,0 hPa 0,0 mm 10,7 km/h (2 Bft) W-SW 249 ° 0 min 0,000 mm 0,0 UV-I 23 W/m² -1,5 °C 14,5 km/h (3 Bft)
02.12.2016 10:24 2,2 °C 2,2 °C 77 % 1022,9 hPa 0,0 mm 9,6 km/h (2 Bft) W 262 ° 0 min 0,000 mm 0,0 UV-I 23 W/m² -1,4 °C 14,5 km/h (3 Bft)
02.12.2016 10:25 2,2 °C 2,2 °C 77 % 1022,9 hPa 0,0 mm 6,6 km/h (2 Bft) SW 234 ° 0 min 0,000 mm 0,0 UV-I 23 W/m² -1,4 °C 9,7 km/h (2 Bft)
02.12.2016 10:26 2,2 °C 2,2 °C 77 % 1022,9 hPa 0,0 mm 5,7 km/h (1 Bft) W-SW 244 ° 0 min 0,000 mm 0,0 UV-I 23 W/m² -1,4 °C 11,3 km/h (2 Bft)
02.12.2016 10:27 2,2 °C 2,2 °C 77 % 1022,9 hPa 0,0 mm 7,4 km/h (2 Bft) W 259 ° 0 min 0,000 mm 0,0 UV-I 23 W/m² -1,4 °C 11,3 km/h (2 Bft)
02.12.2016 10:28 2,2 °C 2,2 °C 77 % 1022,9 hPa 0,0 mm 5,7 km/h (1 Bft) W 263 ° 0 min 0,000 mm 0,0 UV-I 23 W/m² -1,4 °C 9,7 km/h (2 Bft)
02.12.2016 10:29 2,2 °C 2,2 °C 77 % 1022,9 hPa 0,0 mm 5,0 km/h (1 Bft) W-NW 298 ° 0 min 0,000 mm 0,0 UV-I 23 W/m² -1,4 °C 6,4 km/h (2 Bft)
02.12.2016 10:30 2,2 °C 2,2 °C 77 % 1022,9 hPa 0,0 mm 8,8 km/h (2 Bft) NW 325 ° 0 min 0,000 mm 0,0 UV-I 25 W/m² -1,4 °C 16,1 km/h (3 Bft)
02.12.2016 10:31 2,2 °C 2,2 °C 77 % 1022,9 hPa 0,0 mm 9,7 km/h (2 Bft) W-SW 244 ° 0 min 0,000 mm 0,0 UV-I 25 W/m² -1,4 °C 16,1 km/h (3 Bft)
02.12.2016 10:32 2,2 °C 2,2 °C 77 % 1022,9 hPa 0,0 mm 10,8 km/h (2 Bft) W 269 ° 0 min 0,000 mm 0,0 UV-I 25 W/m² -1,4 °C 14,5 km/h (3 Bft)
02.12.2016 10:33 2,2 °C 2,2 °C 77 % 1022,9 hPa 0,0 mm 8,3 km/h (2 Bft) W 275 ° 0 min 0,000 mm 0,0 UV-I 25 W/m² -1,4 °C 12,9 km/h (3 Bft)
02.12.2016 10:34 2,2 °C 2,2 °C 77 % 1022,8 hPa 0,0 mm 10,3 km/h (2 Bft) W 277 ° 0 min 0,000 mm 0,0 UV-I 25 W/m² -1,4 °C 14,5 km/h (3 Bft)
02.12.2016 10:35 2,2 °C 2,2 °C 77 % 1022,9 hPa 0,0 mm 4,6 km/h (1 Bft) W 273 ° 0 min 0,000 mm 0,0 UV-I 26 W/m² -1,4 °C 6,4 km/h (2 Bft)
02.12.2016 10:36 2,2 °C 2,3 °C 77 % 1022,9 hPa 0,0 mm 10,0 km/h (2 Bft) W 276 ° 0 min 0,000 mm 0,0 UV-I 26 W/m² -1,4 °C 16,1 km/h (3 Bft)
02.12.2016 10:37 2,2 °C 2,3 °C 77 % 1022,8 hPa 0,0 mm 8,6 km/h (2 Bft) S 185 ° 0 min 0,000 mm 0,0 UV-I 26 W/m² -1,4 °C 12,9 km/h (3 Bft)
02.12.2016 10:38 2,3 °C 2,3 °C 77 % 1022,8 hPa 0,0 mm 10,4 km/h (2 Bft) W 263 ° 0 min 0,000 mm 0,0 UV-I 26 W/m² -1,3 °C 20,9 km/h (4 Bft)
02.12.2016 10:39 2,3 °C 2,3 °C 77 % 1022,8 hPa 0,0 mm 9,7 km/h (2 Bft) W-SW 247 ° 0 min 0,000 mm 0,0 UV-I 26 W/m² -1,3 °C 17,7 km/h (3 Bft)
02.12.2016 10:40 2,3 °C 2,3 °C 77 % 1022,8 hPa 0,0 mm 11,4 km/h (2 Bft) W 279 ° 0 min 0,000 mm 0,0 UV-I 26 W/m² -1,3 °C 16,1 km/h (3 Bft)
02.12.2016 10:41 2,3 °C 2,3 °C 77 % 1022,8 hPa 0,0 mm 11,1 km/h (2 Bft) W-SW 258 ° 0 min 0,000 mm 0,0 UV-I 26 W/m² -1,3 °C 20,9 km/h (4 Bft)
02.12.2016 10:42 2,3 °C 2,3 °C 77 % 1022,7 hPa 0,0 mm 11,5 km/h (2 Bft) SW 225 ° 0 min 0,000 mm 0,0 UV-I 26 W/m² -1,3 °C 16,1 km/h (3 Bft)
02.12.2016 10:43 2,3 °C 2,3 °C 77 % 1022,7 hPa 0,0 mm 14,6 km/h (3 Bft) NW 310 ° 0 min 0,000 mm 0,0 UV-I 26 W/m² -1,3 °C 20,9 km/h (4 Bft)
02.12.2016 10:44 2,3 °C 2,3 °C 77 % 1022,7 hPa 0,0 mm 8,6 km/h (2 Bft) W 275 ° 0 min 0,000 mm 0,0 UV-I 26 W/m² -1,3 °C 16,1 km/h (3 Bft)
02.12.2016 10:45 2,3 °C 2,3 °C 77 % 1022,6 hPa 0,0 mm 11,0 km/h (2 Bft) W 267 ° 0 min 0,000 mm 0,0 UV-I 26 W/m² -1,3 °C 14,5 km/h (3 Bft)
02.12.2016 10:46 2,4 °C 2,4 °C 77 % 1022,6 hPa 0,0 mm 9,1 km/h (2 Bft) W 273 ° 0 min 0,000 mm 0,0 UV-I 26 W/m² -1,2 °C 16,1 km/h (3 Bft)
02.12.2016 10:47 2,4 °C 2,4 °C 77 % 1022,6 hPa 0,0 mm 8,8 km/h (2 Bft) W 260 ° 0 min 0,000 mm 0,0 UV-I 28 W/m² -1,2 °C 14,5 km/h (3 Bft)
02.12.2016 10:48 2,4 °C 2,4 °C 77 % 1022,6 hPa 0,0 mm 7,0 km/h (2 Bft) W 281 ° 0 min 0,000 mm 0,0 UV-I 28 W/m² -1,2 °C 11,3 km/h (2 Bft)
02.12.2016 10:49 2,4 °C 2,4 °C 77 % 1022,6 hPa 0,0 mm 5,2 km/h (1 Bft) SW 229 ° 0 min 0,000 mm 0,0 UV-I 35 W/m² -1,2 °C 9,7 km/h (2 Bft)
02.12.2016 10:50 2,4 °C 2,4 °C 77 % 1022,6 hPa 0,0 mm 8,3 km/h (2 Bft) W-SW 258 ° 0 min 0,000 mm 0,0 UV-I 40 W/m² -1,2 °C 17,7 km/h (3 Bft)
02.12.2016 10:51 2,4 °C 2,4 °C 76 % 1022,6 hPa 0,0 mm 11,9 km/h (2 Bft) W-SW 258 ° 0 min 0,000 mm 0,0 UV-I 44 W/m² -1,4 °C 20,9 km/h (4 Bft)
02.12.2016 10:52 2,5 °C 2,5 °C 76 % 1022,6 hPa 0,0 mm 4,8 km/h (1 Bft) W-SW 241 ° 0 min 0,000 mm 0,0 UV-I 49 W/m² -1,3 °C 6,4 km/h (2 Bft)
02.12.2016 10:53 2,6 °C 2,6 °C 76 % 1022,6 hPa 0,0 mm 4,0 km/h (1 Bft) SW 222 ° 0 min 0,000 mm 0,0 UV-I 53 W/m² -1,2 °C 6,4 km/h (2 Bft)
02.12.2016 10:54 2,6 °C 2,6 °C 76 % 1022,6 hPa 0,0 mm 8,9 km/h (2 Bft) W-SW 254 ° 0 min 0,000 mm 0,9 UV-I 58 W/m² -1,2 °C 16,1 km/h (3 Bft)
02.12.2016 10:55 2,6 °C 2,6 °C 76 % 1022,6 hPa 0,0 mm 9,5 km/h (2 Bft) S-SW 205 ° 0 min 0,000 mm 0,9 UV-I 60 W/m² -1,2 °C 12,9 km/h (3 Bft)
02.12.2016 10:56 2,7 °C 2,7 °C 76 % 1022,5 hPa 0,0 mm 6,3 km/h (2 Bft) S-SW 202 ° 0 min 0,000 mm 0,9 UV-I 62 W/m² -1,1 °C 9,7 km/h (2 Bft)
02.12.2016 10:57 2,7 °C 2,7 °C 76 % 1022,5 hPa 0,0 mm 6,6 km/h (2 Bft) SW 215 ° 0 min 0,000 mm 0,9 UV-I 62 W/m² -1,1 °C 11,3 km/h (2 Bft)
02.12.2016 10:58 2,8 °C 2,8 °C 75 % 1022,5 hPa 0,0 mm 3,7 km/h (1 Bft) W-SW 254 ° 0 min 0,000 mm 0,9 UV-I 62 W/m² -1,2 °C 4,8 km/h (1 Bft)
02.12.2016 10:59 2,8 °C 2,8 °C 76 % 1022,5 hPa 0,0 mm 6,2 km/h (2 Bft) W 277 ° 0 min 0,000 mm 0,9 UV-I 62 W/m² -1,0 °C 11,3 km/h (2 Bft)
02.12.2016 11:00 2,9 °C 2,9 °C 75 % 1022,5 hPa 0,0 mm 7,7 km/h (2 Bft) W-SW 239 ° 0 min 0,025 mm 0,9 UV-I 62 W/m² -1,1 °C 12,9 km/h (3 Bft)
02.12.2016 11:01 2,9 °C 2,9 °C 75 % 1022,4 hPa 0,0 mm 3,8 km/h (1 Bft) SW 219 ° 0 min 0,000 mm 0,9 UV-I 62 W/m² -1,1 °C 6,4 km/h (2 Bft)
02.12.2016 11:02 2,9 °C 2,9 °C 75 % 1022,5 hPa 0,0 mm 6,6 km/h (2 Bft) W-SW 245 ° 0 min 0,000 mm 0,9 UV-I 63 W/m² -1,1 °C 12,9 km/h (3 Bft)
02.12.2016 11:03 3,0 °C 3,0 °C 75 % 1022,5 hPa 0,0 mm 12,6 km/h (3 Bft) W-SW 258 ° 0 min 0,000 mm 0,9 UV-I 65 W/m² -1,0 °C 16,1 km/h (3 Bft)
02.12.2016 11:04 3,1 °C 3,1 °C 75 % 1022,5 hPa 0,0 mm 10,8 km/h (2 Bft) W-SW 253 ° 0 min 0,000 mm 0,9 UV-I 67 W/m² -0,9 °C 17,7 km/h (3 Bft)
02.12.2016 11:05 3,1 °C 3,1 °C 75 % 1022,6 hPa 0,0 mm 6,5 km/h (2 Bft) W-SW 252 ° 0 min 0,000 mm 0,9 UV-I 69 W/m² -0,9 °C 16,1 km/h (3 Bft)
02.12.2016 11:06 3,1 °C 3,1 °C 75 % 1022,5 hPa 0,0 mm 9,5 km/h (2 Bft) W 263 ° 0 min 0,000 mm 0,9 UV-I 69 W/m² -0,9 °C 16,1 km/h (3 Bft)
02.12.2016 11:07 3,2 °C 3,2 °C 74 % 1022,4 hPa 0,0 mm 8,2 km/h (2 Bft) W-SW 246 ° 0 min 0,000 mm 0,9 UV-I 69 W/m² -1,0 °C 14,5 km/h (3 Bft)
02.12.2016 11:08 3,2 °C 3,2 °C 75 % 1022,5 hPa 0,0 mm 12,0 km/h (2 Bft) W-SW 258 ° 0 min 0,000 mm 0,9 UV-I 67 W/m² -0,8 °C 14,5 km/h (3 Bft)
02.12.2016 11:09 3,2 °C 3,2 °C 74 % 1022,4 hPa 0,0 mm 11,4 km/h (2 Bft) W 261 ° 0 min 0,000 mm 0,9 UV-I 63 W/m² -1,0 °C 17,7 km/h (3 Bft)
02.12.2016 11:10 3,2 °C 3,2 °C 73 % 1022,4 hPa 0,0 mm 14,8 km/h (3 Bft) W 259 ° 0 min 0,000 mm 0,9 UV-I 62 W/m² -1,2 °C 19,3 km/h (3 Bft)
02.12.2016 11:11 3,2 °C 3,2 °C 74 % 1022,3 hPa 0,0 mm 9,5 km/h (2 Bft) SW 221 ° 0 min 0,000 mm 0,9 UV-I 62 W/m² -1,0 °C 14,5 km/h (3 Bft)
02.12.2016 11:12 3,2 °C 3,2 °C 74 % 1022,3 hPa 0,0 mm 9,0 km/h (2 Bft) W-SW 246 ° 0 min 0,000 mm 0,9 UV-I 62 W/m² -1,0 °C 12,9 km/h (3 Bft)
02.12.2016 11:13 3,2 °C 3,2 °C 73 % 1022,4 hPa 0,0 mm 17,0 km/h (3 Bft) W 271 ° 0 min 0,000 mm 0,9 UV-I 65 W/m² -1,2 °C 25,7 km/h (4 Bft)
02.12.2016 11:14 3,2 °C 3,2 °C 73 % 1022,4 hPa 0,0 mm 14,6 km/h (3 Bft) W 279 ° 0 min 0,000 mm 0,9 UV-I 67 W/m² -1,2 °C 25,7 km/h (4 Bft)
02.12.2016 11:15 3,2 °C 3,2 °C 73 % 1022,4 hPa 0,0 mm 9,3 km/h (2 Bft) NW 317 ° 0 min 0,000 mm 0,9 UV-I 72 W/m² -1,2 °C 14,5 km/h (3 Bft)
02.12.2016 11:16 3,1 °C 3,2 °C 74 % 1022,4 hPa 0,0 mm 11,6 km/h (2 Bft) W 263 ° 0 min 0,000 mm 0,9 UV-I 76 W/m² -1,1 °C 16,1 km/h (3 Bft)
02.12.2016 11:17 3,1 °C 3,2 °C 74 % 1022,4 hPa 0,0 mm 14,3 km/h (3 Bft) SW 217 ° 0 min 0,000 mm 0,9 UV-I 76 W/m² -1,1 °C 19,3 km/h (3 Bft)
02.12.2016 11:18 3,2 °C 3,2 °C 73 % 1022,4 hPa 0,0 mm 10,3 km/h (2 Bft) W 261 ° 0 min 0,000 mm 0,9 UV-I 88 W/m² -1,2 °C 16,1 km/h (3 Bft)
02.12.2016 11:19 3,2 °C 3,2 °C 73 % 1022,4 hPa 0,0 mm 11,5 km/h (2 Bft) W-NW 288 ° 0 min 0,000 mm 1,0 UV-I 90 W/m² -1,2 °C 14,5 km/h (3 Bft)
02.12.2016 11:20 3,2 °C 3,2 °C 73 % 1022,4 hPa 0,0 mm 11,6 km/h (2 Bft) W-SW 258 ° 0 min 0,000 mm 1,0 UV-I 91 W/m² -1,2 °C 14,5 km/h (3 Bft)
02.12.2016 11:21 3,3 °C 3,3 °C 73 % 1022,4 hPa 0,0 mm 5,8 km/h (2 Bft) W-SW 250 ° 0 min 0,000 mm 1,0 UV-I 91 W/m² -1,1 °C 9,7 km/h (2 Bft)
02.12.2016 11:22 3,3 °C 3,3 °C 73 % 1022,4 hPa 0,0 mm 6,1 km/h (2 Bft) W-NW 298 ° 0 min 0,000 mm 1,0 UV-I 90 W/m² -1,1 °C 11,3 km/h (2 Bft)
02.12.2016 11:23 3,3 °C 3,3 °C 73 % 1022,4 hPa 0,0 mm 6,3 km/h (2 Bft) W-SW 240 ° 0 min 0,000 mm 1,0 UV-I 86 W/m² -1,1 °C 11,3 km/h (2 Bft)
02.12.2016 11:24 3,4 °C 3,4 °C 73 % 1022,4 hPa 0,0 mm 6,7 km/h (2 Bft) W-NW 286 ° 0 min 0,000 mm 1,0 UV-I 79 W/m² -1,0 °C 11,3 km/h (2 Bft)
02.12.2016 11:25 3,4 °C 3,4 °C 72 % 1022,3 hPa 0,0 mm 6,0 km/h (2 Bft) W-SW 257 ° 0 min 0,000 mm 1,0 UV-I 76 W/m² -1,2 °C 9,7 km/h (2 Bft)
02.12.2016 11:26 3,5 °C 3,5 °C 73 % 1022,4 hPa 0,0 mm 7,8 km/h (2 Bft) W 261 ° 0 min 0,000 mm 1,0 UV-I 72 W/m² -0,9 °C 12,9 km/h (3 Bft)
02.12.2016 11:27 3,5 °C 3,5 °C 72 % 1022,3 hPa 0,0 mm 8,9 km/h (2 Bft) W 280 ° 0 min 0,000 mm 0,9 UV-I 69 W/m² -1,1 °C 12,9 km/h (3 Bft)
02.12.2016 11:28 3,5 °C 3,6 °C 72 % 1022,3 hPa 0,0 mm 9,7 km/h (2 Bft) W 270 ° 0 min 0,000 mm 0,9 UV-I 65 W/m² -1,1 °C 12,9 km/h (3 Bft)
02.12.2016 11:29 3,5 °C 3,6 °C 72 % 1022,3 hPa 0,0 mm 7,0 km/h (2 Bft) W 263 ° 0 min 0,000 mm 0,9 UV-I 62 W/m² -1,1 °C 12,9 km/h (3 Bft)
02.12.2016 11:30 3,6 °C 3,6 °C 71 % 1022,2 hPa 0,0 mm 5,3 km/h (1 Bft) W-NW 296 ° 0 min 0,000 mm 0,9 UV-I 60 W/m² -1,2 °C 12,9 km/h (3 Bft)
02.12.2016 11:31 3,6 °C 3,6 °C 71 % 1022,3 hPa 0,0 mm 2,0 km/h (1 Bft) NW 306 ° 0 min 0,000 mm 0,9 UV-I 58 W/m² -1,2 °C 4,8 km/h (1 Bft)
02.12.2016 11:32 3,6 °C 3,6 °C 72 % 1022,2 hPa 0,0 mm 7,1 km/h (2 Bft) W 278 ° 0 min 0,000 mm 0,9 UV-I 58 W/m² -1,0 °C 12,9 km/h (3 Bft)
02.12.2016 11:33 3,6 °C 3,6 °C 72 % 1022,2 hPa 0,0 mm 6,2 km/h (2 Bft) W 266 ° 0 min 0,000 mm 0,9 UV-I 58 W/m² -1,0 °C 11,3 km/h (2 Bft)
02.12.2016 11:34 3,6 °C 3,6 °C 71 % 1022,2 hPa 0,0 mm 7,9 km/h (2 Bft) W 262 ° 0 min 0,000 mm 0,9 UV-I 58 W/m² -1,2 °C 12,9 km/h (3 Bft)
02.12.2016 11:35 3,6 °C 3,6 °C 71 % 1022,2 hPa 0,0 mm 8,4 km/h (2 Bft) N 9 ° 0 min 0,000 mm 0,9 UV-I 58 W/m² -1,2 °C 14,5 km/h (3 Bft)
02.12.2016 11:36 3,6 °C 3,6 °C 71 % 1022,2 hPa 0,0 mm 4,5 km/h (1 Bft) SW 221 ° 0 min 0,000 mm 0,9 UV-I 62 W/m² -1,2 °C 9,7 km/h (2 Bft)
02.12.2016 11:37 3,6 °C 3,6 °C 71 % 1022,2 hPa 0,0 mm 5,0 km/h (1 Bft) W-SW 241 ° 0 min 0,000 mm 1,0 UV-I 65 W/m² -1,2 °C 8,0 km/h (2 Bft)
02.12.2016 11:38 3,6 °C 3,6 °C 70 % 1022,1 hPa 0,0 mm 9,5 km/h (2 Bft) W 259 ° 0 min 0,000 mm 1,0 UV-I 69 W/m² -1,3 °C 12,9 km/h (3 Bft)
02.12.2016 11:39 3,6 °C 3,7 °C 71 % 1022,1 hPa 0,0 mm 11,5 km/h (2 Bft) W 264 ° 0 min 0,000 mm 1,0 UV-I 74 W/m² -1,2 °C 19,3 km/h (3 Bft)
02.12.2016 11:40 3,7 °C 3,7 °C 70 % 1022,2 hPa 0,0 mm 8,6 km/h (2 Bft) NW 304 ° 0 min 0,000 mm 1,0 UV-I 81 W/m² -1,3 °C 12,9 km/h (3 Bft)
02.12.2016 11:41 3,7 °C 3,7 °C 71 % 1022,2 hPa 0,0 mm 5,2 km/h (1 Bft) SW 226 ° 0 min 0,000 mm 1,0 UV-I 86 W/m² -1,1 °C 11,3 km/h (2 Bft)
02.12.2016 11:42 3,7 °C 3,7 °C 71 % 1022,2 hPa 0,0 mm 8,1 km/h (2 Bft) W 267 ° 0 min 0,000 mm 1,0 UV-I 98 W/m² -1,1 °C 11,3 km/h (2 Bft)
02.12.2016 11:43 3,7 °C 3,7 °C 70 % 1022,2 hPa 0,0 mm 3,2 km/h (1 Bft) W-SW 241 ° 0 min 0,000 mm 1,0 UV-I 100 W/m² -1,3 °C 8,0 km/h (2 Bft)
02.12.2016 11:44 3,7 °C 3,7 °C 70 % 1022,2 hPa 0,0 mm 7,7 km/h (2 Bft) W-SW 257 ° 0 min 0,000 mm 1,0 UV-I 104 W/m² -1,3 °C 14,5 km/h (3 Bft)
02.12.2016 11:45 3,8 °C 3,8 °C 70 % 1022,2 hPa 0,0 mm 10,3 km/h (2 Bft) W 270 ° 0 min 0,000 mm 1,0 UV-I 109 W/m² -1,2 °C 16,1 km/h (3 Bft)
02.12.2016 11:46 3,8 °C 3,8 °C 70 % 1022,2 hPa 0,0 mm 8,9 km/h (2 Bft) SW 216 ° 0 min 0,000 mm 1,0 UV-I 109 W/m² -1,2 °C 12,9 km/h (3 Bft)
02.12.2016 11:47 3,9 °C 3,9 °C 69 % 1022,2 hPa 0,0 mm 6,3 km/h (2 Bft) SW 236 ° 0 min 0,000 mm 1,0 UV-I 121 W/m² -1,3 °C 9,7 km/h (2 Bft)
02.12.2016 11:48 3,8 °C 3,9 °C 70 % 1022,2 hPa 0,0 mm 11,5 km/h (2 Bft) W 279 ° 0 min 0,000 mm 1,0 UV-I 123 W/m² -1,2 °C 19,3 km/h (3 Bft)
02.12.2016 11:49 3,9 °C 3,9 °C 70 % 1022,2 hPa 0,0 mm 11,6 km/h (2 Bft) W 259 ° 0 min 0,000 mm 1,0 UV-I 114 W/m² -1,1 °C 16,1 km/h (3 Bft)
02.12.2016 11:50 3,9 °C 3,9 °C 70 % 1022,2 hPa 0,0 mm 10,7 km/h (2 Bft) W-SW 254 ° 0 min 0,000 mm 1,0 UV-I 113 W/m² -1,1 °C 14,5 km/h (3 Bft)
02.12.2016 11:51 3,9 °C 3,9 °C 70 % 1022,1 hPa 0,0 mm 11,7 km/h (2 Bft) W 265 ° 0 min 0,000 mm 1,0 UV-I 113 W/m² -1,1 °C 16,1 km/h (3 Bft)
02.12.2016 11:52 3,9 °C 3,9 °C 70 % 1022,1 hPa 0,0 mm 10,1 km/h (2 Bft) S-SW 198 ° 0 min 0,000 mm 1,0 UV-I 111 W/m² -1,1 °C 12,9 km/h (3 Bft)
02.12.2016 11:53 3,9 °C 3,9 °C 70 % 1022,1 hPa 0,0 mm 14,5 km/h (3 Bft) W 267 ° 0 min 0,000 mm 1,0 UV-I 107 W/m² -1,1 °C 22,5 km/h (4 Bft)
02.12.2016 11:54 3,9 °C 3,9 °C 70 % 1022,1 hPa 0,0 mm 12,5 km/h (3 Bft) W-SW 238 ° 0 min 0,000 mm 1,0 UV-I 113 W/m² -1,1 °C 22,5 km/h (4 Bft)
02.12.2016 11:55 3,9 °C 3,9 °C 69 % 1022,1 hPa 0,0 mm 8,2 km/h (2 Bft) W-SW 257 ° 0 min 0,000 mm 1,0 UV-I 113 W/m² -1,3 °C 16,1 km/h (3 Bft)
02.12.2016 11:56 3,9 °C 3,9 °C 69 % 1022,1 hPa 0,0 mm 5,5 km/h (1 Bft) W 276 ° 0 min 0,000 mm 1,0 UV-I 111 W/m² -1,3 °C 9,7 km/h (2 Bft)
02.12.2016 11:57 3,8 °C 3,9 °C 71 % 1022,1 hPa 0,0 mm 4,7 km/h (1 Bft) SW 236 ° 0 min 0,000 mm 1,0 UV-I 105 W/m² -1,0 °C 6,4 km/h (2 Bft)
02.12.2016 11:58 3,8 °C 3,9 °C 71 % 1022,1 hPa 0,0 mm 5,0 km/h (1 Bft) W-SW 254 ° 0 min 0,000 mm 1,0 UV-I 100 W/m² -1,0 °C 9,7 km/h (2 Bft)
02.12.2016 11:59 3,9 °C 3,9 °C 70 % 1022,1 hPa 0,0 mm 5,7 km/h (1 Bft) W-SW 245 ° 0 min 0,000 mm 1,0 UV-I 97 W/m² -1,1 °C 12,9 km/h (3 Bft)
02.12.2016 12:00 3,9 °C 3,9 °C 69 % 1022,1 hPa 0,0 mm 5,8 km/h (2 Bft) W 269 ° 0 min 0,000 mm 1,0 UV-I 93 W/m² -1,3 °C 11,3 km/h (2 Bft)
02.12.2016 12:01 3,9 °C 3,9 °C 70 % 1022,1 hPa 0,0 mm 11,0 km/h (2 Bft) W 265 ° 0 min 0,051 mm 1,0 UV-I 93 W/m² -1,1 °C 16,1 km/h (3 Bft)
02.12.2016 12:02 3,9 °C 3,9 °C 69 % 1022,1 hPa 0,0 mm 10,4 km/h (2 Bft) W-SW 245 ° 0 min 0,000 mm 1,0 UV-I 93 W/m² -1,3 °C 19,3 km/h (3 Bft)
02.12.2016 12:03 3,9 °C 3,9 °C 70 % 1022,1 hPa 0,0 mm 6,3 km/h (2 Bft) W 269 ° 0 min 0,000 mm 1,0 UV-I 93 W/m² -1,1 °C 12,9 km/h (3 Bft)
02.12.2016 12:04 3,9 °C 3,9 °C 70 % 1022,1 hPa 0,0 mm 10,5 km/h (2 Bft) W-NW 286 ° 0 min 0,000 mm 1,0 UV-I 97 W/m² -1,1 °C 14,5 km/h (3 Bft)
02.12.2016 12:05 3,9 °C 3,9 °C 70 % 1022,1 hPa 0,0 mm 5,6 km/h (1 Bft) W-NW 292 ° 0 min 0,000 mm 1,0 UV-I 104 W/m² -1,1 °C 6,4 km/h (2 Bft)
02.12.2016 12:06 3,9 °C 4,0 °C 69 % 1022,1 hPa 0,0 mm 5,8 km/h (2 Bft) S 189 ° 0 min 0,000 mm 1,0 UV-I 107 W/m² -1,3 °C 9,7 km/h (2 Bft)
02.12.2016 12:07 4,0 °C 4,0 °C 70 % 1022,1 hPa 0,0 mm 8,2 km/h (2 Bft) W-SW 255 ° 0 min 0,000 mm 1,0 UV-I 109 W/m² -1,0 °C 16,1 km/h (3 Bft)
02.12.2016 12:08 4,0 °C 4,0 °C 70 % 1022,1 hPa 0,0 mm 8,3 km/h (2 Bft) W-SW 251 ° 0 min 0,000 mm 1,0 UV-I 107 W/m² -1,0 °C 14,5 km/h (3 Bft)
02.12.2016 12:09 4,0 °C 4,0 °C 69 % 1022,1 hPa 0,0 mm 7,7 km/h (2 Bft) W 267 ° 0 min 0,000 mm 1,0 UV-I 105 W/m² -1,2 °C 12,9 km/h (3 Bft)
02.12.2016 12:10 4,0 °C 4,0 °C 69 % 1022,1 hPa 0,0 mm 9,7 km/h (2 Bft) S 178 ° 0 min 0,000 mm 1,0 UV-I 100 W/m² -1,2 °C 12,9 km/h (3 Bft)
02.12.2016 12:11 4,0 °C 4,0 °C 69 % 1022,1 hPa 0,0 mm 8,2 km/h (2 Bft) W-SW 254 ° 0 min 0,000 mm 1,0 UV-I 91 W/m² -1,2 °C 12,9 km/h (3 Bft)
02.12.2016 12:12 4,0 °C 4,0 °C 69 % 1022,1 hPa 0,0 mm 12,5 km/h (3 Bft) W 270 ° 0 min 0,000 mm 1,0 UV-I 90 W/m² -1,2 °C 16,1 km/h (3 Bft)
02.12.2016 12:13 3,9 °C 4,0 °C 69 % 1022,1 hPa 0,0 mm 9,5 km/h (2 Bft) W 281 ° 0 min 0,000 mm 1,0 UV-I 86 W/m² -1,3 °C 12,9 km/h (3 Bft)
02.12.2016 12:14 3,9 °C 4,0 °C 70 % 1022,0 hPa 0,0 mm 9,9 km/h (2 Bft) SW 229 ° 0 min 0,000 mm 1,0 UV-I 83 W/m² -1,1 °C 11,3 km/h (2 Bft)
02.12.2016 12:15 4,0 °C 4,0 °C 70 % 1022,0 hPa 0,0 mm 5,7 km/h (1 Bft) W-SW 257 ° 0 min 0,000 mm 1,0 UV-I 77 W/m² -1,0 °C 9,7 km/h (2 Bft)
02.12.2016 12:16 4,0 °C 4,0 °C 69 % 1022,1 hPa 0,0 mm 6,7 km/h (2 Bft) W-SW 242 ° 0 min 0,000 mm 1,0 UV-I 72 W/m² -1,2 °C 9,7 km/h (2 Bft)
02.12.2016 12:17 3,9 °C 4,0 °C 69 % 1022,0 hPa 0,0 mm 5,8 km/h (2 Bft) W 267 ° 0 min 0,000 mm 1,0 UV-I 63 W/m² -1,3 °C 12,9 km/h (3 Bft)
02.12.2016 12:18 3,9 °C 4,0 °C 69 % 1022,0 hPa 0,0 mm 8,3 km/h (2 Bft) W-SW 250 ° 0 min 0,000 mm 1,0 UV-I 62 W/m² -1,3 °C 14,5 km/h (3 Bft)
02.12.2016 12:19 3,9 °C 4,0 °C 69 % 1022,0 hPa 0,0 mm 4,6 km/h (1 Bft) S-SW 206 ° 0 min 0,000 mm 1,0 UV-I 62 W/m² -1,3 °C 8,0 km/h (2 Bft)
02.12.2016 12:20 3,9 °C 3,9 °C 69 % 1022,0 hPa 0,0 mm 4,8 km/h (1 Bft) S-SW 212 ° 0 min 0,000 mm 0,0 UV-I 53 W/m² -1,3 °C 9,7 km/h (2 Bft)
02.12.2016 12:21 3,9 °C 3,9 °C 69 % 1022,0 hPa 0,0 mm 8,6 km/h (2 Bft) S-SW 193 ° 0 min 0,000 mm 0,0 UV-I 44 W/m² -1,3 °C 14,5 km/h (3 Bft)
02.12.2016 12:22 3,8 °C 3,9 °C 70 % 1022,0 hPa 0,0 mm 8,0 km/h (2 Bft) S-SW 204 ° 0 min 0,000 mm 0,0 UV-I 46 W/m² -1,2 °C 14,5 km/h (3 Bft)
02.12.2016 12:23 3,8 °C 3,8 °C 69 % 1022,0 hPa 0,0 mm 9,2 km/h (2 Bft) O-SO 111 ° 0 min 0,000 mm 0,0 UV-I 58 W/m² -1,4 °C 16,1 km/h (3 Bft)
02.12.2016 12:24 3,8 °C 3,8 °C 70 % 1022,0 hPa 0,0 mm 4,6 km/h (1 Bft) SW 234 ° 0 min 0,000 mm 1,0 UV-I 56 W/m² -1,2 °C 8,0 km/h (2 Bft)
02.12.2016 12:25 3,8 °C 3,8 °C 69 % 1022,0 hPa 0,0 mm 6,9 km/h (2 Bft) SW 225 ° 0 min 0,000 mm 0,0 UV-I 44 W/m² -1,4 °C 12,9 km/h (3 Bft)
02.12.2016 12:26 3,8 °C 3,8 °C 69 % 1021,9 hPa 0,0 mm 10,8 km/h (2 Bft) W-SW 241 ° 0 min 0,000 mm 0,0 UV-I 35 W/m² -1,4 °C 16,1 km/h (3 Bft)
02.12.2016 12:27 3,8 °C 3,8 °C 70 % 1021,9 hPa 0,0 mm 10,5 km/h (2 Bft) W-SW 241 ° 0 min 0,000 mm 0,0 UV-I 28 W/m² -1,2 °C 14,5 km/h (3 Bft)
02.12.2016 12:28 3,7 °C 3,8 °C 70 % 1022,0 hPa 0,0 mm 7,6 km/h (2 Bft) SW 229 ° 0 min 0,000 mm 0,0 UV-I 28 W/m² -1,3 °C 12,9 km/h (3 Bft)
02.12.2016 12:29 3,8 °C 3,8 °C 70 % 1022,0 hPa 0,0 mm 7,2 km/h (2 Bft) W 279 ° 0 min 0,000 mm 0,0 UV-I 28 W/m² -1,2 °C 11,3 km/h (2 Bft)
02.12.2016 12:30 3,8 °C 3,8 °C 70 % 1022,0 hPa 0,0 mm 6,6 km/h (2 Bft) W 264 ° 0 min 0,000 mm 0,0 UV-I 28 W/m² -1,2 °C 11,3 km/h (2 Bft)
02.12.2016 12:31 3,8 °C 3,8 °C 70 % 1022,0 hPa 0,0 mm 8,0 km/h (2 Bft) W 262 ° 0 min 0,000 mm 0,0 UV-I 28 W/m² -1,2 °C 16,1 km/h (3 Bft)
02.12.2016 12:32 3,8 °C 3,8 °C 70 % 1022,0 hPa 0,0 mm 10,2 km/h (2 Bft) W 270 ° 0 min 0,000 mm 0,0 UV-I 28 W/m² -1,2 °C 14,5 km/h (3 Bft)
02.12.2016 12:33 3,7 °C 3,8 °C 70 % 1022,0 hPa 0,0 mm 13,3 km/h (3 Bft) W-SW 249 ° 0 min 0,000 mm 0,0 UV-I 28 W/m² -1,3 °C 19,3 km/h (3 Bft)
02.12.2016 12:34 3,7 °C 3,8 °C 70 % 1022,0 hPa 0,0 mm 14,7 km/h (3 Bft) W 260 ° 0 min 0,000 mm 0,0 UV-I 28 W/m² -1,3 °C 19,3 km/h (3 Bft)
02.12.2016 12:35 3,7 °C 3,7 °C 70 % 1022,0 hPa 0,0 mm 5,2 km/h (1 Bft) W 261 ° 0 min 0,000 mm 0,0 UV-I 28 W/m² -1,3 °C 8,0 km/h (2 Bft)
02.12.2016 12:36 3,7 °C 3,7 °C 70 % 1022,0 hPa 0,0 mm 2,1 km/h (1 Bft) W 272 ° 0 min 0,000 mm 0,0 UV-I 28 W/m² -1,3 °C 4,8 km/h (1 Bft)
02.12.2016 12:37 3,7 °C 3,7 °C 70 % 1022,0 hPa 0,0 mm 1,3 km/h (1 Bft) W 271 ° 0 min 0,000 mm 0,0 UV-I 28 W/m² -1,3 °C 3,2 km/h (1 Bft)
02.12.2016 12:38 3,7 °C 3,8 °C 70 % 1022,0 hPa 0,0 mm 5,3 km/h (1 Bft) S-SO 155 ° 0 min 0,000 mm 0,0 UV-I 28 W/m² -1,3 °C 16,1 km/h (3 Bft)
02.12.2016 12:39 3,7 °C 3,7 °C 70 % 1021,9 hPa 0,0 mm 9,8 km/h (2 Bft) SW 223 ° 0 min 0,000 mm 0,0 UV-I 28 W/m² -1,3 °C 14,5 km/h (3 Bft)
02.12.2016 12:40 3,7 °C 3,7 °C 70 % 1021,9 hPa 0,0 mm 5,5 km/h (1 Bft) SW 222 ° 0 min 0,000 mm 0,0 UV-I 28 W/m² -1,3 °C 8,0 km/h (2 Bft)
02.12.2016 12:41 3,7 °C 3,7 °C 70 % 1022,0 hPa 0,0 mm 5,2 km/h (1 Bft) W-SW 257 ° 0 min 0,000 mm 0,0 UV-I 28 W/m² -1,3 °C 6,4 km/h (2 Bft)
02.12.2016 12:42 3,7 °C 3,7 °C 70 % 1021,9 hPa 0,0 mm 5,0 km/h (1 Bft) W-NW 287 ° 0 min 0,000 mm 0,0 UV-I 30 W/m² -1,3 °C 6,4 km/h (2 Bft)
02.12.2016 12:43 3,7 °C 3,8 °C 70 % 1021,9 hPa 0,0 mm 6,2 km/h (2 Bft) SW 223 ° 0 min 0,000 mm 0,0 UV-I 30 W/m² -1,3 °C 11,3 km/h (2 Bft)
02.12.2016 12:44 3,7 °C 3,7 °C 70 % 1021,9 hPa 0,0 mm 4,9 km/h (1 Bft) W-SW 246 ° 0 min 0,000 mm 0,0 UV-I 30 W/m² -1,3 °C 8,0 km/h (2 Bft)
02.12.2016 12:45 3,7 °C 3,8 °C 70 % 1021,9 hPa 0,0 mm 6,9 km/h (2 Bft) SW 225 ° 0 min 0,000 mm 0,0 UV-I 30 W/m² -1,3 °C 12,9 km/h (3 Bft)
02.12.2016 12:46 3,8 °C 3,8 °C 71 % 1021,9 hPa 0,0 mm 8,2 km/h (2 Bft) W-SW 239 ° 0 min 0,000 mm 0,0 UV-I 32 W/m² -1,0 °C 12,9 km/h (3 Bft)
02.12.2016 12:47 3,7 °C 3,8 °C 71 % 1021,9 hPa 0,0 mm 8,9 km/h (2 Bft) W 273 ° 0 min 0,000 mm 0,0 UV-I 32 W/m² -1,1 °C 12,9 km/h (3 Bft)
02.12.2016 12:48 3,7 °C 3,8 °C 70 % 1021,9 hPa 0,0 mm 4,2 km/h (1 Bft) W-NW 300 ° 0 min 0,000 mm 0,0 UV-I 33 W/m² -1,3 °C 4,8 km/h (1 Bft)
02.12.2016 12:49 3,7 °C 3,8 °C 70 % 1021,9 hPa 0,0 mm 4,3 km/h (1 Bft) W-SW 246 ° 0 min 0,000 mm 0,0 UV-I 35 W/m² -1,3 °C 6,4 km/h (2 Bft)
02.12.2016 12:50 3,7 °C 3,7 °C 70 % 1021,9 hPa 0,0 mm 4,2 km/h (1 Bft) W-SW 257 ° 0 min 0,000 mm 0,0 UV-I 37 W/m² -1,3 °C 11,3 km/h (2 Bft)
02.12.2016 12:51 3,7 °C 3,8 °C 70 % 1021,9 hPa 0,0 mm 5,5 km/h (1 Bft) W-SW 256 ° 0 min 0,000 mm 0,0 UV-I 39 W/m² -1,3 °C 11,3 km/h (2 Bft)
02.12.2016 12:52 3,7 °C 3,7 °C 70 % 1021,9 hPa 0,0 mm 6,9 km/h (2 Bft) W-SW 250 ° 0 min 0,000 mm 0,0 UV-I 42 W/m² -1,3 °C 9,7 km/h (2 Bft)
02.12.2016 12:53 3,8 °C 3,8 °C 70 % 1021,9 hPa 0,0 mm 7,7 km/h (2 Bft) SW 224 ° 0 min 0,000 mm 0,0 UV-I 42 W/m² -1,2 °C 12,9 km/h (3 Bft)
02.12.2016 12:54 3,8 °C 3,8 °C 70 % 1021,9 hPa 0,0 mm 8,0 km/h (2 Bft) W 265 ° 0 min 0,000 mm 0,0 UV-I 44 W/m² -1,2 °C 11,3 km/h (2 Bft)
02.12.2016 12:55 3,8 °C 3,8 °C 70 % 1021,9 hPa 0,0 mm 8,4 km/h (2 Bft) W 271 ° 0 min 0,000 mm 0,0 UV-I 47 W/m² -1,2 °C 14,5 km/h (3 Bft)
02.12.2016 12:56 3,8 °C 3,9 °C 70 % 1021,9 hPa 0,0 mm 12,5 km/h (3 Bft) W 269 ° 0 min 0,000 mm 0,0 UV-I 53 W/m² -1,2 °C 20,9 km/h (4 Bft)
02.12.2016 12:57 3,8 °C 3,9 °C 70 % 1021,9 hPa 0,0 mm 6,8 km/h (2 Bft) W 277 ° 0 min 0,000 mm 0,9 UV-I 56 W/m² -1,2 °C 9,7 km/h (2 Bft)
02.12.2016 12:58 3,9 °C 3,9 °C 71 % 1021,8 hPa 0,0 mm 7,9 km/h (2 Bft) W-SW 256 ° 0 min 0,000 mm 0,9 UV-I 56 W/m² -0,9 °C 12,9 km/h (3 Bft)
02.12.2016 12:59 3,9 °C 3,9 °C 71 % 1021,8 hPa 0,0 mm 12,7 km/h (3 Bft) W-SW 250 ° 0 min 0,000 mm 0,0 UV-I 54 W/m² -0,9 °C 20,9 km/h (4 Bft)
02.12.2016 13:00 3,9 °C 3,9 °C 71 % 1021,8 hPa 0,0 mm 11,7 km/h (2 Bft) W-SW 250 ° 0 min 0,051 mm 0,0 UV-I 51 W/m² -0,9 °C 19,3 km/h (3 Bft)
02.12.2016 13:01 3,9 °C 3,9 °C 70 % 1021,8 hPa 0,0 mm 11,1 km/h (2 Bft) W-SW 257 ° 0 min 0,000 mm 0,0 UV-I 49 W/m² -1,1 °C 14,5 km/h (3 Bft)
02.12.2016 13:02 3,9 °C 3,9 °C 70 % 1021,8 hPa 0,0 mm 10,6 km/h (2 Bft) W-NW 284 ° 0 min 0,000 mm 0,0 UV-I 49 W/m² -1,1 °C 16,1 km/h (3 Bft)
02.12.2016 13:03 4,0 °C 4,0 °C 70 % 1021,7 hPa 0,0 mm 9,9 km/h (2 Bft) W 268 ° 0 min 0,000 mm 0,0 UV-I 51 W/m² -1,0 °C 14,5 km/h (3 Bft)
02.12.2016 13:04 4,0 °C 4,0 °C 70 % 1021,8 hPa 0,0 mm 7,6 km/h (2 Bft) W 267 ° 0 min 0,000 mm 0,0 UV-I 53 W/m² -1,0 °C 11,3 km/h (2 Bft)
02.12.2016 13:05 4,1 °C 4,1 °C 70 % 1021,8 hPa 0,0 mm 7,1 km/h (2 Bft) W-NW 294 ° 0 min 0,000 mm 0,0 UV-I 53 W/m² -0,9 °C 12,9 km/h (3 Bft)
02.12.2016 13:06 4,1 °C 4,1 °C 69 % 1021,7 hPa 0,0 mm 2,8 km/h (1 Bft) W 281 ° 0 min 0,000 mm 0,9 UV-I 56 W/m² -1,1 °C 4,8 km/h (1 Bft)
02.12.2016 13:07 4,1 °C 4,1 °C 70 % 1021,7 hPa 0,0 mm 4,7 km/h (1 Bft) W-SW 248 ° 0 min 0,000 mm 0,9 UV-I 58 W/m² -0,9 °C 8,0 km/h (2 Bft)
02.12.2016 13:08 4,1 °C 4,1 °C 71 % 1021,7 hPa 0,0 mm 5,3 km/h (1 Bft) W-NW 284 ° 0 min 0,000 mm 0,9 UV-I 62 W/m² -0,7 °C 8,0 km/h (2 Bft)
02.12.2016 13:09 4,2 °C 4,2 °C 70 % 1021,7 hPa 0,0 mm 4,8 km/h (1 Bft) W 263 ° 0 min 0,000 mm 0,9 UV-I 62 W/m² -0,8 °C 9,7 km/h (2 Bft)
02.12.2016 13:10 4,2 °C 4,2 °C 70 % 1021,6 hPa 0,0 mm 7,1 km/h (2 Bft) W-SW 258 ° 0 min 0,000 mm 0,9 UV-I 63 W/m² -0,8 °C 11,3 km/h (2 Bft)
02.12.2016 13:11 4,2 °C 4,3 °C 70 % 1021,6 hPa 0,0 mm 7,0 km/h (2 Bft) W-SW 251 ° 0 min 0,000 mm 0,9 UV-I 65 W/m² -0,8 °C 11,3 km/h (2 Bft)
02.12.2016 13:12 4,3 °C 4,3 °C 69 % 1021,6 hPa 0,0 mm 4,6 km/h (1 Bft) W-SW 252 ° 0 min 0,000 mm 0,9 UV-I 69 W/m² -0,9 °C 6,4 km/h (2 Bft)
02.12.2016 13:13 4,3 °C 4,3 °C 70 % 1021,6 hPa 0,0 mm 7,3 km/h (2 Bft) W-SW 254 ° 0 min 0,000 mm 0,9 UV-I 74 W/m² -0,7 °C 11,3 km/h (2 Bft)
02.12.2016 13:14 4,3 °C 4,3 °C 70 % 1021,6 hPa 0,0 mm 6,2 km/h (2 Bft) NW 315 ° 0 min 0,000 mm 0,9 UV-I 83 W/m² -0,7 °C 11,3 km/h (2 Bft)
02.12.2016 13:15 4,4 °C 4,4 °C 70 % 1021,6 hPa 0,0 mm 10,1 km/h (2 Bft) W 264 ° 0 min 0,000 mm 0,9 UV-I 98 W/m² -0,6 °C 14,5 km/h (3 Bft)
02.12.2016 13:16 4,5 °C 4,5 °C 69 % 1021,6 hPa 0,0 mm 9,1 km/h (2 Bft) W 267 ° 0 min 0,000 mm 0,9 UV-I 105 W/m² -0,7 °C 12,9 km/h (3 Bft)
02.12.2016 13:17 4,6 °C 4,6 °C 70 % 1021,6 hPa 0,0 mm 8,9 km/h (2 Bft) W 265 ° 0 min 0,000 mm 0,9 UV-I 111 W/m² -0,4 °C 12,9 km/h (3 Bft)
02.12.2016 13:18 4,6 °C 4,6 °C 69 % 1021,6 hPa 0,0 mm 6,5 km/h (2 Bft) W 272 ° 0 min 0,000 mm 0,9 UV-I 111 W/m² -0,6 °C 12,9 km/h (3 Bft)
02.12.2016 13:19 4,7 °C 4,7 °C 68 % 1021,6 hPa 0,0 mm 5,8 km/h (2 Bft) W 271 ° 0 min 0,000 mm 0,9 UV-I 105 W/m² -0,7 °C 12,9 km/h (3 Bft)
02.12.2016 13:20 4,7 °C 4,7 °C 68 % 1021,6 hPa 0,0 mm 4,9 km/h (1 Bft) NW 306 ° 0 min 0,000 mm 0,9 UV-I 107 W/m² -0,7 °C 6,4 km/h (2 Bft)
02.12.2016 13:21 4,7 °C 4,7 °C 68 % 1021,5 hPa 0,0 mm 0,7 km/h (0 Bft) NW 306 ° 0 min 0,000 mm 0,9 UV-I 123 W/m² -0,7 °C 3,2 km/h (1 Bft)
02.12.2016 13:22 4,7 °C 4,7 °C 69 % 1021,5 hPa 0,0 mm 3,1 km/h (1 Bft) W-SW 250 ° 0 min 0,000 mm 0,9 UV-I 134 W/m² -0,5 °C 6,4 km/h (2 Bft)
02.12.2016 13:23 4,8 °C 4,8 °C 69 % 1021,5 hPa 0,0 mm 4,0 km/h (1 Bft) W 270 ° 0 min 0,000 mm 0,9 UV-I 146 W/m² -0,4 °C 6,4 km/h (2 Bft)
02.12.2016 13:24 4,9 °C 4,9 °C 70 % 1021,5 hPa 0,0 mm 4,0 km/h (1 Bft) W-NW 291 ° 0 min 0,000 mm 0,9 UV-I 155 W/m² -0,1 °C 4,8 km/h (1 Bft)
02.12.2016 13:25 5,0 °C 5,0 °C 69 % 1021,5 hPa 0,0 mm 5,4 km/h (1 Bft) W 267 ° 0 min 0,000 mm 0,9 UV-I 156 W/m² -0,2 °C 9,7 km/h (2 Bft)
02.12.2016 13:26 5,1 °C 5,1 °C 69 % 1021,5 hPa 0,0 mm 6,8 km/h (2 Bft) W-NW 286 ° 0 min 0,000 mm 0,9 UV-I 155 W/m² -0,1 °C 9,7 km/h (2 Bft)
02.12.2016 13:27 5,1 °C 5,1 °C 68 % 1021,5 hPa 0,0 mm 7,3 km/h (2 Bft) NW 323 ° 0 min 0,000 mm 0,9 UV-I 162 W/m² -0,3 °C 12,9 km/h (3 Bft)
02.12.2016 13:28 5,2 °C 5,2 °C 69 % 1021,4 hPa 0,0 mm 8,1 km/h (2 Bft) NW 314 ° 0 min 0,000 mm 0,9 UV-I 162 W/m² -0,0 °C 12,9 km/h (3 Bft)
02.12.2016 13:29 5,2 °C 5,2 °C 69 % 1021,5 hPa 0,0 mm 6,6 km/h (2 Bft) NW 304 ° 0 min 0,000 mm 0,9 UV-I 162 W/m² -0,0 °C 8,0 km/h (2 Bft)
02.12.2016 13:30 5,2 °C 5,2 °C 67 % 1021,4 hPa 0,0 mm 8,3 km/h (2 Bft) NW 317 ° 0 min 0,000 mm 0,8 UV-I 156 W/m² -0,4 °C 14,5 km/h (3 Bft)
02.12.2016 13:31 5,2 °C 5,2 °C 67 % 1021,3 hPa 0,0 mm 10,3 km/h (2 Bft) W-NW 286 ° 0 min 0,000 mm 0,8 UV-I 155 W/m² -0,4 °C 14,5 km/h (3 Bft)
02.12.2016 13:32 5,1 °C 5,2 °C 67 % 1021,4 hPa 0,0 mm 6,2 km/h (2 Bft) W 264 ° 0 min 0,000 mm 0,8 UV-I 156 W/m² -0,5 °C 9,7 km/h (2 Bft)
02.12.2016 13:33 5,1 °C 5,1 °C 67 % 1021,3 hPa 0,0 mm 6,6 km/h (2 Bft) W-NW 287 ° 0 min 0,000 mm 0,8 UV-I 146 W/m² -0,5 °C 16,1 km/h (3 Bft)
02.12.2016 13:34 5,0 °C 5,1 °C 68 % 1021,4 hPa 0,0 mm 8,0 km/h (2 Bft) NW 319 ° 0 min 0,000 mm 0,8 UV-I 160 W/m² -0,4 °C 11,3 km/h (2 Bft)
02.12.2016 13:35 5,0 °C 5,1 °C 68 % 1021,4 hPa 0,0 mm 9,2 km/h (2 Bft) NW 314 ° 0 min 0,000 mm 0,8 UV-I 156 W/m² -0,4 °C 12,9 km/h (3 Bft)
02.12.2016 13:36 5,0 °C 5,0 °C 68 % 1021,4 hPa 0,0 mm 4,4 km/h (1 Bft) W-NW 301 ° 0 min 0,000 mm 0,7 UV-I 148 W/m² -0,4 °C 6,4 km/h (2 Bft)
02.12.2016 13:37 5,0 °C 5,0 °C 68 % 1021,4 hPa 0,0 mm 4,8 km/h (1 Bft) NW 309 ° 0 min 0,000 mm 0,7 UV-I 146 W/m² -0,4 °C 8,0 km/h (2 Bft)
02.12.2016 13:38 4,9 °C 5,0 °C 68 % 1021,4 hPa 0,0 mm 5,9 km/h (2 Bft) NW 304 ° 0 min 0,000 mm 0,7 UV-I 139 W/m² -0,5 °C 11,3 km/h (2 Bft)
02.12.2016 13:39 4,9 °C 4,9 °C 69 % 1021,4 hPa 0,0 mm 7,5 km/h (2 Bft) W-NW 289 ° 0 min 0,000 mm 0,7 UV-I 139 W/m² -0,3 °C 11,3 km/h (2 Bft)
02.12.2016 13:40 4,9 °C 4,9 °C 68 % 1021,4 hPa 0,0 mm 5,8 km/h (2 Bft) NW 305 ° 0 min 0,000 mm 0,7 UV-I 139 W/m² -0,5 °C 12,9 km/h (3 Bft)
02.12.2016 13:41 4,9 °C 4,9 °C 68 % 1021,3 hPa 0,0 mm 7,1 km/h (2 Bft) W-NW 302 ° 0 min 0,000 mm 0,7 UV-I 135 W/m² -0,5 °C 12,9 km/h (3 Bft)
02.12.2016 13:42 4,8 °C 4,9 °C 69 % 1021,3 hPa 0,0 mm 8,6 km/h (2 Bft) W-NW 286 ° 0 min 0,000 mm 0,7 UV-I 137 W/m² -0,4 °C 11,3 km/h (2 Bft)
02.12.2016 13:43 4,8 °C 4,9 °C 69 % 1021,3 hPa 0,0 mm 8,5 km/h (2 Bft) W-NW 300 ° 0 min 0,000 mm 0,7 UV-I 132 W/m² -0,4 °C 12,9 km/h (3 Bft)
02.12.2016 13:44 4,8 °C 4,8 °C 69 % 1021,3 hPa 0,0 mm 6,7 km/h (2 Bft) W-SW 245 ° 0 min 0,000 mm 0,7 UV-I 132 W/m² -0,4 °C 9,7 km/h (2 Bft)
02.12.2016 13:45 4,8 °C 4,9 °C 69 % 1021,3 hPa 0,0 mm 11,3 km/h (2 Bft) W 265 ° 0 min 0,000 mm 0,7 UV-I 128 W/m² -0,4 °C 16,1 km/h (3 Bft)
02.12.2016 13:46 4,8 °C 4,9 °C 68 % 1021,3 hPa 0,0 mm 10,1 km/h (2 Bft) W 279 ° 0 min 0,000 mm 0,7 UV-I 130 W/m² -0,6 °C 14,5 km/h (3 Bft)
02.12.2016 13:47 4,8 °C 4,8 °C 69 % 1021,3 hPa 0,0 mm 4,9 km/h (1 Bft) NW 309 ° 0 min 0,000 mm 0,7 UV-I 186 W/m² -0,4 °C 9,7 km/h (2 Bft)
02.12.2016 13:48 4,8 °C 4,8 °C 71 % 1021,2 hPa 0,0 mm 4,2 km/h (1 Bft) W-NW 297 ° 0 min 0,000 mm 0,8 UV-I 186 W/m² -0,0 °C 4,8 km/h (1 Bft)
02.12.2016 13:49 4,8 °C 4,8 °C 70 % 1021,2 hPa 0,0 mm 4,6 km/h (1 Bft) W 277 ° 0 min 0,000 mm 0,7 UV-I 186 W/m² -0,2 °C 6,4 km/h (2 Bft)
02.12.2016 13:50 4,9 °C 4,9 °C 70 % 1021,2 hPa 0,0 mm 7,9 km/h (2 Bft) W 279 ° 0 min 0,000 mm 0,6 UV-I 107 W/m² -0,1 °C 11,3 km/h (2 Bft)
02.12.2016 13:51 4,9 °C 4,9 °C 69 % 1021,2 hPa 0,0 mm 5,8 km/h (2 Bft) SW 235 ° 0 min 0,000 mm 0,6 UV-I 113 W/m² -0,3 °C 9,7 km/h (2 Bft)
02.12.2016 13:52 4,9 °C 4,9 °C 68 % 1021,2 hPa 0,0 mm 4,9 km/h (1 Bft) NW 304 ° 0 min 0,000 mm 0,7 UV-I 155 W/m² -0,5 °C 6,4 km/h (2 Bft)
02.12.2016 13:53 4,8 °C 4,9 °C 68 % 1021,2 hPa 0,0 mm 8,7 km/h (2 Bft) NW 304 ° 0 min 0,000 mm 0,6 UV-I 90 W/m² -0,6 °C 11,3 km/h (2 Bft)
02.12.2016 13:54 4,8 °C 4,8 °C 69 % 1021,2 hPa 0,0 mm 6,8 km/h (2 Bft) W-NW 303 ° 0 min 0,000 mm 0,6 UV-I 100 W/m² -0,4 °C 12,9 km/h (3 Bft)
02.12.2016 13:55 4,8 °C 4,8 °C 70 % 1021,2 hPa 0,0 mm 5,8 km/h (2 Bft) N-NW 327 ° 0 min 0,000 mm 0,6 UV-I 109 W/m² -0,2 °C 11,3 km/h (2 Bft)
02.12.2016 13:56 4,7 °C 4,8 °C 70 % 1021,2 hPa 0,0 mm 8,9 km/h (2 Bft) NW 308 ° 0 min 0,000 mm 0,6 UV-I 72 W/m² -0,3 °C 12,9 km/h (3 Bft)
02.12.2016 13:57 4,7 °C 4,7 °C 70 % 1021,2 hPa 0,0 mm 7,3 km/h (2 Bft) W-NW 292 ° 0 min 0,000 mm 0,6 UV-I 72 W/m² -0,3 °C 11,3 km/h (2 Bft)
02.12.2016 13:58 4,7 °C 4,7 °C 70 % 1021,3 hPa 0,0 mm 6,2 km/h (2 Bft) W 281 ° 0 min 0,000 mm 0,5 UV-I 70 W/m² -0,3 °C 9,7 km/h (2 Bft)
02.12.2016 13:59 4,6 °C 4,7 °C 69 % 1021,3 hPa 0,0 mm 5,8 km/h (2 Bft) NW 304 ° 0 min 0,000 mm 0,5 UV-I 69 W/m² -0,6 °C 9,7 km/h (2 Bft)
02.12.2016 14:00 4,6 °C 4,6 °C 70 % 1021,3 hPa 0,0 mm 4,0 km/h (1 Bft) W-NW 302 ° 0 min 0,000 mm 0,5 UV-I 69 W/m² -0,4 °C 4,8 km/h (1 Bft)
02.12.2016 14:01 4,5 °C 4,6 °C 70 % 1021,3 hPa 0,0 mm 6,2 km/h (2 Bft) W-NW 302 ° 0 min 0,076 mm 0,5 UV-I 69 W/m² -0,5 °C 12,9 km/h (3 Bft)
02.12.2016 14:02 4,5 °C 4,5 °C 71 % 1021,3 hPa 0,0 mm 8,3 km/h (2 Bft) N-NW 338 ° 0 min 0,000 mm 0,5 UV-I 83 W/m² -0,3 °C 12,9 km/h (3 Bft)
02.12.2016 14:03 4,5 °C 4,5 °C 70 % 1021,3 hPa 0,0 mm 5,4 km/h (1 Bft) N-NW 348 ° 0 min 0,000 mm 0,5 UV-I 83 W/m² -0,5 °C 8,0 km/h (2 Bft)
02.12.2016 14:04 4,4 °C 4,5 °C 71 % 1021,2 hPa 0,0 mm 6,9 km/h (2 Bft) NW 307 ° 0 min 0,000 mm 0,5 UV-I 79 W/m² -0,4 °C 12,9 km/h (3 Bft)
02.12.2016 14:05 4,5 °C 4,5 °C 71 % 1021,2 hPa 0,0 mm 7,3 km/h (2 Bft) W-NW 303 ° 0 min 0,000 mm 0,5 UV-I 77 W/m² -0,3 °C 11,3 km/h (2 Bft)
02.12.2016 14:06 4,4 °C 4,5 °C 71 % 1021,2 hPa 0,0 mm 6,1 km/h (2 Bft) W-NW 286 ° 0 min 0,000 mm 0,5 UV-I 79 W/m² -0,4 °C 11,3 km/h (2 Bft)
02.12.2016 14:07 4,4 °C 4,5 °C 71 % 1021,2 hPa 0,0 mm 5,2 km/h (1 Bft) NW 306 ° 0 min 0,000 mm 0,5 UV-I 81 W/m² -0,4 °C 8,0 km/h (2 Bft)
02.12.2016 14:08 4,4 °C 4,5 °C 71 % 1021,2 hPa 0,0 mm 4,7 km/h (1 Bft) NW 318 ° 0 min 0,000 mm 0,6 UV-I 83 W/m² -0,4 °C 6,4 km/h (2 Bft)
02.12.2016 14:09 4,5 °C 4,5 °C 71 % 1021,2 hPa 0,0 mm 8,2 km/h (2 Bft) NW 310 ° 0 min 0,000 mm 0,5 UV-I 79 W/m² -0,3 °C 12,9 km/h (3 Bft)
02.12.2016 14:10 4,4 °C 4,5 °C 71 % 1021,2 hPa 0,0 mm 7,1 km/h (2 Bft) N 5 ° 0 min 0,000 mm 0,5 UV-I 74 W/m² -0,4 °C 12,9 km/h (3 Bft)
02.12.2016 14:11 4,4 °C 4,4 °C 71 % 1021,2 hPa 0,0 mm 7,4 km/h (2 Bft) N-NW 330 ° 0 min 0,000 mm 0,5 UV-I 74 W/m² -0,4 °C 9,7 km/h (2 Bft)
02.12.2016 14:12 4,4 °C 4,4 °C 72 % 1021,2 hPa 0,0 mm 5,2 km/h (1 Bft) N-NW 329 ° 0 min 0,000 mm 0,5 UV-I 77 W/m² -0,2 °C 8,0 km/h (2 Bft)
02.12.2016 14:13 4,4 °C 4,4 °C 72 % 1021,2 hPa 0,0 mm 4,2 km/h (1 Bft) N-NW 328 ° 0 min 0,000 mm 0,5 UV-I 77 W/m² -0,2 °C 6,4 km/h (2 Bft)
02.12.2016 14:14 4,3 °C 4,4 °C 72 % 1021,2 hPa 0,0 mm 4,6 km/h (1 Bft) W-NW 298 ° 0 min 0,000 mm 0,5 UV-I 76 W/m² -0,3 °C 6,4 km/h (2 Bft)
02.12.2016 14:15 4,3 °C 4,3 °C 72 % 1021,3 hPa 0,0 mm 5,5 km/h (1 Bft) N-NW 348 ° 0 min 0,000 mm 0,5 UV-I 76 W/m² -0,3 °C 9,7 km/h (2 Bft)
02.12.2016 14:16 4,3 °C 4,3 °C 72 % 1021,3 hPa 0,0 mm 3,5 km/h (1 Bft) N-NW 348 ° 0 min 0,000 mm 0,5 UV-I 77 W/m² -0,3 °C 4,8 km/h (1 Bft)
02.12.2016 14:17 4,3 °C 4,3 °C 72 % 1021,3 hPa 0,0 mm 5,2 km/h (1 Bft) NW 306 ° 0 min 0,000 mm 0,5 UV-I 81 W/m² -0,3 °C 8,0 km/h (2 Bft)
02.12.2016 14:18 4,3 °C 4,3 °C 73 % 1021,3 hPa 0,0 mm 3,3 km/h (1 Bft) N-NW 328 ° 0 min 0,000 mm 0,5 UV-I 83 W/m² -0,1 °C 6,4 km/h (2 Bft)
02.12.2016 14:19 4,3 °C 4,3 °C 73 % 1021,3 hPa 0,0 mm 4,5 km/h (1 Bft) N-NW 331 ° 0 min 0,000 mm 0,5 UV-I 88 W/m² -0,1 °C 6,4 km/h (2 Bft)
02.12.2016 14:20 4,3 °C 4,4 °C 73 % 1021,3 hPa 0,0 mm 6,0 km/h (2 Bft) W-NW 292 ° 0 min 0,000 mm 0,5 UV-I 90 W/m² -0,1 °C 11,3 km/h (2 Bft)
02.12.2016 14:21 4,3 °C 4,4 °C 72 % 1021,3 hPa 0,0 mm 4,8 km/h (1 Bft) NW 319 ° 0 min 0,000 mm 0,5 UV-I 91 W/m² -0,3 °C 6,4 km/h (2 Bft)
02.12.2016 14:22 4,3 °C 4,4 °C 73 % 1021,3 hPa 0,0 mm 5,0 km/h (1 Bft) N-NO 16 ° 0 min 0,000 mm 0,5 UV-I 91 W/m² -0,1 °C 6,4 km/h (2 Bft)
02.12.2016 14:23 4,3 °C 4,4 °C 73 % 1021,3 hPa 0,0 mm 5,2 km/h (1 Bft) N-NW 339 ° 0 min 0,000 mm 0,5 UV-I 90 W/m² -0,1 °C 9,7 km/h (2 Bft)
02.12.2016 14:24 4,3 °C 4,3 °C 73 % 1021,3 hPa 0,0 mm 4,6 km/h (1 Bft) N 360 ° 0 min 0,000 mm 0,5 UV-I 84 W/m² -0,1 °C 6,4 km/h (2 Bft)
02.12.2016 14:25 4,3 °C 4,3 °C 73 % 1021,3 hPa 0,0 mm 4,1 km/h (1 Bft) N 350 ° 0 min 0,000 mm 0,5 UV-I 76 W/m² -0,1 °C 6,4 km/h (2 Bft)
02.12.2016 14:26 4,3 °C 4,3 °C 73 % 1021,3 hPa 0,0 mm 2,5 km/h (1 Bft) N-NW 340 ° 0 min 0,000 mm 0,5 UV-I 74 W/m² -0,1 °C 4,8 km/h (1 Bft)
02.12.2016 14:27 4,3 °C 4,3 °C 73 % 1021,3 hPa 0,0 mm 2,5 km/h (1 Bft) N-NW 327 ° 0 min 0,000 mm 0,5 UV-I 70 W/m² -0,1 °C 4,8 km/h (1 Bft)
02.12.2016 14:28 4,3 °C 4,3 °C 73 % 1021,3 hPa 0,0 mm 2,1 km/h (1 Bft) NW 326 ° 0 min 0,000 mm 0,6 UV-I 69 W/m² -0,1 °C 4,8 km/h (1 Bft)
02.12.2016 14:29 4,2 °C 4,3 °C 73 % 1021,4 hPa 0,0 mm 3,0 km/h (1 Bft) NW 326 ° 0 min 0,000 mm 0,5 UV-I 65 W/m² -0,2 °C 4,8 km/h (1 Bft)
02.12.2016 14:30 4,2 °C 4,3 °C 73 % 1021,4 hPa 0,0 mm 3,6 km/h (1 Bft) NW 312 ° 0 min 0,000 mm 0,5 UV-I 60 W/m² -0,2 °C 4,8 km/h (1 Bft)
02.12.2016 14:31 4,2 °C 4,2 °C 73 % 1021,4 hPa 0,0 mm 4,5 km/h (1 Bft) NW 324 ° 0 min 0,000 mm 0,0 UV-I 54 W/m² -0,2 °C 6,4 km/h (2 Bft)
02.12.2016 14:32 4,2 °C 4,2 °C 73 % 1021,4 hPa 0,0 mm 3,6 km/h (1 Bft) N-NW 332 ° 0 min 0,000 mm 0,0 UV-I 47 W/m² -0,2 °C 6,4 km/h (2 Bft)
02.12.2016 14:33 4,2 °C 4,2 °C 73 % 1021,4 hPa 0,0 mm 5,5 km/h (1 Bft) N 355 ° 0 min 0,000 mm 0,0 UV-I 46 W/m² -0,2 °C 11,3 km/h (2 Bft)
02.12.2016 14:34 4,1 °C 4,2 °C 73 % 1021,4 hPa 0,0 mm 8,7 km/h (2 Bft) NW 306 ° 0 min 0,000 mm 0,0 UV-I 47 W/m² -0,3 °C 12,9 km/h (3 Bft)
02.12.2016 14:35 4,0 °C 4,1 °C 73 % 1021,4 hPa 0,0 mm 5,7 km/h (1 Bft) NW 304 ° 0 min 0,000 mm 0,0 UV-I 47 W/m² -0,4 °C 8,0 km/h (2 Bft)
02.12.2016 14:36 3,9 °C 4,0 °C 73 % 1021,4 hPa 0,0 mm 5,4 km/h (1 Bft) NW 325 ° 0 min 0,000 mm 0,0 UV-I 49 W/m² -0,5 °C 6,4 km/h (2 Bft)
02.12.2016 14:37 3,9 °C 3,9 °C 73 % 1021,4 hPa 0,0 mm 3,3 km/h (1 Bft) N-NW 336 ° 0 min 0,000 mm 0,0 UV-I 49 W/m² -0,5 °C 6,4 km/h (2 Bft)
02.12.2016 14:38 3,9 °C 3,9 °C 73 % 1021,4 hPa 0,0 mm 6,8 km/h (2 Bft) NW 316 ° 0 min 0,000 mm 0,0 UV-I 49 W/m² -0,5 °C 11,3 km/h (2 Bft)
02.12.2016 14:39 3,8 °C 3,9 °C 73 % 1021,4 hPa 0,0 mm 7,0 km/h (2 Bft) N 349 ° 0 min 0,000 mm 0,0 UV-I 51 W/m² -0,6 °C 11,3 km/h (2 Bft)
02.12.2016 14:40 3,8 °C 3,8 °C 74 % 1021,4 hPa 0,0 mm 5,5 km/h (1 Bft) NW 314 ° 0 min 0,000 mm 0,0 UV-I 53 W/m² -0,4 °C 8,0 km/h (2 Bft)
02.12.2016 14:41 3,8 °C 3,8 °C 74 % 1021,4 hPa 0,0 mm 2,5 km/h (1 Bft) NW 314 ° 0 min 0,000 mm 0,0 UV-I 54 W/m² -0,4 °C 4,8 km/h (1 Bft)
02.12.2016 14:42 3,7 °C 3,8 °C 74 % 1021,4 hPa 0,0 mm 2,9 km/h (1 Bft) NW 312 ° 0 min 0,000 mm 0,5 UV-I 60 W/m² -0,5 °C 3,2 km/h (1 Bft)
02.12.2016 14:43 3,7 °C 3,7 °C 74 % 1021,4 hPa 0,0 mm 6,0 km/h (2 Bft) W 272 ° 0 min 0,000 mm 0,5 UV-I 69 W/m² -0,5 °C 11,3 km/h (2 Bft)
02.12.2016 14:44 3,7 °C 3,7 °C 74 % 1021,4 hPa 0,0 mm 5,6 km/h (1 Bft) W-NW 297 ° 0 min 0,000 mm 0,5 UV-I 72 W/m² -0,5 °C 8,0 km/h (2 Bft)
02.12.2016 14:45 3,7 °C 3,7 °C 75 % 1021,5 hPa 0,0 mm 3,5 km/h (1 Bft) N-NW 346 ° 0 min 0,000 mm 0,5 UV-I 74 W/m² -0,3 °C 4,8 km/h (1 Bft)
02.12.2016 14:46 3,7 °C 3,7 °C 75 % 1021,4 hPa 0,0 mm 3,5 km/h (1 Bft) W-NW 294 ° 0 min 0,000 mm 0,5 UV-I 74 W/m² -0,3 °C 6,4 km/h (2 Bft)
02.12.2016 14:47 3,7 °C 3,7 °C 75 % 1021,5 hPa 0,0 mm 6,0 km/h (2 Bft) NW 307 ° 0 min 0,000 mm 0,5 UV-I 74 W/m² -0,3 °C 9,7 km/h (2 Bft)
02.12.2016 14:48 3,7 °C 3,7 °C 75 % 1021,4 hPa 0,0 mm 3,4 km/h (1 Bft) W-NW 302 ° 0 min 0,000 mm 0,0 UV-I 72 W/m² -0,3 °C 6,4 km/h (2 Bft)
02.12.2016 14:49 3,7 °C 3,8 °C 75 % 1021,4 hPa 0,0 mm 5,2 km/h (1 Bft) NW 304 ° 0 min 0,000 mm 0,0 UV-I 72 W/m² -0,3 °C 8,0 km/h (2 Bft)
02.12.2016 14:50 3,8 °C 3,8 °C 75 % 1021,4 hPa 0,0 mm 3,8 km/h (1 Bft) NW 321 ° 0 min 0,000 mm 0,0 UV-I 70 W/m² -0,2 °C 6,4 km/h (2 Bft)
02.12.2016 14:51 3,8 °C 3,8 °C 75 % 1021,5 hPa 0,0 mm 3,1 km/h (1 Bft) NW 321 ° 0 min 0,000 mm 0,0 UV-I 69 W/m² -0,2 °C 6,4 km/h (2 Bft)
02.12.2016 14:52 3,8 °C 3,8 °C 75 % 1021,4 hPa 0,0 mm 5,1 km/h (1 Bft) N-NW 331 ° 0 min 0,000 mm 0,0 UV-I 69 W/m² -0,2 °C 6,4 km/h (2 Bft)
02.12.2016 14:53 3,8 °C 3,8 °C 75 % 1021,4 hPa 0,0 mm 3,7 km/h (1 Bft) N-NW 337 ° 0 min 0,000 mm 0,0 UV-I 69 W/m² -0,2 °C 6,4 km/h (2 Bft)
02.12.2016 14:54 3,8 °C 3,8 °C 75 % 1021,4 hPa 0,0 mm 4,1 km/h (1 Bft) N 360 ° 0 min 0,000 mm 0,0 UV-I 70 W/m² -0,2 °C 8,0 km/h (2 Bft)
02.12.2016 14:55 3,8 °C 3,8 °C 75 % 1021,4 hPa 0,0 mm 0,7 km/h (0 Bft) N 360 ° 0 min 0,000 mm 0,0 UV-I 76 W/m² -0,2 °C 1,6 km/h (1 Bft)
02.12.2016 14:56 3,8 °C 3,8 °C 75 % 1021,4 hPa 0,0 mm 2,1 km/h (1 Bft) N 360 ° 0 min 0,000 mm 0,0 UV-I 76 W/m² -0,2 °C 3,2 km/h (1 Bft)
02.12.2016 14:57 3,8 °C 3,8 °C 75 % 1021,4 hPa 0,0 mm 1,7 km/h (1 Bft) N 360 ° 0 min 0,000 mm 0,0 UV-I 77 W/m² -0,2 °C 3,2 km/h (1 Bft)
02.12.2016 14:58 3,8 °C 3,8 °C 75 % 1021,4 hPa 0,0 mm 3,2 km/h (1 Bft) N 360 ° 0 min 0,000 mm 0,0 UV-I 77 W/m² -0,2 °C 4,8 km/h (1 Bft)
02.12.2016 14:59 3,8 °C 3,8 °C 76 % 1021,4 hPa 0,0 mm 3,1 km/h (1 Bft) N 355 ° 0 min 0,000 mm 0,0 UV-I 77 W/m² -0,0 °C 4,8 km/h (1 Bft)
02.12.2016 15:00 3,8 °C 3,8 °C 76 % 1021,4 hPa 0,0 mm 2,8 km/h (1 Bft) W-NW 298 ° 0 min 0,000 mm 0,0 UV-I 76 W/m² -0,0 °C 4,8 km/h (1 Bft)
02.12.2016 15:01 3,8 °C 3,8 °C 75 % 1021,5 hPa 0,0 mm 3,2 km/h (1 Bft) NW 323 ° 0 min 0,051 mm 0,0 UV-I 72 W/m² -0,2 °C 4,8 km/h (1 Bft)
02.12.2016 15:02 3,8 °C 3,8 °C 75 % 1021,4 hPa 0,0 mm 1,5 km/h (1 Bft) NW 323 ° 0 min 0,000 mm 0,0 UV-I 72 W/m² -0,2 °C 3,2 km/h (1 Bft)
02.12.2016 15:03 3,8 °C 3,8 °C 75 % 1021,4 hPa 0,0 mm 3,4 km/h (1 Bft) N-NW 328 ° 0 min 0,000 mm 0,0 UV-I 70 W/m² -0,2 °C 8,0 km/h (2 Bft)
02.12.2016 15:04 3,8 °C 3,8 °C 76 % 1021,4 hPa 0,0 mm 4,0 km/h (1 Bft) NW 319 ° 0 min 0,000 mm 0,0 UV-I 67 W/m² -0,0 °C 6,4 km/h (2 Bft)
02.12.2016 15:05 3,8 °C 3,8 °C 76 % 1021,5 hPa 0,0 mm 2,4 km/h (1 Bft) N-NW 338 ° 0 min 0,000 mm 0,0 UV-I 63 W/m² -0,0 °C 4,8 km/h (1 Bft)
02.12.2016 15:06 3,8 °C 3,8 °C 76 % 1021,5 hPa 0,0 mm 3,5 km/h (1 Bft) N-NW 339 ° 0 min 0,000 mm 0,0 UV-I 60 W/m² -0,0 °C 4,8 km/h (1 Bft)
02.12.2016 15:07 3,8 °C 3,8 °C 76 % 1021,4 hPa 0,0 mm 6,2 km/h (2 Bft) N-NW 329 ° 0 min 0,000 mm 0,0 UV-I 51 W/m² -0,0 °C 9,7 km/h (2 Bft)
02.12.2016 15:08 3,8 °C 3,8 °C 75 % 1021,4 hPa 0,0 mm 5,5 km/h (1 Bft) N-NW 344 ° 0 min 0,000 mm 0,0 UV-I 49 W/m² -0,2 °C 8,0 km/h (2 Bft)
02.12.2016 15:09 3,8 °C 3,8 °C 75 % 1021,4 hPa 0,0 mm 6,4 km/h (2 Bft) N-NO 14 ° 0 min 0,000 mm 0,0 UV-I 47 W/m² -0,2 °C 9,7 km/h (2 Bft)
02.12.2016 15:10 3,8 °C 3,8 °C 75 % 1021,4 hPa 0,0 mm 6,6 km/h (2 Bft) N-NO 22 ° 0 min 0,000 mm 0,0 UV-I 46 W/m² -0,2 °C 8,0 km/h (2 Bft)
02.12.2016 15:11 3,7 °C 3,8 °C 75 % 1021,4 hPa 0,0 mm 3,6 km/h (1 Bft) N 5 ° 0 min 0,000 mm 0,0 UV-I 44 W/m² -0,3 °C 6,4 km/h (2 Bft)
02.12.2016 15:12 3,7 °C 3,8 °C 75 % 1021,4 hPa 0,0 mm 2,3 km/h (1 Bft) N 5 ° 0 min 0,000 mm 0,0 UV-I 42 W/m² -0,3 °C 4,8 km/h (1 Bft)
02.12.2016 15:13 3,7 °C 3,7 °C 75 % 1021,5 hPa 0,0 mm 0,7 km/h (0 Bft) N 5 ° 0 min 0,000 mm 0,0 UV-I 40 W/m² -0,3 °C 1,6 km/h (1 Bft)
02.12.2016 15:14 3,7 °C 3,7 °C 75 % 1021,5 hPa 0,0 mm 1,5 km/h (1 Bft) N 5 ° 0 min 0,000 mm 0,0 UV-I 39 W/m² -0,3 °C 3,2 km/h (1 Bft)
02.12.2016 15:15 3,7 °C 3,7 °C 76 % 1021,5 hPa 0,0 mm 0,8 km/h (0 Bft) N 5 ° 0 min 0,000 mm 0,0 UV-I 37 W/m² -0,1 °C 3,2 km/h (1 Bft)
02.12.2016 15:16 3,7 °C 3,7 °C 75 % 1021,4 hPa 0,0 mm 0,6 km/h (0 Bft) N 5 ° 0 min 0,000 mm 0,0 UV-I 37 W/m² -0,3 °C 1,6 km/h (1 Bft)
02.12.2016 15:17 3,7 °C 3,7 °C 76 % 1021,4 hPa 0,0 mm 2,6 km/h (1 Bft) N-NW 336 ° 0 min 0,000 mm 0,0 UV-I 35 W/m² -0,1 °C 4,8 km/h (1 Bft)
02.12.2016 15:18 3,6 °C 3,7 °C 76 % 1021,4 hPa 0,0 mm 3,6 km/h (1 Bft) NW 319 ° 0 min 0,000 mm 0,0 UV-I 35 W/m² -0,2 °C 4,8 km/h (1 Bft)
02.12.2016 15:19 3,6 °C 3,6 °C 76 % 1021,4 hPa 0,0 mm 2,3 km/h (1 Bft) NW 319 ° 0 min 0,000 mm 0,0 UV-I 35 W/m² -0,2 °C 3,2 km/h (1 Bft)
02.12.2016 15:20 3,6 °C 3,6 °C 76 % 1021,4 hPa 0,0 mm 1,3 km/h (1 Bft) NW 319 ° 0 min 0,000 mm 0,0 UV-I 33 W/m² -0,2 °C 1,6 km/h (1 Bft)
02.12.2016 15:21 3,6 °C 3,6 °C 76 % 1021,4 hPa 0,0 mm 0,3 km/h (0 Bft) NW 319 ° 0 min 0,000 mm 0,0 UV-I 33 W/m² -0,2 °C 1,6 km/h (1 Bft)
02.12.2016 15:22 3,6 °C 3,6 °C 76 % 1021,4 hPa 0,0 mm 2,4 km/h (1 Bft) N-NW 344 ° 0 min 0,000 mm 0,0 UV-I 32 W/m² -0,2 °C 4,8 km/h (1 Bft)
02.12.2016 15:23 3,6 °C 3,6 °C 76 % 1021,3 hPa 0,0 mm 3,0 km/h (1 Bft) N 355 ° 0 min 0,000 mm 0,0 UV-I 32 W/m² -0,2 °C 4,8 km/h (1 Bft)
02.12.2016 15:24 3,5 °C 3,6 °C 76 % 1021,3 hPa 0,0 mm 1,3 km/h (1 Bft) N 355 ° 0 min 0,000 mm 0,0 UV-I 30 W/m² -0,3 °C 3,2 km/h (1 Bft)
02.12.2016 15:25 3,6 °C 3,6 °C 76 % 1021,4 hPa 0,0 mm 2,1 km/h (1 Bft) N 355 ° 0 min 0,000 mm 0,0 UV-I 28 W/m² -0,2 °C 3,2 km/h (1 Bft)
02.12.2016 15:26 3,5 °C 3,6 °C 76 % 1021,4 hPa 0,0 mm 1,2 km/h (1 Bft) N 355 ° 0 min 0,000 mm 0,0 UV-I 26 W/m² -0,3 °C 3,2 km/h (1 Bft)
02.12.2016 15:27 3,6 °C 3,6 °C 75 % 1021,3 hPa 0,0 mm 0,7 km/h (0 Bft) N-NW 345 ° 0 min 0,000 mm 0,0 UV-I 26 W/m² -0,4 °C 3,2 km/h (1 Bft)
02.12.2016 15:28 3,6 °C 3,6 °C 75 % 1021,4 hPa 0,0 mm 1,9 km/h (1 Bft) N-NW 345 ° 0 min 0,000 mm 0,0 UV-I 25 W/m² -0,4 °C 3,2 km/h (1 Bft)
02.12.2016 15:29 3,6 °C 3,6 °C 75 % 1021,4 hPa 0,0 mm 0,4 km/h (0 Bft) N-NW 345 ° 0 min 0,000 mm 0,0 UV-I 23 W/m² -0,4 °C 1,6 km/h (1 Bft)
02.12.2016 15:30 3,5 °C 3,6 °C 75 % 1021,3 hPa 0,0 mm 0,7 km/h (0 Bft) N-NW 345 ° 0 min 0,000 mm 0,0 UV-I 23 W/m² -0,5 °C 1,6 km/h (1 Bft)
02.12.2016 15:31 3,6 °C 3,6 °C 75 % 1021,3 hPa 0,0 mm 0,4 km/h (0 Bft) N-NW 345 ° 0 min 0,000 mm 0,0 UV-I 21 W/m² -0,4 °C 1,6 km/h (1 Bft)
02.12.2016 15:32 3,5 °C 3,6 °C 75 % 1021,4 hPa 0,0 mm 0,3 km/h (0 Bft) N-NW 345 ° 0 min 0,000 mm 0,0 UV-I 21 W/m² -0,5 °C 1,6 km/h (1 Bft)
02.12.2016 15:33 3,6 °C 3,6 °C 75 % 1021,3 hPa 0,0 mm 0,3 km/h (0 Bft) N-NW 345 ° 0 min 0,000 mm 0,0 UV-I 19 W/m² -0,4 °C 1,6 km/h (1 Bft)
02.12.2016 15:34 3,5 °C 3,6 °C 75 % 1021,3 hPa 0,0 mm 2,1 km/h (1 Bft) N-NW 345 ° 0 min 0,000 mm 0,0 UV-I 19 W/m² -0,5 °C 3,2 km/h (1 Bft)
02.12.2016 15:35 3,5 °C 3,6 °C 75 % 1021,3 hPa 0,0 mm 2,0 km/h (1 Bft) N-NW 344 ° 0 min 0,000 mm 0,0 UV-I 19 W/m² -0,5 °C 3,2 km/h (1 Bft)
02.12.2016 15:36 3,5 °C 3,5 °C 75 % 1021,4 hPa 0,0 mm 2,9 km/h (1 Bft) W-NW 291 ° 0 min 0,000 mm 0,0 UV-I 19 W/m² -0,5 °C 4,8 km/h (1 Bft)
02.12.2016 15:37 3,5 °C 3,5 °C 75 % 1021,4 hPa 0,0 mm 3,2 km/h (1 Bft) W-NW 291 ° 0 min 0,000 mm 0,0 UV-I 19 W/m² -0,5 °C 4,8 km/h (1 Bft)
02.12.2016 15:38 3,4 °C 3,5 °C 75 % 1021,4 hPa 0,0 mm 3,2 km/h (1 Bft) W 276 ° 0 min 0,000 mm 0,0 UV-I 19 W/m² -0,6 °C 4,8 km/h (1 Bft)
02.12.2016 15:39 3,4 °C 3,4 °C 76 % 1021,4 hPa 0,0 mm 2,5 km/h (1 Bft) W 276 ° 0 min 0,000 mm 0,0 UV-I 19 W/m² -0,4 °C 3,2 km/h (1 Bft)
02.12.2016 15:40 3,4 °C 3,4 °C 76 % 1021,4 hPa 0,0 mm 3,0 km/h (1 Bft) W 276 ° 0 min 0,000 mm 0,0 UV-I 19 W/m² -0,4 °C 4,8 km/h (1 Bft)
02.12.2016 15:41 3,4 °C 3,4 °C 76 % 1021,4 hPa 0,0 mm 2,4 km/h (1 Bft) W 276 ° 0 min 0,000 mm 0,0 UV-I 19 W/m² -0,4 °C 3,2 km/h (1 Bft)
02.12.2016 15:42 3,3 °C 3,4 °C 76 % 1021,4 hPa 0,0 mm 3,1 km/h (1 Bft) W 269 ° 0 min 0,000 mm 0,0 UV-I 19 W/m² -0,5 °C 3,2 km/h (1 Bft)
02.12.2016 15:43 3,3 °C 3,3 °C 76 % 1021,5 hPa 0,0 mm 3,1 km/h (1 Bft) W 268 ° 0 min 0,000 mm 0,0 UV-I 18 W/m² -0,5 °C 4,8 km/h (1 Bft)
02.12.2016 15:44 3,3 °C 3,3 °C 76 % 1021,5 hPa 0,0 mm 2,7 km/h (1 Bft) W-SW 257 ° 0 min 0,000 mm 0,0 UV-I 18 W/m² -0,5 °C 3,2 km/h (1 Bft)
02.12.2016 15:45 3,3 °C 3,3 °C 76 % 1021,5 hPa 0,0 mm 1,5 km/h (1 Bft) W-SW 257 ° 0 min 0,000 mm 0,0 UV-I 18 W/m² -0,5 °C 3,2 km/h (1 Bft)
02.12.2016 15:46 3,2 °C 3,3 °C 76 % 1021,5 hPa 0,0 mm 1,8 km/h (1 Bft) W-SW 257 ° 0 min 0,000 mm 0,0 UV-I 18 W/m² -0,6 °C 3,2 km/h (1 Bft)
02.12.2016 15:47 3,2 °C 3,2 °C 76 % 1021,4 hPa 0,0 mm 1,0 km/h (0 Bft) W-SW 257 ° 0 min 0,000 mm 0,0 UV-I 18 W/m² -0,6 °C 1,6 km/h (1 Bft)
02.12.2016 15:48 3,2 °C 3,2 °C 76 % 1021,5 hPa 0,0 mm 1,8 km/h (1 Bft) W-SW 257 ° 0 min 0,000 mm 0,0 UV-I 18 W/m² -0,6 °C 3,2 km/h (1 Bft)
02.12.2016 15:49 3,1 °C 3,2 °C 77 % 1021,5 hPa 0,0 mm 0,9 km/h (0 Bft) W-SW 257 ° 0 min 0,000 mm 0,0 UV-I 18 W/m² -0,5 °C 1,6 km/h (1 Bft)
02.12.2016 15:50 3,1 °C 3,1 °C 76 % 1021,5 hPa 0,0 mm 1,5 km/h (1 Bft) W-SW 257 ° 0 min 0,000 mm 0,0 UV-I 18 W/m² -0,7 °C 3,2 km/h (1 Bft)
02.12.2016 15:51 3,1 °C 3,1 °C 77 % 1021,5 hPa 0,0 mm 1,3 km/h (1 Bft) W-SW 257 ° 0 min 0,000 mm 0,0 UV-I 18 W/m² -0,5 °C 1,6 km/h (1 Bft)
02.12.2016 15:52 3,0 °C 3,1 °C 77 % 1021,5 hPa 0,0 mm 0,3 km/h (0 Bft) W-SW 257 ° 0 min 0,000 mm 0,0 UV-I 19 W/m² -0,6 °C 1,6 km/h (1 Bft)
02.12.2016 15:53 3,0 °C 3,0 °C 77 % 1021,5 hPa 0,0 mm 0,3 km/h (0 Bft) W-SW 257 ° 0 min 0,000 mm 0,0 UV-I 21 W/m² -0,6 °C 1,6 km/h (1 Bft)
02.12.2016 15:54 2,9 °C 3,0 °C 77 % 1021,5 hPa 0,0 mm 0,5 km/h (0 Bft) W-SW 257 ° 0 min 0,000 mm 0,0 UV-I 21 W/m² -0,7 °C 1,6 km/h (1 Bft)
02.12.2016 15:55 2,9 °C 2,9 °C 77 % 1021,4 hPa 0,0 mm 0,0 km/h (0 Bft) W-SW 257 ° 0 min 0,000 mm 0,0 UV-I 21 W/m² -0,7 °C 0,0 km/h (0 Bft)
02.12.2016 15:56 2,9 °C 2,9 °C 77 % 1021,5 hPa 0,0 mm 1,4 km/h (1 Bft) W-SW 257 ° 0 min 0,000 mm 0,0 UV-I 21 W/m² -0,7 °C 3,2 km/h (1 Bft)
02.12.2016 15:57 2,9 °C 2,9 °C 77 % 1021,4 hPa 0,0 mm 0,9 km/h (0 Bft) W-SW 257 ° 0 min 0,000 mm 0,0 UV-I 21 W/m² -0,7 °C 1,6 km/h (1 Bft)
02.12.2016 15:58 2,9 °C 2,9 °C 77 % 1021,5 hPa 0,0 mm 0,5 km/h (0 Bft) W-SW 257 ° 0 min 0,000 mm 0,0 UV-I 21 W/m² -0,7 °C 1,6 km/h (1 Bft)
02.12.2016 15:59 2,8 °C 2,9 °C 77 % 1021,5 hPa 0,0 mm 0,7 km/h (0 Bft) W-SW 257 ° 0 min 0,000 mm 0,0 UV-I 21 W/m² -0,8 °C 1,6 km/h (1 Bft)
02.12.2016 16:00 2,8 °C 2,8 °C 78 % 1021,5 hPa 0,0 mm 1,5 km/h (1 Bft) W-SW 257 ° 0 min 0,025 mm 0,0 UV-I 19 W/m² -0,6 °C 3,2 km/h (1 Bft)
02.12.2016 16:01 2,8 °C 2,8 °C 78 % 1021,5 hPa 0,0 mm 0,1 km/h (0 Bft) W-SW 257 ° 0 min 0,000 mm 0,0 UV-I 19 W/m² -0,6 °C 1,6 km/h (1 Bft)
02.12.2016 16:02 2,8 °C 2,8 °C 78 % 1021,5 hPa 0,0 mm 0,3 km/h (0 Bft) W-SW 257 ° 0 min 0,000 mm 0,0 UV-I 18 W/m² -0,6 °C 1,6 km/h (1 Bft)
02.12.2016 16:03 2,8 °C 2,8 °C 78 % 1021,4 hPa 0,0 mm 0,0 km/h (0 Bft) W-SW 257 ° 0 min 0,000 mm 0,0 UV-I 18 W/m² -0,6 °C 0,0 km/h (0 Bft)
02.12.2016 16:04 2,7 °C 2,8 °C 78 % 1021,5 hPa 0,0 mm 0,0 km/h (0 Bft) W-SW 257 ° 0 min 0,000 mm 0,0 UV-I 16 W/m² -0,7 °C 0,0 km/h (0 Bft)
02.12.2016 16:05 2,7 °C 2,7 °C 78 % 1021,5 hPa 0,0 mm 0,2 km/h (0 Bft) W-SW 257 ° 0 min 0,000 mm 0,0 UV-I 14 W/m² -0,7 °C 1,6 km/h (1 Bft)
02.12.2016 16:06 2,7 °C 2,7 °C 78 % 1021,5 hPa 0,0 mm 0,8 km/h (0 Bft) W-SW 257 ° 0 min 0,000 mm 0,0 UV-I 12 W/m² -0,7 °C 1,6 km/h (1 Bft)
02.12.2016 16:07 2,7 °C 2,7 °C 78 % 1021,5 hPa 0,0 mm 0,3 km/h (0 Bft) W-SW 257 ° 0 min 0,000 mm 0,0 UV-I 12 W/m² -0,7 °C 1,6 km/h (1 Bft)
02.12.2016 16:08 2,6 °C 2,7 °C 78 % 1021,6 hPa 0,0 mm 0,9 km/h (0 Bft) W-SW 257 ° 0 min 0,000 mm 0,0 UV-I 11 W/m² -0,8 °C 1,6 km/h (1 Bft)
02.12.2016 16:09 2,6 °C 2,7 °C 78 % 1021,5 hPa 0,0 mm 0,4 km/h (0 Bft) W-SW 257 ° 0 min 0,000 mm 0,0 UV-I 11 W/m² -0,8 °C 1,6 km/h (1 Bft)
02.12.2016 16:10 2,6 °C 2,6 °C 78 % 1021,6 hPa 0,0 mm 0,1 km/h (0 Bft) W-SW 257 ° 0 min 0,000 mm 0,0 UV-I 11 W/m² -0,8 °C 1,6 km/h (1 Bft)
02.12.2016 16:11 2,6 °C 2,6 °C 79 % 1021,5 hPa 0,0 mm 0,0 km/h (0 Bft) W-SW 257 ° 0 min 0,000 mm 0,0 UV-I 9 W/m² -0,7 °C 0,0 km/h (0 Bft)
02.12.2016 16:12 2,6 °C 2,6 °C 79 % 1021,5 hPa 0,0 mm 0,0 km/h (0 Bft) W-SW 257 ° 0 min 0,000 mm 0,0 UV-I 9 W/m² -0,7 °C 0,0 km/h (0 Bft)
02.12.2016 16:13 2,5 °C 2,6 °C 79 % 1021,6 hPa 0,0 mm 0,0 km/h (0 Bft) W-SW 257 ° 0 min 0,000 mm 0,0 UV-I 9 W/m² -0,8 °C 0,0 km/h (0 Bft)
02.12.2016 16:14 2,4 °C 2,5 °C 79 % 1021,6 hPa 0,0 mm 0,5 km/h (0 Bft) W-SW 257 ° 0 min 0,000 mm 0,0 UV-I 9 W/m² -0,9 °C 1,6 km/h (1 Bft)
02.12.2016 16:15 2,4 °C 2,5 °C 79 % 1021,6 hPa 0,0 mm 1,7 km/h (1 Bft) W-SW 257 ° 0 min 0,000 mm 0,0 UV-I 9 W/m² -0,9 °C 3,2 km/h (1 Bft)
02.12.2016 16:16 2,4 °C 2,4 °C 79 % 1021,6 hPa 0,0 mm 1,2 km/h (1 Bft) W-SW 257 ° 0 min 0,000 mm 0,0 UV-I 9 W/m² -0,9 °C 1,6 km/h (1 Bft)
02.12.2016 16:17 2,4 °C 2,4 °C 79 % 1021,6 hPa 0,0 mm 0,8 km/h (0 Bft) W-SW 257 ° 0 min 0,000 mm 0,0 UV-I 7 W/m² -0,9 °C 1,6 km/h (1 Bft)
02.12.2016 16:18 2,3 °C 2,4 °C 80 % 1021,7 hPa 0,0 mm 1,0 km/h (0 Bft) W-SW 257 ° 0 min 0,000 mm 0,0 UV-I 7 W/m² -0,8 °C 1,6 km/h (1 Bft)
02.12.2016 16:19 2,3 °C 2,4 °C 80 % 1021,7 hPa 0,0 mm 0,9 km/h (0 Bft) W-SW 257 ° 0 min 0,000 mm 0,0 UV-I 7 W/m² -0,8 °C 1,6 km/h (1 Bft)
02.12.2016 16:20 2,4 °C 2,4 °C 80 % 1021,7 hPa 0,0 mm 1,5 km/h (1 Bft) W-SW 257 ° 0 min 0,000 mm 0,0 UV-I 7 W/m² -0,7 °C 1,6 km/h (1 Bft)
02.12.2016 16:21 2,3 °C 2,4 °C 80 % 1021,7 hPa 0,0 mm 0,6 km/h (0 Bft) W-SW 257 ° 0 min 0,000 mm 0,0 UV-I 7 W/m² -0,8 °C 1,6 km/h (1 Bft)
02.12.2016 16:22 2,3 °C 2,3 °C 80 % 1021,7 hPa 0,0 mm 1,2 km/h (1 Bft) W-SW 257 ° 0 min 0,000 mm 0,0 UV-I 7 W/m² -0,8 °C 1,6 km/h (1 Bft)
02.12.2016 16:23 2,3 °C 2,3 °C 80 % 1021,7 hPa 0,0 mm 1,1 km/h (1 Bft) W-SW 257 ° 0 min 0,000 mm 0,0 UV-I 5 W/m² -0,8 °C 1,6 km/h (1 Bft)
02.12.2016 16:24 2,3 °C 2,3 °C 80 % 1021,7 hPa 0,0 mm 0,7 km/h (0 Bft) W-SW 257 ° 0 min 0,000 mm 0,0 UV-I 5 W/m² -0,8 °C 1,6 km/h (1 Bft)
02.12.2016 16:25 2,3 °C 2,3 °C 80 % 1021,7 hPa 0,0 mm 0,3 km/h (0 Bft) W-SW 257 ° 0 min 0,000 mm 0,0 UV-I 5 W/m² -0,8 °C 1,6 km/h (1 Bft)
02.12.2016 16:26 2,3 °C 2,3 °C 80 % 1021,7 hPa 0,0 mm 0,0 km/h (0 Bft) W-SW 257 ° 0 min 0,000 mm 0,0 UV-I 5 W/m² -0,8 °C 0,0 km/h (0 Bft)
02.12.2016 16:27 2,3 °C 2,3 °C 80 % 1021,7 hPa 0,0 mm 0,0 km/h (0 Bft) W-SW 257 ° 0 min 0,000 mm 0,0 UV-I 0 W/m² -0,8 °C 0,0 km/h (0 Bft)
02.12.2016 16:28 2,3 °C 2,3 °C 80 % 1021,7 hPa 0,0 mm 0,0 km/h (0 Bft) W-SW 257 ° 0 min 0,000 mm 0,0 UV-I 0 W/m² -0,8 °C 0,0 km/h (0 Bft)
02.12.2016 16:29 2,3 °C 2,3 °C 80 % 1021,6 hPa 0,0 mm 0,0 km/h (0 Bft) W-SW 257 ° 0 min 0,000 mm 0,0 UV-I 0 W/m² -0,8 °C 0,0 km/h (0 Bft)
02.12.2016 16:30 2,3 °C 2,3 °C 80 % 1021,6 hPa 0,0 mm 0,0 km/h (0 Bft) W-SW 257 ° 0 min 0,000 mm 0,0 UV-I 0 W/m² -0,8 °C 0,0 km/h (0 Bft)
02.12.2016 16:31 2,2 °C 2,3 °C 80 % 1021,7 hPa 0,0 mm 0,0 km/h (0 Bft) W-SW 257 ° 0 min 0,000 mm 0,0 UV-I 0 W/m² -0,9 °C 0,0 km/h (0 Bft)
02.12.2016 16:32 2,2 °C 2,2 °C 80 % 1021,6 hPa 0,0 mm 0,9 km/h (0 Bft) W-SW 257 ° 0 min 0,000 mm 0,0 UV-I 0 W/m² -0,9 °C 1,6 km/h (1 Bft)
02.12.2016 16:33 2,2 °C 2,2 °C 80 % 1021,7 hPa 0,0 mm 1,1 km/h (1 Bft) W-SW 257 ° 0 min 0,000 mm 0,0 UV-I 0 W/m² -0,9 °C 1,6 km/h (1 Bft)
02.12.2016 16:34 2,2 °C 2,2 °C 80 % 1021,7 hPa 0,0 mm 1,8 km/h (1 Bft) W-SW 257 ° 0 min 0,000 mm 0,0 UV-I 0 W/m² -0,9 °C 3,2 km/h (1 Bft)
02.12.2016 16:35 2,2 °C 2,2 °C 80 % 1021,7 hPa 0,0 mm 2,3 km/h (1 Bft) W-SW 257 ° 0 min 0,000 mm 0,0 UV-I 0 W/m² -0,9 °C 3,2 km/h (1 Bft)
02.12.2016 16:36 2,1 °C 2,2 °C 80 % 1021,7 hPa 0,0 mm 2,0 km/h (1 Bft) W-SW 257 ° 0 min 0,000 mm 0,0 UV-I 0 W/m² -1,0 °C 3,2 km/h (1 Bft)
02.12.2016 16:37 2,1 °C 2,1 °C 80 % 1021,7 hPa 0,0 mm 2,2 km/h (1 Bft) W-SW 257 ° 0 min 0,000 mm 0,0 UV-I 0 W/m² -1,0 °C 3,2 km/h (1 Bft)
02.12.2016 16:38 2,1 °C 2,1 °C 81 % 1021,6 hPa 0,0 mm 0,6 km/h (0 Bft) SW 227 ° 0 min 0,000 mm 0,0 UV-I 0 W/m² -0,8 °C 1,6 km/h (1 Bft)
02.12.2016 16:39 2,1 °C 2,1 °C 81 % 1021,6 hPa 0,0 mm 0,9 km/h (0 Bft) SW 227 ° 0 min 0,000 mm 0,0 UV-I 0 W/m² -0,8 °C 1,6 km/h (1 Bft)
02.12.2016 16:40 2,1 °C 2,1 °C 81 % 1021,6 hPa 0,0 mm 1,1 km/h (1 Bft) SW 227 ° 0 min 0,000 mm 0,0 UV-I 0 W/m² -0,8 °C 3,2 km/h (1 Bft)
02.12.2016 16:41 2,1 °C 2,1 °C 80 % 1021,6 hPa 0,0 mm 0,7 km/h (0 Bft) SW 215 ° 0 min 0,000 mm 0,0 UV-I 0 W/m² -1,0 °C 3,2 km/h (1 Bft)
02.12.2016 16:42 2,0 °C 2,1 °C 80 % 1021,6 hPa 0,0 mm 0,1 km/h (0 Bft) SW 215 ° 0 min 0,000 mm 0,0 UV-I 0 W/m² -1,1 °C 1,6 km/h (1 Bft)
02.12.2016 16:43 2,0 °C 2,1 °C 80 % 1021,6 hPa 0,0 mm 2,5 km/h (1 Bft) S 190 ° 0 min 0,000 mm 0,0 UV-I 0 W/m² -1,1 °C 4,8 km/h (1 Bft)
02.12.2016 16:44 1,9 °C 2,0 °C 81 % 1021,6 hPa 0,0 mm 1,2 km/h (1 Bft) S 190 ° 0 min 0,000 mm 0,0 UV-I 0 W/m² -1,0 °C 3,2 km/h (1 Bft)
02.12.2016 16:45 1,9 °C 1,9 °C 81 % 1021,6 hPa 0,0 mm 1,7 km/h (1 Bft) S 190 ° 0 min 0,000 mm 0,0 UV-I 0 W/m² -1,0 °C 3,2 km/h (1 Bft)
02.12.2016 16:46 1,9 °C 1,9 °C 81 % 1021,6 hPa 0,0 mm 1,3 km/h (1 Bft) S 190 ° 0 min 0,000 mm 0,0 UV-I 0 W/m² -1,0 °C 3,2 km/h (1 Bft)
02.12.2016 16:47 1,9 °C 1,9 °C 80 % 1021,6 hPa 0,0 mm 0,5 km/h (0 Bft) S 190 ° 0 min 0,000 mm 0,0 UV-I 0 W/m² -1,2 °C 1,6 km/h (1 Bft)
02.12.2016 16:48 1,8 °C 1,9 °C 81 % 1021,6 hPa 0,0 mm 0,1 km/h (0 Bft) S 190 ° 0 min 0,000 mm 0,0 UV-I 0 W/m² -1,1 °C 1,6 km/h (1 Bft)
02.12.2016 16:49 1,8 °C 1,8 °C 80 % 1021,6 hPa 0,0 mm 0,9 km/h (0 Bft) S 190 ° 0 min 0,000 mm 0,0 UV-I 0 W/m² -1,3 °C 1,6 km/h (1 Bft)
02.12.2016 16:50 1,8 °C 1,8 °C 81 % 1021,6 hPa 0,0 mm 0,1 km/h (0 Bft) S 190 ° 0 min 0,000 mm 0,0 UV-I 0 W/m² -1,1 °C 1,6 km/h (1 Bft)
02.12.2016 16:51 1,8 °C 1,8 °C 81 % 1021,7 hPa 0,0 mm 0,0 km/h (0 Bft) S 190 ° 0 min 0,000 mm 0,0 UV-I 0 W/m² -1,1 °C 0,0 km/h (0 Bft)
02.12.2016 16:52 1,7 °C 1,8 °C 81 % 1021,6 hPa 0,0 mm 0,0 km/h (0 Bft) S 190 ° 0 min 0,000 mm 0,0 UV-I 0 W/m² -1,2 °C 0,0 km/h (0 Bft)
02.12.2016 16:53 1,7 °C 1,7 °C 81 % 1021,6 hPa 0,0 mm 0,0 km/h (0 Bft) S 190 ° 0 min 0,000 mm 0,0 UV-I 0 W/m² -1,2 °C 0,0 km/h (0 Bft)
02.12.2016 16:54 1,7 °C 1,7 °C 81 % 1021,7 hPa 0,0 mm 0,0 km/h (0 Bft) S 190 ° 0 min 0,000 mm 0,0 UV-I 0 W/m² -1,2 °C 0,0 km/h (0 Bft)
02.12.2016 16:55 1,7 °C 1,7 °C 82 % 1021,6 hPa 0,0 mm 0,8 km/h (0 Bft) S 190 ° 0 min 0,000 mm 0,0 UV-I 0 W/m² -1,0 °C 1,6 km/h (1 Bft)
02.12.2016 16:56 1,7 °C 1,7 °C 82 % 1021,7 hPa 0,0 mm 0,2 km/h (0 Bft) S 190 ° 0 min 0,000 mm 0,0 UV-I 0 W/m² -1,0 °C 1,6 km/h (1 Bft)
02.12.2016 16:57 1,6 °C 1,7 °C 82 % 1021,7 hPa 0,0 mm 0,0 km/h (0 Bft) S 190 ° 0 min 0,000 mm 0,0 UV-I 0 W/m² -1,1 °C 0,0 km/h (0 Bft)
02.12.2016 16:58 1,6 °C 1,6 °C 82 % 1021,7 hPa 0,0 mm 0,0 km/h (0 Bft) S 190 ° 0 min 0,000 mm 0,0 UV-I 0 W/m² -1,1 °C 0,0 km/h (0 Bft)
02.12.2016 16:59 1,6 °C 1,6 °C 82 % 1021,7 hPa 0,0 mm 0,0 km/h (0 Bft) S 190 ° 0 min 0,000 mm 0,0 UV-I 0 W/m² -1,1 °C 0,0 km/h (0 Bft)
02.12.2016 17:00 1,6 °C 1,6 °C 82 % 1021,8 hPa 0,0 mm 0,0 km/h (0 Bft) S 190 ° 0 min 0,000 mm 0,0 UV-I 0 W/m² -1,1 °C 0,0 km/h (0 Bft)
02.12.2016 17:01 1,5 °C 1,6 °C 83 % 1021,8 hPa 0,0 mm 0,0 km/h (0 Bft) S 190 ° 0 min 0,000 mm 0,0 UV-I 0 W/m² -1,1 °C 0,0 km/h (0 Bft)
02.12.2016 17:02 1,4 °C 1,5 °C 83 % 1021,8 hPa 0,0 mm 0,0 km/h (0 Bft) S 190 ° 0 min 0,000 mm 0,0 UV-I 0 W/m² -1,2 °C 0,0 km/h (0 Bft)
02.12.2016 17:03 1,4 °C 1,5 °C 83 % 1021,8 hPa 0,0 mm 0,1 km/h (0 Bft) S 190 ° 0 min 0,000 mm 0,0 UV-I 0 W/m² -1,2 °C 1,6 km/h (1 Bft)
02.12.2016 17:04 1,4 °C 1,4 °C 83 % 1021,8 hPa 0,0 mm 0,1 km/h (0 Bft) S 190 ° 0 min 0,000 mm 0,0 UV-I 0 W/m² -1,2 °C 1,6 km/h (1 Bft)
02.12.2016 17:05 1,4 °C 1,4 °C 83 % 1021,8 hPa 0,0 mm 0,0 km/h (0 Bft) S 190 ° 0 min 0,000 mm 0,0 UV-I 0 W/m² -1,2 °C 0,0 km/h (0 Bft)
02.12.2016 17:06 1,4 °C 1,4 °C 83 % 1021,8 hPa 0,0 mm 0,0 km/h (0 Bft) S 190 ° 0 min 0,000 mm 0,0 UV-I 0 W/m² -1,2 °C 0,0 km/h (0 Bft)
02.12.2016 17:07 1,3 °C 1,4 °C 83 % 1021,8 hPa 0,0 mm 0,0 km/h (0 Bft) S 190 ° 0 min 0,000 mm 0,0 UV-I 0 W/m² -1,3 °C 0,0 km/h (0 Bft)
02.12.2016 17:08 1,3 °C 1,4 °C 83 % 1021,8 hPa 0,0 mm 0,0 km/h (0 Bft) S 190 ° 0 min 0,000 mm 0,0 UV-I 0 W/m² -1,3 °C 0,0 km/h (0 Bft)
02.12.2016 17:09 1,3 °C 1,3 °C 83 % 1021,8 hPa 0,0 mm 0,0 km/h (0 Bft) S 190 ° 0 min 0,000 mm 0,0 UV-I 0 W/m² -1,3 °C 0,0 km/h (0 Bft)
02.12.2016 17:10 1,3 °C 1,3 °C 83 % 1021,8 hPa 0,0 mm 0,0 km/h (0 Bft) S 190 ° 0 min 0,000 mm 0,0 UV-I 0 W/m² -1,3 °C 0,0 km/h (0 Bft)
02.12.2016 17:11 1,3 °C 1,3 °C 83 % 1021,8 hPa 0,0 mm 0,0 km/h (0 Bft) S 190 ° 0 min 0,000 mm 0,0 UV-I 0 W/m² -1,3 °C 0,0 km/h (0 Bft)
02.12.2016 17:12 1,3 °C 1,3 °C 83 % 1021,9 hPa 0,0 mm 0,0 km/h (0 Bft) S 190 ° 0 min 0,000 mm 0,0 UV-I 0 W/m² -1,3 °C 0,0 km/h (0 Bft)
02.12.2016 17:13 1,3 °C 1,3 °C 82 % 1021,8 hPa 0,0 mm 0,0 km/h (0 Bft) S 190 ° 0 min 0,000 mm 0,0 UV-I 0 W/m² -1,4 °C 0,0 km/h (0 Bft)
02.12.2016 17:14 1,3 °C 1,3 °C 82 % 1021,8 hPa 0,0 mm 0,0 km/h (0 Bft) S 190 ° 0 min 0,000 mm 0,0 UV-I 0 W/m² -1,4 °C 0,0 km/h (0 Bft)
02.12.2016 17:15 1,3 °C 1,3 °C 83 % 1021,9 hPa 0,0 mm 0,0 km/h (0 Bft) S 190 ° 0 min 0,000 mm 0,0 UV-I 0 W/m² -1,3 °C 0,0 km/h (0 Bft)
02.12.2016 17:16 1,3 °C 1,3 °C 83 % 1021,9 hPa 0,0 mm 0,0 km/h (0 Bft) S 190 ° 0 min 0,000 mm 0,0 UV-I 0 W/m² -1,3 °C 0,0 km/h (0 Bft)
02.12.2016 17:17 1,3 °C 1,3 °C 83 % 1021,9 hPa 0,0 mm 0,0 km/h (0 Bft) S 190 ° 0 min 0,000 mm 0,0 UV-I 0 W/m² -1,3 °C 0,0 km/h (0 Bft)
02.12.2016 17:18 1,3 °C 1,3 °C 83 % 1021,9 hPa 0,0 mm 0,0 km/h (0 Bft) S 190 ° 0 min 0,000 mm 0,0 UV-I 0 W/m² -1,3 °C 0,0 km/h (0 Bft)
02.12.2016 17:19 1,2 °C 1,3 °C 83 % 1021,9 hPa 0,0 mm 0,0 km/h (0 Bft) S 190 ° 0 min 0,000 mm 0,0 UV-I 0 W/m² -1,4 °C 0,0 km/h (0 Bft)
02.12.2016 17:20 1,2 °C 1,2 °C 83 % 1021,8 hPa 0,0 mm 0,0 km/h (0 Bft) S 190 ° 0 min 0,000 mm 0,0 UV-I 0 W/m² -1,4 °C 0,0 km/h (0 Bft)
02.12.2016 17:21 1,2 °C 1,2 °C 83 % 1021,9 hPa 0,0 mm 0,0 km/h (0 Bft) S 190 ° 0 min 0,000 mm 0,0 UV-I 0 W/m² -1,4 °C 0,0 km/h (0 Bft)
02.12.2016 17:22 1,2 °C 1,2 °C 84 % 1021,9 hPa 0,0 mm 0,3 km/h (0 Bft) S 190 ° 0 min 0,000 mm 0,0 UV-I 0 W/m² -1,2 °C 1,6 km/h (1 Bft)
02.12.2016 17:23 1,2 °C 1,2 °C 84 % 1021,9 hPa 0,0 mm 1,3 km/h (1 Bft) S 190 ° 0 min 0,000 mm 0,0 UV-I 0 W/m² -1,2 °C 1,6 km/h (1 Bft)
02.12.2016 17:24 1,2 °C 1,2 °C 84 % 1021,9 hPa 0,0 mm 1,4 km/h (1 Bft) S 190 ° 0 min 0,000 mm 0,0 UV-I 0 W/m² -1,2 °C 3,2 km/h (1 Bft)
02.12.2016 17:25 1,2 °C 1,2 °C 84 % 1021,9 hPa 0,0 mm 0,2 km/h (0 Bft) S 190 ° 0 min 0,000 mm 0,0 UV-I 0 W/m² -1,2 °C 1,6 km/h (1 Bft)
02.12.2016 17:26 1,2 °C 1,2 °C 84 % 1021,9 hPa 0,0 mm 0,2 km/h (0 Bft) S 190 ° 0 min 0,000 mm 0,0 UV-I 0 W/m² -1,2 °C 1,6 km/h (1 Bft)
02.12.2016 17:27 1,1 °C 1,2 °C 84 % 1021,9 hPa 0,0 mm 0,0 km/h (0 Bft) S 190 ° 0 min 0,000 mm 0,0 UV-I 0 W/m² -1,3 °C 0,0 km/h (0 Bft)
02.12.2016 17:28 1,1 °C 1,2 °C 85 % 1021,9 hPa 0,0 mm 0,0 km/h (0 Bft) S 190 ° 0 min 0,000 mm 0,0 UV-I 0 W/m² -1,1 °C 0,0 km/h (0 Bft)
02.12.2016 17:29 1,1 °C 1,2 °C 85 % 1022,0 hPa 0,0 mm 0,0 km/h (0 Bft) S 190 ° 0 min 0,000 mm 0,0 UV-I 0 W/m² -1,1 °C 0,0 km/h (0 Bft)
02.12.2016 17:30 1,1 °C 1,1 °C 85 % 1022,0 hPa 0,0 mm 0,0 km/h (0 Bft) S 190 ° 0 min 0,000 mm 0,0 UV-I 0 W/m² -1,1 °C 0,0 km/h (0 Bft)
02.12.2016 17:31 1,1 °C 1,1 °C 85 % 1022,0 hPa 0,0 mm 0,0 km/h (0 Bft) S 190 ° 0 min 0,000 mm 0,0 UV-I 0 W/m² -1,1 °C 0,0 km/h (0 Bft)
02.12.2016 17:32 1,1 °C 1,1 °C 85 % 1022,0 hPa 0,0 mm 0,0 km/h (0 Bft) S 190 ° 0 min 0,000 mm 0,0 UV-I 0 W/m² -1,1 °C 0,0 km/h (0 Bft)
02.12.2016 17:33 1,1 °C 1,1 °C 85 % 1022,0 hPa 0,0 mm 0,0 km/h (0 Bft) S 190 ° 0 min 0,000 mm 0,0 UV-I 0 W/m² -1,1 °C 0,0 km/h (0 Bft)
02.12.2016 17:34 1,1 °C 1,1 °C 85 % 1022,0 hPa 0,0 mm 0,0 km/h (0 Bft) S 190 ° 0 min 0,000 mm 0,0 UV-I 0 W/m² -1,1 °C 0,0 km/h (0 Bft)
02.12.2016 17:35 1,1 °C 1,1 °C 85 % 1022,0 hPa 0,0 mm 0,0 km/h (0 Bft) S 190 ° 0 min 0,000 mm 0,0 UV-I 0 W/m² -1,1 °C 0,0 km/h (0 Bft)
02.12.2016 17:36 1,1 °C 1,1 °C 85 % 1022,0 hPa 0,0 mm 0,0 km/h (0 Bft) S 190 ° 0 min 0,000 mm 0,0 UV-I 0 W/m² -1,1 °C 0,0 km/h (0 Bft)
02.12.2016 17:37 1,1 °C 1,1 °C 85 % 1022,1 hPa 0,0 mm 0,0 km/h (0 Bft) S 190 ° 0 min 0,000 mm 0,0 UV-I 0 W/m² -1,1 °C 0,0 km/h (0 Bft)
02.12.2016 17:38 1,1 °C 1,1 °C 85 % 1022,1 hPa 0,0 mm 0,0 km/h (0 Bft) S 190 ° 0 min 0,000 mm 0,0 UV-I 0 W/m² -1,1 °C 0,0 km/h (0 Bft)
02.12.2016 17:39 1,1 °C 1,1 °C 85 % 1022,1 hPa 0,0 mm 0,0 km/h (0 Bft) S 190 ° 0 min 0,000 mm 0,0 UV-I 0 W/m² -1,1 °C 0,0 km/h (0 Bft)
02.12.2016 17:40 1,1 °C 1,1 °C 85 % 1022,1 hPa 0,0 mm 0,0 km/h (0 Bft) S 190 ° 0 min 0,000 mm 0,0 UV-I 0 W/m² -1,1 °C 0,0 km/h (0 Bft)
02.12.2016 17:41 1,1 °C 1,1 °C 85 % 1022,0 hPa 0,0 mm 0,0 km/h (0 Bft) S 190 ° 0 min 0,000 mm 0,0 UV-I 0 W/m² -1,1 °C 0,0 km/h (0 Bft)
02.12.2016 17:42 1,1 °C 1,1 °C 85 % 1022,0 hPa 0,0 mm 0,0 km/h (0 Bft) S 190 ° 0 min 0,000 mm 0,0 UV-I 0 W/m² -1,1 °C 0,0 km/h (0 Bft)
02.12.2016 17:43 1,1 °C 1,1 °C 85 % 1022,1 hPa 0,0 mm 0,0 km/h (0 Bft) S 190 ° 0 min 0,000 mm 0,0 UV-I 0 W/m² -1,1 °C 0,0 km/h (0 Bft)
02.12.2016 17:44 1,1 °C 1,1 °C 85 % 1022,1 hPa 0,0 mm 0,3 km/h (0 Bft) S 190 ° 0 min 0,000 mm 0,0 UV-I 0 W/m² -1,1 °C 1,6 km/h (1 Bft)
02.12.2016 17:45 1,1 °C 1,1 °C 85 % 1022,0 hPa 0,0 mm 1,0 km/h (0 Bft) S 190 ° 0 min 0,000 mm 0,0 UV-I 0 W/m² -1,1 °C 1,6 km/h (1 Bft)
02.12.2016 17:46 1,1 °C 1,1 °C 85 % 1022,1 hPa 0,0 mm 0,8 km/h (0 Bft) S 190 ° 0 min 0,000 mm 0,0 UV-I 0 W/m² -1,1 °C 1,6 km/h (1 Bft)
02.12.2016 17:47 1,1 °C 1,1 °C 85 % 1022,1 hPa 0,0 mm 1,1 km/h (1 Bft) S 190 ° 0 min 0,000 mm 0,0 UV-I 0 W/m² -1,1 °C 1,6 km/h (1 Bft)
02.12.2016 17:48 1,1 °C 1,1 °C 86 % 1022,1 hPa 0,0 mm 1,5 km/h (1 Bft) S 190 ° 0 min 0,000 mm 0,0 UV-I 0 W/m² -1,0 °C 3,2 km/h (1 Bft)
02.12.2016 17:49 1,1 °C 1,1 °C 86 % 1022,1 hPa 0,0 mm 2,0 km/h (1 Bft) S 190 ° 0 min 0,000 mm 0,0 UV-I 0 W/m² -1,0 °C 3,2 km/h (1 Bft)
02.12.2016 17:50 1,1 °C 1,1 °C 86 % 1022,1 hPa 0,0 mm 1,7 km/h (1 Bft) S 190 ° 0 min 0,000 mm 0,0 UV-I 0 W/m² -1,0 °C 3,2 km/h (1 Bft)
02.12.2016 17:51 1,1 °C 1,1 °C 86 % 1022,1 hPa 0,0 mm 0,7 km/h (0 Bft) S 190 ° 0 min 0,000 mm 0,0 UV-I 0 W/m² -1,0 °C 1,6 km/h (1 Bft)
02.12.2016 17:52 1,1 °C 1,1 °C 86 % 1022,1 hPa 0,0 mm 0,1 km/h (0 Bft) S 190 ° 0 min 0,000 mm 0,0 UV-I 0 W/m² -1,0 °C 1,6 km/h (1 Bft)
02.12.2016 17:53 1,1 °C 1,1 °C 86 % 1022,1 hPa 0,0 mm 0,0 km/h (0 Bft) S 190 ° 0 min 0,000 mm 0,0 UV-I 0 W/m² -1,0 °C 0,0 km/h (0 Bft)
02.12.2016 17:54 1,1 °C 1,1 °C 86 % 1022,2 hPa 0,0 mm 0,8 km/h (0 Bft) S 190 ° 0 min 0,000 mm 0,0 UV-I 0 W/m² -1,0 °C 1,6 km/h (1 Bft)
02.12.2016 17:55 1,1 °C 1,1 °C 86 % 1022,1 hPa 0,0 mm 2,5 km/h (1 Bft) S 190 ° 0 min 0,000 mm 0,0 UV-I 0 W/m² -1,0 °C 3,2 km/h (1 Bft)
02.12.2016 17:56 1,1 °C 1,1 °C 86 % 1022,1 hPa 0,0 mm 1,0 km/h (0 Bft) S 190 ° 0 min 0,000 mm 0,0 UV-I 0 W/m² -1,0 °C 1,6 km/h (1 Bft)
02.12.2016 17:57 1,1 °C 1,1 °C 87 % 1022,2 hPa 0,0 mm 0,0 km/h (0 Bft) S 190 ° 0 min 0,000 mm 0,0 UV-I 0 W/m² -0,8 °C 0,0 km/h (0 Bft)
02.12.2016 17:58 1,1 °C 1,1 °C 86 % 1022,2 hPa 0,0 mm 0,0 km/h (0 Bft) S 190 ° 0 min 0,000 mm 0,0 UV-I 0 W/m² -1,0 °C 0,0 km/h (0 Bft)
02.12.2016 17:59 1,1 °C 1,1 °C 87 % 1022,2 hPa 0,0 mm 0,2 km/h (0 Bft) S 190 ° 0 min 0,000 mm 0,0 UV-I 0 W/m² -0,8 °C 1,6 km/h (1 Bft)
02.12.2016 18:00 1,1 °C 1,1 °C 87 % 1022,1 hPa 0,0 mm 1,5 km/h (1 Bft) S 190 ° 0 min 0,000 mm 0,0 UV-I 0 W/m² -0,8 °C 3,2 km/h (1 Bft)
02.12.2016 18:01 1,1 °C 1,1 °C 87 % 1022,2 hPa 0,0 mm 2,7 km/h (1 Bft) S 190 ° 0 min 0,000 mm 0,0 UV-I 0 W/m² -0,8 °C 3,2 km/h (1 Bft)
02.12.2016 18:02 1,1 °C 1,1 °C 87 % 1022,1 hPa 0,0 mm 1,5 km/h (1 Bft) S 190 ° 0 min 0,000 mm 0,0 UV-I 0 W/m² -0,8 °C 3,2 km/h (1 Bft)
02.12.2016 18:03 1,1 °C 1,1 °C 87 % 1022,2 hPa 0,0 mm 1,3 km/h (1 Bft) S 190 ° 0 min 0,000 mm 0,0 UV-I 0 W/m² -0,8 °C 1,6 km/h (1 Bft)
02.12.2016 18:04 1,1 °C 1,1 °C 88 % 1022,2 hPa 0,0 mm 1,7 km/h (1 Bft) S 190 ° 0 min 0,000 mm 0,0 UV-I 0 W/m² -0,7 °C 3,2 km/h (1 Bft)
02.12.2016 18:05 1,1 °C 1,1 °C 88 % 1022,2 hPa 0,0 mm 1,6 km/h (1 Bft) S 190 ° 0 min 0,000 mm 0,0 UV-I 0 W/m² -0,7 °C 3,2 km/h (1 Bft)
02.12.2016 18:06 1,2 °C 1,2 °C 88 % 1022,2 hPa 0,0 mm 0,5 km/h (0 Bft) S 190 ° 0 min 0,000 mm 0,0 UV-I 0 W/m² -0,6 °C 1,6 km/h (1 Bft)
02.12.2016 18:07 1,2 °C 1,2 °C 88 % 1022,2 hPa 0,0 mm 1,4 km/h (1 Bft) S 190 ° 0 min 0,000 mm 0,0 UV-I 0 W/m² -0,6 °C 1,6 km/h (1 Bft)
02.12.2016 18:08 1,2 °C 1,2 °C 88 % 1022,2 hPa 0,0 mm 0,9 km/h (0 Bft) S 190 ° 0 min 0,000 mm 0,0 UV-I 0 W/m² -0,6 °C 1,6 km/h (1 Bft)
02.12.2016 18:09 1,2 °C 1,2 °C 88 % 1022,2 hPa 0,0 mm 1,5 km/h (1 Bft) S 190 ° 0 min 0,000 mm 0,0 UV-I 0 W/m² -0,6 °C 1,6 km/h (1 Bft)
02.12.2016 18:10 1,2 °C 1,2 °C 89 % 1022,2 hPa 0,0 mm 1,7 km/h (1 Bft) S 190 ° 0 min 0,000 mm 0,0 UV-I 0 W/m² -0,4 °C 3,2 km/h (1 Bft)
02.12.2016 18:11 1,2 °C 1,2 °C 89 % 1022,2 hPa 0,0 mm 1,3 km/h (1 Bft) S 190 ° 0 min 0,000 mm 0,0 UV-I 0 W/m² -0,4 °C 3,2 km/h (1 Bft)
02.12.2016 18:12 1,2 °C 1,2 °C 89 % 1022,2 hPa 0,0 mm 1,9 km/h (1 Bft) S 190 ° 0 min 0,000 mm 0,0 UV-I 0 W/m² -0,4 °C 3,2 km/h (1 Bft)
02.12.2016 18:13 1,3 °C 1,3 °C 89 % 1022,2 hPa 0,0 mm 1,1 km/h (1 Bft) S 190 ° 0 min 0,000 mm 0,0 UV-I 0 W/m² -0,3 °C 3,2 km/h (1 Bft)
02.12.2016 18:14 1,3 °C 1,3 °C 89 % 1022,2 hPa 0,0 mm 2,6 km/h (1 Bft) S 173 ° 0 min 0,000 mm 0,0 UV-I 0 W/m² -0,3 °C 4,8 km/h (1 Bft)
02.12.2016 18:15 1,3 °C 1,3 °C 90 % 1022,2 hPa 0,0 mm 1,7 km/h (1 Bft) S 173 ° 0 min 0,000 mm 0,0 UV-I 0 W/m² -0,2 °C 3,2 km/h (1 Bft)
02.12.2016 18:16 1,3 °C 1,3 °C 90 % 1022,2 hPa 0,0 mm 0,4 km/h (0 Bft) S 173 ° 0 min 0,000 mm 0,0 UV-I 0 W/m² -0,2 °C 1,6 km/h (1 Bft)
02.12.2016 18:17 1,3 °C 1,3 °C 90 % 1022,2 hPa 0,0 mm 0,5 km/h (0 Bft) S 173 ° 0 min 0,000 mm 0,0 UV-I 0 W/m² -0,2 °C 1,6 km/h (1 Bft)
02.12.2016 18:18 1,3 °C 1,3 °C 90 % 1022,2 hPa 0,0 mm 0,3 km/h (0 Bft) S 173 ° 0 min 0,000 mm 0,0 UV-I 0 W/m² -0,2 °C 1,6 km/h (1 Bft)
02.12.2016 18:19 1,4 °C 1,4 °C 90 % 1022,2 hPa 0,0 mm 1,3 km/h (1 Bft) S 173 ° 0 min 0,000 mm 0,0 UV-I 0 W/m² -0,1 °C 1,6 km/h (1 Bft)
02.12.2016 18:20 1,4 °C 1,4 °C 90 % 1022,2 hPa 0,0 mm 1,1 km/h (1 Bft) S 173 ° 0 min 0,000 mm 0,0 UV-I 0 W/m² -0,1 °C 1,6 km/h (1 Bft)
02.12.2016 18:21 1,4 °C 1,4 °C 90 % 1022,2 hPa 0,0 mm 0,5 km/h (0 Bft) S 173 ° 0 min 0,000 mm 0,0 UV-I 0 W/m² -0,1 °C 1,6 km/h (1 Bft)
02.12.2016 18:22 1,4 °C 1,4 °C 90 % 1022,2 hPa 0,0 mm 0,3 km/h (0 Bft) S 173 ° 0 min 0,000 mm 0,0 UV-I 0 W/m² -0,1 °C 1,6 km/h (1 Bft)
02.12.2016 18:23 1,4 °C 1,4 °C 90 % 1022,2 hPa 0,0 mm 0,8 km/h (0 Bft) S 173 ° 0 min 0,000 mm 0,0 UV-I 0 W/m² -0,1 °C 1,6 km/h (1 Bft)
02.12.2016 18:24 1,4 °C 1,4 °C 90 % 1022,2 hPa 0,0 mm 0,0 km/h (0 Bft) S 173 ° 0 min 0,000 mm 0,0 UV-I 0 W/m² -0,1 °C 0,0 km/h (0 Bft)
02.12.2016 18:25 1,4 °C 1,4 °C 90 % 1022,2 hPa 0,0 mm 0,1 km/h (0 Bft) S 173 ° 0 min 0,000 mm 0,0 UV-I 0 W/m² -0,1 °C 1,6 km/h (1 Bft)
02.12.2016 18:26 1,4 °C 1,4 °C 90 % 1022,3 hPa 0,0 mm 0,9 km/h (0 Bft) S 173 ° 0 min 0,000 mm 0,0 UV-I 0 W/m² -0,1 °C 1,6 km/h (1 Bft)
02.12.2016 18:27 1,4 °C 1,4 °C 90 % 1022,2 hPa 0,0 mm 2,0 km/h (1 Bft) SO 140 ° 0 min 0,000 mm 0,0 UV-I 0 W/m² -0,1 °C 4,8 km/h (1 Bft)
02.12.2016 18:28 1,4 °C 1,4 °C 90 % 1022,3 hPa 0,0 mm 2,5 km/h (1 Bft) SO 141 ° 0 min 0,000 mm 0,0 UV-I 0 W/m² -0,1 °C 3,2 km/h (1 Bft)
02.12.2016 18:29 1,4 °C 1,4 °C 90 % 1022,3 hPa 0,0 mm 0,2 km/h (0 Bft) SO 141 ° 0 min 0,000 mm 0,0 UV-I 0 W/m² -0,1 °C 1,6 km/h (1 Bft)
02.12.2016 18:30 1,4 °C 1,4 °C 90 % 1022,3 hPa 0,0 mm 0,2 km/h (0 Bft) SO 141 ° 0 min 0,000 mm 0,0 UV-I 0 W/m² -0,1 °C 1,6 km/h (1 Bft)
02.12.2016 18:31 1,4 °C 1,4 °C 90 % 1022,3 hPa 0,0 mm 0,8 km/h (0 Bft) SO 141 ° 0 min 0,000 mm 0,0 UV-I 0 W/m² -0,1 °C 1,6 km/h (1 Bft)
02.12.2016 18:32 1,4 °C 1,4 °C 90 % 1022,3 hPa 0,0 mm 0,5 km/h (0 Bft) SO 141 ° 0 min 0,000 mm 0,0 UV-I 0 W/m² -0,1 °C 1,6 km/h (1 Bft)
02.12.2016 18:33 1,4 °C 1,5 °C 90 % 1022,4 hPa 0,0 mm 1,0 km/h (0 Bft) SO 141 ° 0 min 0,000 mm 0,0 UV-I 0 W/m² -0,1 °C 1,6 km/h (1 Bft)
02.12.2016 18:34 1,4 °C 1,5 °C 90 % 1022,3 hPa 0,0 mm 1,7 km/h (1 Bft) SO 141 ° 0 min 0,000 mm 0,0 UV-I 0 W/m² -0,1 °C 3,2 km/h (1 Bft)
02.12.2016 18:35 1,4 °C 1,4 °C 90 % 1022,3 hPa 0,0 mm 1,2 km/h (1 Bft) SO 141 ° 0 min 0,000 mm 0,0 UV-I 0 W/m² -0,1 °C 1,6 km/h (1 Bft)
02.12.2016 18:36 1,5 °C 1,5 °C 90 % 1022,3 hPa 0,0 mm 2,5 km/h (1 Bft) SO 141 ° 0 min 0,000 mm 0,0 UV-I 0 W/m² 0,0 °C 3,2 km/h (1 Bft)
02.12.2016 18:37 1,4 °C 1,5 °C 90 % 1022,3 hPa 0,0 mm 1,9 km/h (1 Bft) SO 141 ° 0 min 0,000 mm 0,0 UV-I 0 W/m² -0,1 °C 3,2 km/h (1 Bft)
02.12.2016 18:38 1,5 °C 1,5 °C 90 % 1022,3 hPa 0,0 mm 1,5 km/h (1 Bft) SO 141 ° 0 min 0,000 mm 0,0 UV-I 0 W/m² 0,0 °C 3,2 km/h (1 Bft)
02.12.2016 18:39 1,5 °C 1,5 °C 91 % 1022,3 hPa 0,0 mm 1,5 km/h (1 Bft) SO 141 ° 0 min 0,000 mm 0,0 UV-I 0 W/m² 0,2 °C 3,2 km/h (1 Bft)
02.12.2016 18:40 1,5 °C 1,5 °C 91 % 1022,3 hPa 0,2 mm 1,5 km/h (1 Bft) SO 141 ° 0 min 0,000 mm 0,0 UV-I 0 W/m² 0,2 °C 3,2 km/h (1 Bft)
02.12.2016 18:41 1,5 °C 1,6 °C 91 % 1022,3 hPa 0,0 mm 1,3 km/h (1 Bft) SO 141 ° 0 min 0,000 mm 0,0 UV-I 0 W/m² 0,2 °C 1,6 km/h (1 Bft)
02.12.2016 18:42 1,5 °C 1,6 °C 91 % 1022,3 hPa 0,0 mm 1,2 km/h (1 Bft) SO 141 ° 0 min 0,000 mm 0,0 UV-I 0 W/m² 0,2 °C 1,6 km/h (1 Bft)
02.12.2016 18:43 1,5 °C 1,5 °C 91 % 1022,3 hPa 0,0 mm 0,9 km/h (0 Bft) SO 141 ° 0 min 0,000 mm 0,0 UV-I 0 W/m² 0,2 °C 1,6 km/h (1 Bft)
02.12.2016 18:44 1,5 °C 1,6 °C 91 % 1022,2 hPa 0,0 mm 1,3 km/h (1 Bft) SO 141 ° 0 min 0,000 mm 0,0 UV-I 0 W/m² 0,2 °C 1,6 km/h (1 Bft)
02.12.2016 18:45 1,5 °C 1,6 °C 91 % 1022,3 hPa 0,0 mm 1,2 km/h (1 Bft) SO 141 ° 0 min 0,000 mm 0,0 UV-I 0 W/m² 0,2 °C 1,6 km/h (1 Bft)
02.12.2016 18:46 1,5 °C 1,6 °C 91 % 1022,2 hPa 0,0 mm 1,0 km/h (0 Bft) SO 141 ° 0 min 0,000 mm 0,0 UV-I 0 W/m² 0,2 °C 1,6 km/h (1 Bft)
02.12.2016 18:47 1,4 °C 1,5 °C 91 % 1022,2 hPa 0,0 mm 1,6 km/h (1 Bft) SO 141 ° 0 min 0,000 mm 0,0 UV-I 0 W/m² 0,1 °C 3,2 km/h (1 Bft)
02.12.2016 18:48 1,5 °C 1,6 °C 91 % 1022,3 hPa 0,0 mm 1,9 km/h (1 Bft) SO 141 ° 0 min 0,000 mm 0,0 UV-I 0 W/m² 0,2 °C 3,2 km/h (1 Bft)
02.12.2016 18:49 1,4 °C 1,5 °C 91 % 1022,3 hPa 0,0 mm 1,9 km/h (1 Bft) SO 141 ° 0 min 0,000 mm 0,0 UV-I 0 W/m² 0,1 °C 3,2 km/h (1 Bft)
02.12.2016 18:50 1,5 °C 1,5 °C 91 % 1022,2 hPa 0,0 mm 1,6 km/h (1 Bft) SO 141 ° 0 min 0,000 mm 0,0 UV-I 0 W/m² 0,2 °C 3,2 km/h (1 Bft)
02.12.2016 18:51 1,5 °C 1,5 °C 91 % 1022,2 hPa 0,0 mm 0,8 km/h (0 Bft) SO 141 ° 0 min 0,000 mm 0,0 UV-I 0 W/m² 0,2 °C 1,6 km/h (1 Bft)
02.12.2016 18:52 1,4 °C 1,5 °C 91 % 1022,3 hPa 0,0 mm 0,4 km/h (0 Bft) SO 141 ° 0 min 0,000 mm 0,0 UV-I 0 W/m² 0,1 °C 1,6 km/h (1 Bft)
02.12.2016 18:53 1,5 °C 1,5 °C 91 % 1022,3 hPa 0,0 mm 0,0 km/h (0 Bft) SO 141 ° 0 min 0,000 mm 0,0 UV-I 0 W/m² 0,2 °C 0,0 km/h (0 Bft)
02.12.2016 18:54 1,4 °C 1,5 °C 91 % 1022,3 hPa 0,0 mm 0,0 km/h (0 Bft) SO 141 ° 0 min 0,000 mm 0,0 UV-I 0 W/m² 0,1 °C 0,0 km/h (0 Bft)
02.12.2016 18:55 1,5 °C 1,5 °C 91 % 1022,3 hPa 0,0 mm 0,0 km/h (0 Bft) SO 141 ° 0 min 0,000 mm 0,0 UV-I 0 W/m² 0,2 °C 0,0 km/h (0 Bft)
02.12.2016 18:56 1,4 °C 1,5 °C 91 % 1022,2 hPa 0,0 mm 0,0 km/h (0 Bft) SO 141 ° 0 min 0,000 mm 0,0 UV-I 0 W/m² 0,1 °C 0,0 km/h (0 Bft)
02.12.2016 18:57 1,4 °C 1,4 °C 91 % 1022,2 hPa 0,0 mm 0,0 km/h (0 Bft) SO 141 ° 0 min 0,000 mm 0,0 UV-I 0 W/m² 0,1 °C 0,0 km/h (0 Bft)
02.12.2016 18:58 1,4 °C 1,4 °C 91 % 1022,2 hPa 0,0 mm 0,0 km/h (0 Bft) SO 141 ° 0 min 0,000 mm 0,0 UV-I 0 W/m² 0,1 °C 0,0 km/h (0 Bft)
02.12.2016 18:59 1,4 °C 1,4 °C 91 % 1022,2 hPa 0,0 mm 0,0 km/h (0 Bft) SO 141 ° 0 min 0,000 mm 0,0 UV-I 0 W/m² 0,1 °C 0,0 km/h (0 Bft)
02.12.2016 19:00 1,4 °C 1,4 °C 91 % 1022,3 hPa 0,0 mm 0,0 km/h (0 Bft) SO 141 ° 0 min 0,000 mm 0,0 UV-I 0 W/m² 0,1 °C 0,0 km/h (0 Bft)
02.12.2016 19:01 1,4 °C 1,4 °C 91 % 1022,3 hPa 0,0 mm 0,0 km/h (0 Bft) SO 141 ° 0 min 0,000 mm 0,0 UV-I 0 W/m² 0,1 °C 0,0 km/h (0 Bft)
02.12.2016 19:02 1,4 °C 1,4 °C 91 % 1022,3 hPa 0,0 mm 0,0 km/h (0 Bft) SO 141 ° 0 min 0,000 mm 0,0 UV-I 0 W/m² 0,1 °C 0,0 km/h (0 Bft)
02.12.2016 19:03 1,4 °C 1,4 °C 91 % 1022,3 hPa 0,0 mm 0,0 km/h (0 Bft) SO 141 ° 0 min 0,000 mm 0,0 UV-I 0 W/m² 0,1 °C 0,0 km/h (0 Bft)
02.12.2016 19:04 1,4 °C 1,4 °C 91 % 1022,3 hPa 0,0 mm 0,0 km/h (0 Bft) SO 141 ° 0 min 0,000 mm 0,0 UV-I 0 W/m² 0,1 °C 0,0 km/h (0 Bft)
02.12.2016 19:05 1,4 °C 1,4 °C 91 % 1022,3 hPa 0,0 mm 0,0 km/h (0 Bft) SO 141 ° 0 min 0,000 mm 0,0 UV-I 0 W/m² 0,1 °C 0,0 km/h (0 Bft)
02.12.2016 19:06 1,4 °C 1,4 °C 91 % 1022,4 hPa 0,0 mm 0,0 km/h (0 Bft) SO 141 ° 0 min 0,000 mm 0,0 UV-I 0 W/m² 0,1 °C 0,0 km/h (0 Bft)
02.12.2016 19:07 1,4 °C 1,4 °C 91 % 1022,3 hPa 0,0 mm 0,0 km/h (0 Bft) SO 141 ° 0 min 0,000 mm 0,0 UV-I 0 W/m² 0,1 °C 0,0 km/h (0 Bft)
02.12.2016 19:08 1,4 °C 1,4 °C 91 % 1022,4 hPa 0,0 mm 0,0 km/h (0 Bft) SO 141 ° 0 min 0,000 mm 0,0 UV-I 0 W/m² 0,1 °C 0,0 km/h (0 Bft)
02.12.2016 19:09 1,4 °C 1,4 °C 91 % 1022,3 hPa 0,0 mm 0,0 km/h (0 Bft) SO 141 ° 0 min 0,000 mm 0,0 UV-I 0 W/m² 0,1 °C 0,0 km/h (0 Bft)
02.12.2016 19:10 1,4 °C 1,4 °C 91 % 1022,4 hPa 0,0 mm 0,0 km/h (0 Bft) SO 141 ° 0 min 0,000 mm 0,0 UV-I 0 W/m² 0,1 °C 0,0 km/h (0 Bft)
02.12.2016 19:11 1,4 °C 1,4 °C 91 % 1022,4 hPa 0,0 mm 0,0 km/h (0 Bft) SO 141 ° 0 min 0,000 mm 0,0 UV-I 0 W/m² 0,1 °C 0,0 km/h (0 Bft)
02.12.2016 19:12 1,4 °C 1,4 °C 91 % 1022,4 hPa 0,0 mm 0,0 km/h (0 Bft) SO 141 ° 0 min 0,000 mm 0,0 UV-I 0 W/m² 0,1 °C 0,0 km/h (0 Bft)
02.12.2016 19:13 1,4 °C 1,4 °C 91 % 1022,4 hPa 0,0 mm 0,0 km/h (0 Bft) SO 141 ° 0 min 0,000 mm 0,0 UV-I 0 W/m² 0,1 °C 0,0 km/h (0 Bft)
02.12.2016 19:14 1,3 °C 1,4 °C 91 % 1022,4 hPa 0,0 mm 0,0 km/h (0 Bft) SO 141 ° 0 min 0,000 mm 0,0 UV-I 0 W/m² -0,0 °C 0,0 km/h (0 Bft)
02.12.2016 19:15 1,3 °C 1,4 °C 91 % 1022,3 hPa 0,0 mm 0,0 km/h (0 Bft) SO 141 ° 0 min 0,000 mm 0,0 UV-I 0 W/m² -0,0 °C 0,0 km/h (0 Bft)
02.12.2016 19:16 1,3 °C 1,4 °C 91 % 1022,3 hPa 0,0 mm 0,0 km/h (0 Bft) SO 141 ° 0 min 0,000 mm 0,0 UV-I 0 W/m² -0,0 °C 0,0 km/h (0 Bft)
02.12.2016 19:17 1,3 °C 1,4 °C 91 % 1022,3 hPa 0,0 mm 0,0 km/h (0 Bft) SO 141 ° 0 min 0,000 mm 0,0 UV-I 0 W/m² -0,0 °C 0,0 km/h (0 Bft)
02.12.2016 19:18 1,3 °C 1,3 °C 91 % 1022,4 hPa 0,0 mm 0,0 km/h (0 Bft) SO 141 ° 0 min 0,000 mm 0,0 UV-I 0 W/m² -0,0 °C 0,0 km/h (0 Bft)
02.12.2016 19:19 1,3 °C 1,3 °C 91 % 1022,4 hPa 0,0 mm 0,0 km/h (0 Bft) SO 141 ° 0 min 0,000 mm 0,0 UV-I 0 W/m² -0,0 °C 0,0 km/h (0 Bft)
02.12.2016 19:20 1,3 °C 1,3 °C 91 % 1022,4 hPa 0,0 mm 0,0 km/h (0 Bft) SO 141 ° 0 min 0,000 mm 0,0 UV-I 0 W/m² -0,0 °C 0,0 km/h (0 Bft)
02.12.2016 19:21 1,3 °C 1,3 °C 91 % 1022,4 hPa 0,0 mm 0,0 km/h (0 Bft) SO 141 ° 0 min 0,000 mm 0,0 UV-I 0 W/m² -0,0 °C 0,0 km/h (0 Bft)
02.12.2016 19:22 1,3 °C 1,3 °C 91 % 1022,4 hPa 0,0 mm 0,0 km/h (0 Bft) SO 141 ° 0 min 0,000 mm 0,0 UV-I 0 W/m² -0,0 °C 0,0 km/h (0 Bft)
02.12.2016 19:23 1,3 °C 1,3 °C 91 % 1022,4 hPa 0,0 mm 0,0 km/h (0 Bft) SO 141 ° 0 min 0,000 mm 0,0 UV-I 0 W/m² -0,0 °C 0,0 km/h (0 Bft)
02.12.2016 19:24 1,3 °C 1,3 °C 91 % 1022,4 hPa 0,0 mm 0,0 km/h (0 Bft) SO 141 ° 0 min 0,000 mm 0,0 UV-I 0 W/m² -0,0 °C 0,0 km/h (0 Bft)
02.12.2016 19:25 1,3 °C 1,3 °C 91 % 1022,4 hPa 0,0 mm 0,0 km/h (0 Bft) SO 141 ° 0 min 0,000 mm 0,0 UV-I 0 W/m² -0,0 °C 0,0 km/h (0 Bft)
02.12.2016 19:26 1,3 °C 1,3 °C 91 % 1022,4 hPa 0,0 mm 0,0 km/h (0 Bft) SO 141 ° 0 min 0,000 mm 0,0 UV-I 0 W/m² -0,0 °C 0,0 km/h (0 Bft)
02.12.2016 19:27 1,3 °C 1,3 °C 91 % 1022,4 hPa 0,0 mm 0,0 km/h (0 Bft) SO 141 ° 0 min 0,000 mm 0,0 UV-I 0 W/m² -0,0 °C 0,0 km/h (0 Bft)
02.12.2016 19:28 1,3 °C 1,3 °C 91 % 1022,4 hPa 0,0 mm 0,0 km/h (0 Bft) SO 141 ° 0 min 0,000 mm 0,0 UV-I 0 W/m² -0,0 °C 0,0 km/h (0 Bft)
02.12.2016 19:29 1,3 °C 1,3 °C 91 % 1022,4 hPa 0,0 mm 0,0 km/h (0 Bft) SO 141 ° 0 min 0,000 mm 0,0 UV-I 0 W/m² -0,0 °C 0,0 km/h (0 Bft)
02.12.2016 19:30 1,3 °C 1,3 °C 91 % 1022,4 hPa 0,0 mm 0,0 km/h (0 Bft) SO 141 ° 0 min 0,000 mm 0,0 UV-I 0 W/m² -0,0 °C 0,0 km/h (0 Bft)
02.12.2016 19:31 1,3 °C 1,3 °C 91 % 1022,4 hPa 0,0 mm 0,0 km/h (0 Bft) SO 141 ° 0 min 0,000 mm 0,0 UV-I 0 W/m² -0,0 °C 0,0 km/h (0 Bft)
02.12.2016 19:32 1,2 °C 1,3 °C 91 % 1022,4 hPa 0,0 mm 0,0 km/h (0 Bft) SO 141 ° 0 min 0,000 mm 0,0 UV-I 0 W/m² -0,1 °C 0,0 km/h (0 Bft)
02.12.2016 19:33 1,2 °C 1,3 °C 91 % 1022,4 hPa 0,0 mm 0,0 km/h (0 Bft) SO 141 ° 0 min 0,000 mm 0,0 UV-I 0 W/m² -0,1 °C 0,0 km/h (0 Bft)
02.12.2016 19:34 1,2 °C 1,2 °C 91 % 1022,4 hPa 0,0 mm 0,0 km/h (0 Bft) SO 141 ° 0 min 0,000 mm 0,0 UV-I 0 W/m² -0,1 °C 0,0 km/h (0 Bft)
02.12.2016 19:35 1,2 °C 1,2 °C 91 % 1022,4 hPa 0,0 mm 0,0 km/h (0 Bft) SO 141 ° 0 min 0,000 mm 0,0 UV-I 0 W/m² -0,1 °C 0,0 km/h (0 Bft)
02.12.2016 19:36 1,2 °C 1,2 °C 91 % 1022,4 hPa 0,0 mm 0,0 km/h (0 Bft) SO 141 ° 0 min 0,000 mm 0,0 UV-I 0 W/m² -0,1 °C 0,0 km/h (0 Bft)
02.12.2016 19:37 1,2 °C 1,2 °C 91 % 1022,4 hPa 0,0 mm 0,0 km/h (0 Bft) SO 141 ° 0 min 0,000 mm 0,0 UV-I 0 W/m² -0,1 °C 0,0 km/h (0 Bft)
02.12.2016 19:38 1,2 °C 1,2 °C 91 % 1022,4 hPa 0,0 mm 0,0 km/h (0 Bft) SO 141 ° 0 min 0,000 mm 0,0 UV-I 0 W/m² -0,1 °C 0,0 km/h (0 Bft)
02.12.2016 19:39 1,2 °C 1,2 °C 91 % 1022,4 hPa 0,0 mm 0,0 km/h (0 Bft) SO 141 ° 0 min 0,000 mm 0,0 UV-I 0 W/m² -0,1 °C 0,0 km/h (0 Bft)
02.12.2016 19:40 1,2 °C 1,2 °C 91 % 1022,4 hPa 0,0 mm 0,0 km/h (0 Bft) SO 141 ° 0 min 0,000 mm 0,0 UV-I 0 W/m² -0,1 °C 0,0 km/h (0 Bft)
02.12.2016 19:41 1,2 °C 1,2 °C 91 % 1022,4 hPa 0,0 mm 0,0 km/h (0 Bft) SO 141 ° 0 min 0,000 mm 0,0 UV-I 0 W/m² -0,1 °C 0,0 km/h (0 Bft)
02.12.2016 19:42 1,2 °C 1,2 °C 91 % 1022,4 hPa 0,2 mm 0,0 km/h (0 Bft) SO 141 ° 0 min 0,000 mm 0,0 UV-I 0 W/m² -0,1 °C 0,0 km/h (0 Bft)
02.12.2016 19:43 1,2 °C 1,2 °C 91 % 1022,3 hPa 0,0 mm 0,0 km/h (0 Bft) SO 141 ° 0 min 0,000 mm 0,0 UV-I 0 W/m² -0,1 °C 0,0 km/h (0 Bft)
02.12.2016 19:44 1,1 °C 1,2 °C 91 % 1022,3 hPa 0,0 mm 0,0 km/h (0 Bft) SO 141 ° 0 min 0,000 mm 0,0 UV-I 0 W/m² -0,2 °C 0,0 km/h (0 Bft)
02.12.2016 19:45 1,1 °C 1,2 °C 91 % 1022,3 hPa 0,0 mm 0,0 km/h (0 Bft) SO 141 ° 0 min 0,000 mm 0,0 UV-I 0 W/m² -0,2 °C 0,0 km/h (0 Bft)
02.12.2016 19:46 1,1 °C 1,2 °C 91 % 1022,3 hPa 0,0 mm 0,0 km/h (0 Bft) SO 141 ° 0 min 0,000 mm 0,0 UV-I 0 W/m² -0,2 °C 0,0 km/h (0 Bft)
02.12.2016 19:47 1,1 °C 1,1 °C 91 % 1022,3 hPa 0,0 mm 0,0 km/h (0 Bft) SO 141 ° 0 min 0,000 mm 0,0 UV-I 0 W/m² -0,2 °C 0,0 km/h (0 Bft)
02.12.2016 19:48 1,1 °C 1,1 °C 91 % 1022,2 hPa 0,0 mm 0,0 km/h (0 Bft) SO 141 ° 0 min 0,000 mm 0,0 UV-I 0 W/m² -0,2 °C 0,0 km/h (0 Bft)
02.12.2016 19:49 1,1 °C 1,1 °C 91 % 1022,3 hPa 0,0 mm 0,0 km/h (0 Bft) SO 141 ° 0 min 0,000 mm 0,0 UV-I 0 W/m² -0,2 °C 0,0 km/h (0 Bft)
02.12.2016 19:50 1,1 °C 1,1 °C 91 % 1022,2 hPa 0,0 mm 0,0 km/h (0 Bft) SO 141 ° 0 min 0,000 mm 0,0 UV-I 0 W/m² -0,2 °C 0,0 km/h (0 Bft)
02.12.2016 19:51 1,1 °C 1,1 °C 91 % 1022,2 hPa 0,0 mm 0,0 km/h (0 Bft) SO 141 ° 0 min 0,000 mm 0,0 UV-I 0 W/m² -0,2 °C 0,0 km/h (0 Bft)
02.12.2016 19:52 1,1 °C 1,1 °C 91 % 1022,2 hPa 0,0 mm 0,0 km/h (0 Bft) SO 141 ° 0 min 0,000 mm 0,0 UV-I 0 W/m² -0,2 °C 0,0 km/h (0 Bft)
02.12.2016 19:53 1,1 °C 1,1 °C 91 % 1022,2 hPa 0,0 mm 0,0 km/h (0 Bft) SO 141 ° 0 min 0,000 mm 0,0 UV-I 0 W/m² -0,2 °C 0,0 km/h (0 Bft)
02.12.2016 19:54 1,1 °C 1,1 °C 91 % 1022,3 hPa 0,0 mm 0,0 km/h (0 Bft) SO 141 ° 0 min 0,000 mm 0,0 UV-I 0 W/m² -0,2 °C 0,0 km/h (0 Bft)
02.12.2016 19:55 1,1 °C 1,1 °C 91 % 1022,2 hPa 0,0 mm 0,0 km/h (0 Bft) SO 141 ° 0 min 0,000 mm 0,0 UV-I 0 W/m² -0,2 °C 0,0 km/h (0 Bft)
02.12.2016 19:56 1,1 °C 1,1 °C 91 % 1022,2 hPa 0,0 mm 0,0 km/h (0 Bft) SO 141 ° 0 min 0,000 mm 0,0 UV-I 0 W/m² -0,2 °C 0,0 km/h (0 Bft)
02.12.2016 19:57 1,1 °C 1,1 °C 91 % 1022,2 hPa 0,0 mm 0,0 km/h (0 Bft) SO 141 ° 0 min 0,000 mm 0,0 UV-I 0 W/m² -0,2 °C 0,0 km/h (0 Bft)
02.12.2016 19:58 1,1 °C 1,1 °C 91 % 1022,2 hPa 0,0 mm 0,0 km/h (0 Bft) SO 141 ° 0 min 0,000 mm 0,0 UV-I 0 W/m² -0,2 °C 0,0 km/h (0 Bft)
02.12.2016 19:59 1,1 °C 1,1 °C 91 % 1022,2 hPa 0,0 mm 0,3 km/h (0 Bft) SO 141 ° 0 min 0,000 mm 0,0 UV-I 0 W/m² -0,2 °C 1,6 km/h (1 Bft)
02.12.2016 20:00 1,1 °C 1,1 °C 91 % 1022,2 hPa 0,0 mm 1,0 km/h (0 Bft) SO 141 ° 0 min 0,000 mm 0,0 UV-I 0 W/m² -0,2 °C 3,2 km/h (1 Bft)
02.12.2016 20:01 1,1 °C 1,1 °C 91 % 1022,2 hPa 0,0 mm 0,1 km/h (0 Bft) SO 141 ° 0 min 0,000 mm 0,0 UV-I 0 W/m² -0,2 °C 1,6 km/h (1 Bft)
02.12.2016 20:02 1,1 °C 1,1 °C 91 % 1022,2 hPa 0,0 mm 0,0 km/h (0 Bft) SO 141 ° 0 min 0,000 mm 0,0 UV-I 0 W/m² -0,2 °C 0,0 km/h (0 Bft)
02.12.2016 20:03 1,1 °C 1,1 °C 92 % 1022,2 hPa 0,0 mm 0,0 km/h (0 Bft) SO 141 ° 0 min 0,000 mm 0,0 UV-I 0 W/m² -0,1 °C 0,0 km/h (0 Bft)
02.12.2016 20:04 1,1 °C 1,1 °C 92 % 1022,1 hPa 0,0 mm 0,0 km/h (0 Bft) SO 141 ° 0 min 0,000 mm 0,0 UV-I 0 W/m² -0,1 °C 0,0 km/h (0 Bft)
02.12.2016 20:05 1,1 °C 1,1 °C 92 % 1022,2 hPa 0,0 mm 0,0 km/h (0 Bft) SO 141 ° 0 min 0,000 mm 0,0 UV-I 0 W/m² -0,1 °C 0,0 km/h (0 Bft)
02.12.2016 20:06 1,1 °C 1,1 °C 92 % 1022,1 hPa 0,0 mm 0,0 km/h (0 Bft) SO 141 ° 0 min 0,000 mm 0,0 UV-I 0 W/m² -0,1 °C 0,0 km/h (0 Bft)
02.12.2016 20:07 1,0 °C 1,1 °C 92 % 1022,1 hPa 0,0 mm 0,0 km/h (0 Bft) SO 141 ° 0 min 0,000 mm 0,0 UV-I 0 W/m² -0,2 °C 0,0 km/h (0 Bft)
02.12.2016 20:08 1,0 °C 1,1 °C 92 % 1022,1 hPa 0,0 mm 0,0 km/h (0 Bft) SO 141 ° 0 min 0,000 mm 0,0 UV-I 0 W/m² -0,2 °C 0,0 km/h (0 Bft)
02.12.2016 20:09 1,1 °C 1,1 °C 92 % 1022,1 hPa 0,0 mm 0,0 km/h (0 Bft) SO 141 ° 0 min 0,000 mm 0,0 UV-I 0 W/m² -0,1 °C 0,0 km/h (0 Bft)
02.12.2016 20:10 1,0 °C 1,1 °C 92 % 1022,1 hPa 0,0 mm 0,0 km/h (0 Bft) SO 141 ° 0 min 0,000 mm 0,0 UV-I 0 W/m² -0,2 °C 0,0 km/h (0 Bft)
02.12.2016 20:11 1,0 °C 1,0 °C 92 % 1022,0 hPa 0,0 mm 0,0 km/h (0 Bft) SO 141 ° 0 min 0,000 mm 0,0 UV-I 0 W/m² -0,2 °C 0,0 km/h (0 Bft)
02.12.2016 20:12 1,0 °C 1,1 °C 92 % 1022,0 hPa 0,0 mm 0,4 km/h (0 Bft) SO 141 ° 0 min 0,000 mm 0,0 UV-I 0 W/m² -0,2 °C 1,6 km/h (1 Bft)
02.12.2016 20:13 1,0 °C 1,0 °C 92 % 1022,0 hPa 0,0 mm 0,0 km/h (0 Bft) SO 141 ° 0 min 0,000 mm 0,0 UV-I 0 W/m² -0,2 °C 0,0 km/h (0 Bft)
02.12.2016 20:14 1,0 °C 1,0 °C 92 % 1022,0 hPa 0,0 mm 0,0 km/h (0 Bft) SO 141 ° 0 min 0,000 mm 0,0 UV-I 0 W/m² -0,2 °C 0,0 km/h (0 Bft)
02.12.2016 20:15 1,0 °C 1,0 °C 92 % 1022,0 hPa 0,0 mm 0,1 km/h (0 Bft) SO 141 ° 0 min 0,000 mm 0,0 UV-I 0 W/m² -0,2 °C 1,6 km/h (1 Bft)
02.12.2016 20:16 1,0 °C 1,0 °C 92 % 1022,1 hPa 0,0 mm 1,1 km/h (1 Bft) SO 141 ° 0 min 0,000 mm 0,0 UV-I 0 W/m² -0,2 °C 1,6 km/h (1 Bft)
02.12.2016 20:17 1,0 °C 1,0 °C 92 % 1022,0 hPa 0,0 mm 1,2 km/h (1 Bft) SO 141 ° 0 min 0,000 mm 0,0 UV-I 0 W/m² -0,2 °C 1,6 km/h (1 Bft)
02.12.2016 20:18 1,0 °C 1,0 °C 92 % 1022,1 hPa 0,0 mm 2,1 km/h (1 Bft) O-SO 107 ° 0 min 0,000 mm 0,0 UV-I 0 W/m² -0,2 °C 3,2 km/h (1 Bft)
02.12.2016 20:19 1,0 °C 1,0 °C 92 % 1022,1 hPa 0,0 mm 3,5 km/h (1 Bft) NO 41 ° 0 min 0,000 mm 0,0 UV-I 0 W/m² -0,2 °C 4,8 km/h (1 Bft)
02.12.2016 20:20 0,9 °C 1,0 °C 92 % 1022,1 hPa 0,0 mm 3,3 km/h (1 Bft) NO 46 ° 0 min 0,000 mm 0,0 UV-I 0 W/m² -0,2 °C 4,8 km/h (1 Bft)
02.12.2016 20:21 0,9 °C 1,0 °C 92 % 1022,1 hPa 0,0 mm 2,4 km/h (1 Bft) O-NO 62 ° 0 min 0,000 mm 0,0 UV-I 0 W/m² -0,2 °C 4,8 km/h (1 Bft)
02.12.2016 20:22 0,9 °C 1,0 °C 92 % 1022,1 hPa 0,0 mm 1,3 km/h (1 Bft) O-NO 62 ° 0 min 0,000 mm 0,0 UV-I 0 W/m² -0,2 °C 3,2 km/h (1 Bft)
02.12.2016 20:23 0,9 °C 0,9 °C 92 % 1022,1 hPa 0,0 mm 3,9 km/h (1 Bft) N-NO 30 ° 0 min 0,000 mm 0,0 UV-I 0 W/m² -0,2 °C 6,4 km/h (2 Bft)
02.12.2016 20:24 0,9 °C 0,9 °C 92 % 1022,1 hPa 0,0 mm 1,9 km/h (1 Bft) N-NO 30 ° 0 min 0,000 mm 0,0 UV-I 0 W/m² -0,2 °C 3,2 km/h (1 Bft)
02.12.2016 20:25 0,9 °C 0,9 °C 92 % 1022,1 hPa 0,0 mm 0,7 km/h (0 Bft) N-NO 30 ° 0 min 0,000 mm 0,0 UV-I 0 W/m² -0,2 °C 1,6 km/h (1 Bft)
02.12.2016 20:26 0,9 °C 0,9 °C 92 % 1022,1 hPa 0,0 mm 0,0 km/h (0 Bft) N-NO 30 ° 0 min 0,000 mm 0,0 UV-I 0 W/m² -0,2 °C 0,0 km/h (0 Bft)
02.12.2016 20:27 0,9 °C 0,9 °C 92 % 1022,0 hPa 0,0 mm 0,0 km/h (0 Bft) N-NO 30 ° 0 min 0,000 mm 0,0 UV-I 0 W/m² -0,2 °C 0,0 km/h (0 Bft)
02.12.2016 20:28 0,9 °C 0,9 °C 92 % 1022,0 hPa 0,0 mm 0,0 km/h (0 Bft) N-NO 30 ° 0 min 0,000 mm 0,0 UV-I 0 W/m² -0,2 °C 0,0 km/h (0 Bft)
02.12.2016 20:29 0,9 °C 0,9 °C 92 % 1022,1 hPa 0,0 mm 0,0 km/h (0 Bft) N-NO 30 ° 0 min 0,000 mm 0,0 UV-I 0 W/m² -0,2 °C 0,0 km/h (0 Bft)
02.12.2016 20:30 0,9 °C 0,9 °C 92 % 1022,0 hPa 0,0 mm 0,1 km/h (0 Bft) N-NO 30 ° 0 min 0,000 mm 0,0 UV-I 0 W/m² -0,2 °C 1,6 km/h (1 Bft)
02.12.2016 20:31 0,9 °C 0,9 °C 92 % 1022,0 hPa 0,0 mm 2,1 km/h (1 Bft) N-NO 30 ° 0 min 0,000 mm 0,0 UV-I 0 W/m² -0,2 °C 3,2 km/h (1 Bft)
02.12.2016 20:32 0,9 °C 0,9 °C 92 % 1022,1 hPa 0,0 mm 0,6 km/h (0 Bft) N-NO 30 ° 0 min 0,000 mm 0,0 UV-I 0 W/m² -0,2 °C 1,6 km/h (1 Bft)
02.12.2016 20:33 0,9 °C 0,9 °C 92 % 1022,0 hPa 0,0 mm 0,0 km/h (0 Bft) N-NO 30 ° 0 min 0,000 mm 0,0 UV-I 0 W/m² -0,2 °C 0,0 km/h (0 Bft)
02.12.2016 20:34 0,9 °C 0,9 °C 92 % 1022,0 hPa 0,0 mm 0,0 km/h (0 Bft) N-NO 30 ° 0 min 0,000 mm 0,0 UV-I 0 W/m² -0,2 °C 0,0 km/h (0 Bft)
02.12.2016 20:35 0,9 °C 0,9 °C 92 % 1022,0 hPa 0,0 mm 0,3 km/h (0 Bft) N-NO 30 ° 0 min 0,000 mm 0,0 UV-I 0 W/m² -0,2 °C 1,6 km/h (1 Bft)
02.12.2016 20:36 0,9 °C 0,9 °C 92 % 1022,0 hPa 0,0 mm 0,6 km/h (0 Bft) N-NO 30 ° 0 min 0,000 mm 0,0 UV-I 0 W/m² -0,2 °C 1,6 km/h (1 Bft)
02.12.2016 20:37 0,9 °C 0,9 °C 92 % 1022,0 hPa 0,0 mm 0,2 km/h (0 Bft) N-NO 30 ° 0 min 0,000 mm 0,0 UV-I 0 W/m² -0,2 °C 1,6 km/h (1 Bft)
02.12.2016 20:38 0,9 °C 0,9 °C 92 % 1022,1 hPa 0,0 mm 0,4 km/h (0 Bft) N-NO 30 ° 0 min 0,000 mm 0,0 UV-I 0 W/m² -0,2 °C 1,6 km/h (1 Bft)
02.12.2016 20:39 0,9 °C 0,9 °C 92 % 1022,0 hPa 0,0 mm 0,1 km/h (0 Bft) N-NO 30 ° 0 min 0,000 mm 0,0 UV-I 0 W/m² -0,2 °C 1,6 km/h (1 Bft)
02.12.2016 20:40 0,9 °C 0,9 °C 92 % 1022,0 hPa 0,0 mm 0,0 km/h (0 Bft) N-NO 30 ° 0 min 0,000 mm 0,0 UV-I 0 W/m² -0,2 °C 0,0 km/h (0 Bft)
02.12.2016 20:41 0,9 °C 0,9 °C 92 % 1022,0 hPa 0,0 mm 0,0 km/h (0 Bft) N-NO 30 ° 0 min 0,000 mm 0,0 UV-I 0 W/m² -0,2 °C 0,0 km/h (0 Bft)
02.12.2016 20:42 0,9 °C 0,9 °C 92 % 1022,0 hPa 0,0 mm 0,0 km/h (0 Bft) N-NO 30 ° 0 min 0,000 mm 0,0 UV-I 0 W/m² -0,2 °C 0,0 km/h (0 Bft)
02.12.2016 20:43 0,9 °C 0,9 °C 92 % 1022,0 hPa 0,0 mm 0,0 km/h (0 Bft) N-NO 30 ° 0 min 0,000 mm 0,0 UV-I 0 W/m² -0,2 °C 0,0 km/h (0 Bft)
02.12.2016 20:44 0,9 °C 0,9 °C 92 % 1022,0 hPa 0,0 mm 0,4 km/h (0 Bft) N-NO 30 ° 0 min 0,000 mm 0,0 UV-I 0 W/m² -0,2 °C 1,6 km/h (1 Bft)
02.12.2016 20:45 0,9 °C 0,9 °C 92 % 1021,9 hPa 0,0 mm 0,7 km/h (0 Bft) N-NO 30 ° 0 min 0,000 mm 0,0 UV-I 0 W/m² -0,2 °C 1,6 km/h (1 Bft)
02.12.2016 20:46 0,9 °C 0,9 °C 92 % 1021,9 hPa 0,0 mm 0,3 km/h (0 Bft) N-NO 30 ° 0 min 0,000 mm 0,0 UV-I 0 W/m² -0,2 °C 1,6 km/h (1 Bft)
02.12.2016 20:47 0,9 °C 0,9 °C 92 % 1021,9 hPa 0,0 mm 0,3 km/h (0 Bft) N-NO 30 ° 0 min 0,000 mm 0,0 UV-I 0 W/m² -0,2 °C 1,6 km/h (1 Bft)
02.12.2016 20:48 0,9 °C 0,9 °C 92 % 1021,9 hPa 0,0 mm 0,3 km/h (0 Bft) N-NO 30 ° 0 min 0,000 mm 0,0 UV-I 0 W/m² -0,2 °C 1,6 km/h (1 Bft)
02.12.2016 20:49 0,8 °C 0,9 °C 92 % 1021,9 hPa 0,0 mm 0,0 km/h (0 Bft) N-NO 30 ° 0 min 0,000 mm 0,0 UV-I 0 W/m² -0,3 °C 0,0 km/h (0 Bft)
02.12.2016 20:50 0,8 °C 0,9 °C 92 % 1021,8 hPa 0,0 mm 0,0 km/h (0 Bft) N-NO 30 ° 0 min 0,000 mm 0,0 UV-I 0 W/m² -0,3 °C 0,0 km/h (0 Bft)
02.12.2016 20:51 0,8 °C 0,9 °C 92 % 1021,8 hPa 0,0 mm 0,5 km/h (0 Bft) N-NO 30 ° 0 min 0,000 mm 0,0 UV-I 0 W/m² -0,3 °C 1,6 km/h (1 Bft)
02.12.2016 20:52 0,8 °C 0,8 °C 92 % 1021,9 hPa 0,0 mm 1,1 km/h (1 Bft) N-NO 30 ° 0 min 0,000 mm 0,0 UV-I 0 W/m² -0,3 °C 1,6 km/h (1 Bft)
02.12.2016 20:53 0,8 °C 0,8 °C 92 % 1021,8 hPa 0,0 mm 0,7 km/h (0 Bft) N-NO 30 ° 0 min 0,000 mm 0,0 UV-I 0 W/m² -0,3 °C 1,6 km/h (1 Bft)
02.12.2016 20:54 0,8 °C 0,8 °C 92 % 1021,8 hPa 0,0 mm 0,3 km/h (0 Bft) N-NO 30 ° 0 min 0,000 mm 0,0 UV-I 0 W/m² -0,3 °C 1,6 km/h (1 Bft)
02.12.2016 20:55 0,8 °C 0,8 °C 92 % 1021,8 hPa 0,0 mm 1,2 km/h (1 Bft) N-NO 30 ° 0 min 0,000 mm 0,0 UV-I 0 W/m² -0,3 °C 3,2 km/h (1 Bft)
02.12.2016 20:56 0,8 °C 0,8 °C 92 % 1021,7 hPa 0,0 mm 1,6 km/h (1 Bft) N-NO 30 ° 0 min 0,000 mm 0,0 UV-I 0 W/m² -0,3 °C 3,2 km/h (1 Bft)
02.12.2016 20:57 0,8 °C 0,8 °C 92 % 1021,7 hPa 0,0 mm 0,0 km/h (0 Bft) N-NO 30 ° 0 min 0,000 mm 0,0 UV-I 0 W/m² -0,3 °C 0,0 km/h (0 Bft)
02.12.2016 20:58 0,7 °C 0,8 °C 92 % 1021,7 hPa 0,0 mm 0,3 km/h (0 Bft) N-NO 30 ° 0 min 0,000 mm 0,0 UV-I 0 W/m² -0,4 °C 1,6 km/h (1 Bft)
02.12.2016 20:59 0,7 °C 0,8 °C 92 % 1021,7 hPa 0,0 mm 0,9 km/h (0 Bft) N-NO 30 ° 0 min 0,000 mm 0,0 UV-I 0 W/m² -0,4 °C 1,6 km/h (1 Bft)
02.12.2016 21:00 0,7 °C 0,8 °C 92 % 1021,7 hPa 0,0 mm 0,1 km/h (0 Bft) N-NO 30 ° 0 min 0,000 mm 0,0 UV-I 0 W/m² -0,4 °C 1,6 km/h (1 Bft)
02.12.2016 21:01 0,7 °C 0,7 °C 92 % 1021,7 hPa 0,0 mm 1,0 km/h (0 Bft) N-NO 30 ° 0 min 0,000 mm 0,0 UV-I 0 W/m² -0,4 °C 1,6 km/h (1 Bft)
02.12.2016 21:02 0,7 °C 0,7 °C 92 % 1021,7 hPa 0,0 mm 0,3 km/h (0 Bft) N-NO 30 ° 0 min 0,000 mm 0,0 UV-I 0 W/m² -0,4 °C 1,6 km/h (1 Bft)
02.12.2016 21:03 0,7 °C 0,7 °C 92 % 1021,7 hPa 0,0 mm 0,0 km/h (0 Bft) N-NO 30 ° 0 min 0,000 mm 0,0 UV-I 0 W/m² -0,4 °C 0,0 km/h (0 Bft)
02.12.2016 21:04 0,7 °C 0,7 °C 92 % 1021,7 hPa 0,0 mm 0,0 km/h (0 Bft) N-NO 30 ° 0 min 0,000 mm 0,0 UV-I 0 W/m² -0,4 °C 0,0 km/h (0 Bft)
02.12.2016 21:05 0,7 °C 0,7 °C 92 % 1021,7 hPa 0,0 mm 0,3 km/h (0 Bft) N-NO 30 ° 0 min 0,000 mm 0,0 UV-I 0 W/m² -0,4 °C 1,6 km/h (1 Bft)
02.12.2016 21:06 0,7 °C 0,7 °C 92 % 1021,8 hPa 0,0 mm 1,6 km/h (1 Bft) N-NO 30 ° 0 min 0,000 mm 0,0 UV-I 0 W/m² -0,4 °C 3,2 km/h (1 Bft)
02.12.2016 21:07 0,7 °C 0,7 °C 92 % 1021,8 hPa 0,0 mm 1,7 km/h (1 Bft) N-NO 30 ° 0 min 0,000 mm 0,0 UV-I 0 W/m² -0,4 °C 3,2 km/h (1 Bft)
02.12.2016 21:08 0,6 °C 0,7 °C 92 % 1021,8 hPa 0,0 mm 1,7 km/h (1 Bft) N-NO 30 ° 0 min 0,000 mm 0,0 UV-I 0 W/m² -0,5 °C 3,2 km/h (1 Bft)
02.12.2016 21:09 0,6 °C 0,6 °C 92 % 1021,8 hPa 0,0 mm 0,2 km/h (0 Bft) N-NO 30 ° 0 min 0,000 mm 0,0 UV-I 0 W/m² -0,5 °C 1,6 km/h (1 Bft)
02.12.2016 21:10 0,6 °C 0,6 °C 92 % 1021,7 hPa 0,0 mm 0,0 km/h (0 Bft) N-NO 30 ° 0 min 0,000 mm 0,0 UV-I 0 W/m² -0,5 °C 0,0 km/h (0 Bft)
02.12.2016 21:11 0,6 °C 0,6 °C 91 % 1021,7 hPa 0,0 mm 0,0 km/h (0 Bft) N-NO 30 ° 0 min 0,000 mm 0,0 UV-I 0 W/m² -0,7 °C 0,0 km/h (0 Bft)
02.12.2016 21:12 0,6 °C 0,6 °C 91 % 1021,8 hPa 0,0 mm 0,1 km/h (0 Bft) N-NO 30 ° 0 min 0,000 mm 0,0 UV-I 0 W/m² -0,7 °C 1,6 km/h (1 Bft)
02.12.2016 21:13 0,5 °C 0,6 °C 91 % 1021,8 hPa 0,0 mm 0,2 km/h (0 Bft) N-NO 30 ° 0 min 0,000 mm 0,0 UV-I 0 W/m² -0,8 °C 1,6 km/h (1 Bft)
02.12.2016 21:14 0,5 °C 0,6 °C 91 % 1021,8 hPa 0,0 mm 1,0 km/h (0 Bft) N-NO 30 ° 0 min 0,000 mm 0,0 UV-I 0 W/m² -0,8 °C 1,6 km/h (1 Bft)
02.12.2016 21:15 0,5 °C 0,5 °C 91 % 1021,8 hPa 0,0 mm 1,0 km/h (0 Bft) N-NO 30 ° 0 min 0,000 mm 0,0 UV-I 0 W/m² -0,8 °C 1,6 km/h (1 Bft)
02.12.2016 21:16 0,4 °C 0,5 °C 91 % 1021,7 hPa 0,0 mm 1,2 km/h (1 Bft) N-NO 30 ° 0 min 0,000 mm 0,0 UV-I 0 W/m² -0,9 °C 1,6 km/h (1 Bft)
02.12.2016 21:17 0,4 °C 0,4 °C 91 % 1021,7 hPa 0,0 mm 1,4 km/h (1 Bft) N-NO 30 ° 0 min 0,000 mm 0,0 UV-I 0 W/m² -0,9 °C 1,6 km/h (1 Bft)
02.12.2016 21:18 0,4 °C 0,4 °C 91 % 1021,7 hPa 0,0 mm 0,5 km/h (0 Bft) N-NO 30 ° 0 min 0,000 mm 0,0 UV-I 0 W/m² -0,9 °C 1,6 km/h (1 Bft)
02.12.2016 21:19 0,4 °C 0,4 °C 91 % 1021,7 hPa 0,0 mm 0,0 km/h (0 Bft) N-NO 30 ° 0 min 0,000 mm 0,0 UV-I 0 W/m² -0,9 °C 0,0 km/h (0 Bft)
02.12.2016 21:20 0,3 °C 0,4 °C 91 % 1021,7 hPa 0,0 mm 0,1 km/h (0 Bft) N-NO 30 ° 0 min 0,000 mm 0,0 UV-I 0 W/m² -1,0 °C 1,6 km/h (1 Bft)
02.12.2016 21:21 0,3 °C 0,3 °C 91 % 1021,7 hPa 0,0 mm 1,8 km/h (1 Bft) N-NO 30 ° 0 min 0,000 mm 0,0 UV-I 0 W/m² -1,0 °C 3,2 km/h (1 Bft)
02.12.2016 21:22 0,3 °C 0,3 °C 91 % 1021,7 hPa 0,0 mm 1,1 km/h (1 Bft) N-NO 31 ° 0 min 0,000 mm 0,0 UV-I 0 W/m² -1,0 °C 3,2 km/h (1 Bft)
02.12.2016 21:23 0,2 °C 0,3 °C 91 % 1021,6 hPa 0,0 mm 2,2 km/h (1 Bft) O-NO 61 ° 0 min 0,000 mm 0,0 UV-I 0 W/m² -1,1 °C 3,2 km/h (1 Bft)
02.12.2016 21:24 0,2 °C 0,2 °C 91 % 1021,6 hPa 0,0 mm 0,7 km/h (0 Bft) O-NO 61 ° 0 min 0,000 mm 0,0 UV-I 0 W/m² -1,1 °C 1,6 km/h (1 Bft)
02.12.2016 21:25 0,2 °C 0,2 °C 91 % 1021,6 hPa 0,0 mm 0,5 km/h (0 Bft) O-NO 61 ° 0 min 0,000 mm 0,0 UV-I 0 W/m² -1,1 °C 1,6 km/h (1 Bft)
02.12.2016 21:26 0,1 °C 0,2 °C 91 % 1021,6 hPa 0,0 mm 1,0 km/h (0 Bft) O-NO 61 ° 0 min 0,000 mm 0,0 UV-I 0 W/m² -1,2 °C 1,6 km/h (1 Bft)
02.12.2016 21:27 0,1 °C 0,1 °C 91 % 1021,6 hPa 0,0 mm 1,9 km/h (1 Bft) O 80 ° 0 min 0,000 mm 0,0 UV-I 0 W/m² -1,2 °C 3,2 km/h (1 Bft)
02.12.2016 21:28 0,1 °C 0,1 °C 91 % 1021,6 hPa 0,0 mm 1,4 km/h (1 Bft) O 81 ° 0 min 0,000 mm 0,0 UV-I 0 W/m² -1,2 °C 1,6 km/h (1 Bft)
02.12.2016 21:29 0,1 °C 0,1 °C 91 % 1021,6 hPa 0,0 mm 1,2 km/h (1 Bft) O 81 ° 0 min 0,000 mm 0,0 UV-I 0 W/m² -1,2 °C 1,6 km/h (1 Bft)
02.12.2016 21:30 0,1 °C 0,1 °C 92 % 1021,6 hPa 0,0 mm 1,4 km/h (1 Bft) O 81 ° 0 min 0,000 mm 0,0 UV-I 0 W/m² -1,0 °C 3,2 km/h (1 Bft)
02.12.2016 21:31 0,0 °C 0,1 °C 92 % 1021,6 hPa 0,0 mm 1,5 km/h (1 Bft) O 81 ° 0 min 0,000 mm 0,0 UV-I 0 W/m² -1,1 °C 3,2 km/h (1 Bft)
02.12.2016 21:32 0,0 °C 0,0 °C 92 % 1021,5 hPa 0,0 mm 1,9 km/h (1 Bft) O 81 ° 0 min 0,000 mm 0,0 UV-I 0 W/m² -1,1 °C 3,2 km/h (1 Bft)
02.12.2016 21:33 -0,1 °C 0,0 °C 92 % 1021,5 hPa 0,0 mm 2,3 km/h (1 Bft) O 81 ° 0 min 0,000 mm 0,0 UV-I 0 W/m² -1,2 °C 3,2 km/h (1 Bft)
02.12.2016 21:34 -0,1 °C -0,1 °C 92 % 1021,5 hPa 0,0 mm 2,9 km/h (1 Bft) O 81 ° 0 min 0,000 mm 0,0 UV-I 0 W/m² -1,2 °C 3,2 km/h (1 Bft)
02.12.2016 21:35 -0,1 °C -0,1 °C 92 % 1021,5 hPa 0,0 mm 1,8 km/h (1 Bft) O 81 ° 0 min 0,000 mm 0,0 UV-I 0 W/m² -1,2 °C 3,2 km/h (1 Bft)
02.12.2016 21:36 -0,2 °C -0,1 °C 92 % 1021,6 hPa 0,0 mm 1,3 km/h (1 Bft) O 81 ° 0 min 0,000 mm 0,0 UV-I 0 W/m² -1,3 °C 1,6 km/h (1 Bft)
02.12.2016 21:37 -0,2 °C -0,2 °C 91 % 1021,6 hPa 0,0 mm 1,1 km/h (1 Bft) O 81 ° 0 min 0,000 mm 0,0 UV-I 0 W/m² -1,5 °C 1,6 km/h (1 Bft)
02.12.2016 21:38 -0,2 °C -0,2 °C 91 % 1021,6 hPa 0,0 mm 1,7 km/h (1 Bft) O 81 ° 0 min 0,000 mm 0,0 UV-I 0 W/m² -1,5 °C 3,2 km/h (1 Bft)
02.12.2016 21:39 -0,2 °C -0,2 °C 91 % 1021,5 hPa 0,0 mm 0,9 km/h (0 Bft) O 81 ° 0 min 0,000 mm 0,0 UV-I 0 W/m² -1,5 °C 1,6 km/h (1 Bft)
02.12.2016 21:40 -0,3 °C -0,2 °C 91 % 1021,5 hPa 0,0 mm 1,1 km/h (1 Bft) O 81 ° 0 min 0,000 mm 0,0 UV-I 0 W/m² -1,6 °C 1,6 km/h (1 Bft)
02.12.2016 21:41 -0,3 °C -0,2 °C 91 % 1021,5 hPa 0,0 mm 0,7 km/h (0 Bft) O 81 ° 0 min 0,000 mm 0,0 UV-I 0 W/m² -1,6 °C 1,6 km/h (1 Bft)
02.12.2016 21:42 -0,3 °C -0,3 °C 91 % 1021,5 hPa 0,0 mm 0,2 km/h (0 Bft) O 81 ° 0 min 0,000 mm 0,0 UV-I 0 W/m² -1,6 °C 1,6 km/h (1 Bft)
02.12.2016 21:43 -0,3 °C -0,3 °C 91 % 1021,5 hPa 0,0 mm 0,4 km/h (0 Bft) O 81 ° 0 min 0,000 mm 0,0 UV-I 0 W/m² -1,6 °C 1,6 km/h (1 Bft)
02.12.2016 21:44 -0,3 °C -0,3 °C 91 % 1021,4 hPa 0,0 mm 1,4 km/h (1 Bft) O 81 ° 0 min 0,000 mm 0,0 UV-I 0 W/m² -1,6 °C 3,2 km/h (1 Bft)
02.12.2016 21:45 -0,3 °C -0,3 °C 91 % 1021,4 hPa 0,0 mm 0,6 km/h (0 Bft) O 81 ° 0 min 0,000 mm 0,0 UV-I 0 W/m² -1,6 °C 1,6 km/h (1 Bft)
02.12.2016 21:46 -0,3 °C -0,3 °C 91 % 1021,5 hPa 0,0 mm 0,0 km/h (0 Bft) O 81 ° 0 min 0,000 mm 0,0 UV-I 0 W/m² -1,6 °C 0,0 km/h (0 Bft)
02.12.2016 21:47 -0,4 °C -0,3 °C 91 % 1021,4 hPa 0,0 mm 0,0 km/h (0 Bft) O 81 ° 0 min 0,000 mm 0,0 UV-I 0 W/m² -1,7 °C 0,0 km/h (0 Bft)
02.12.2016 21:48 -0,4 °C -0,3 °C 91 % 1021,5 hPa 0,0 mm 0,0 km/h (0 Bft) O 81 ° 0 min 0,000 mm 0,0 UV-I 0 W/m² -1,7 °C 0,0 km/h (0 Bft)
02.12.2016 21:49 -0,4 °C -0,4 °C 91 % 1021,5 hPa 0,0 mm 0,0 km/h (0 Bft) O 81 ° 0 min 0,000 mm 0,0 UV-I 0 W/m² -1,7 °C 0,0 km/h (0 Bft)
02.12.2016 21:50 -0,4 °C -0,4 °C 91 % 1021,5 hPa 0,0 mm 0,0 km/h (0 Bft) O 81 ° 0 min 0,000 mm 0,0 UV-I 0 W/m² -1,7 °C 0,0 km/h (0 Bft)
02.12.2016 21:51 -0,4 °C -0,4 °C 91 % 1021,5 hPa 0,0 mm 0,0 km/h (0 Bft) O 81 ° 0 min 0,000 mm 0,0 UV-I 0 W/m² -1,7 °C 0,0 km/h (0 Bft)
02.12.2016 21:52 -0,4 °C -0,4 °C 91 % 1021,5 hPa 0,0 mm 0,3 km/h (0 Bft) O 81 ° 0 min 0,000 mm 0,0 UV-I 0 W/m² -1,7 °C 1,6 km/h (1 Bft)
02.12.2016 21:53 -0,4 °C -0,4 °C 91 % 1021,5 hPa 0,0 mm 0,8 km/h (0 Bft) O 81 ° 0 min 0,000 mm 0,0 UV-I 0 W/m² -1,7 °C 1,6 km/h (1 Bft)
02.12.2016 21:54 -0,5 °C -0,4 °C 91 % 1021,5 hPa 0,0 mm 0,0 km/h (0 Bft) O 81 ° 0 min 0,000 mm 0,0 UV-I 0 W/m² -1,8 °C 0,0 km/h (0 Bft)
02.12.2016 21:55 -0,5 °C -0,5 °C 91 % 1021,5 hPa 0,0 mm 0,0 km/h (0 Bft) O 81 ° 0 min 0,000 mm 0,0 UV-I 0 W/m² -1,8 °C 0,0 km/h (0 Bft)
02.12.2016 21:56 -0,6 °C -0,5 °C 91 % 1021,5 hPa 0,0 mm 0,0 km/h (0 Bft) O 81 ° 0 min 0,000 mm 0,0 UV-I 0 W/m² -1,9 °C 0,0 km/h (0 Bft)
02.12.2016 21:57 -0,6 °C -0,5 °C 91 % 1021,4 hPa 0,0 mm 0,0 km/h (0 Bft) O 81 ° 0 min 0,000 mm 0,0 UV-I 0 W/m² -1,9 °C 0,0 km/h (0 Bft)
02.12.2016 21:58 -0,6 °C -0,5 °C 91 % 1021,4 hPa 0,0 mm 0,0 km/h (0 Bft) O 81 ° 0 min 0,000 mm 0,0 UV-I 0 W/m² -1,9 °C 0,0 km/h (0 Bft)
02.12.2016 21:59 -0,6 °C -0,6 °C 91 % 1021,5 hPa 0,0 mm 0,0 km/h (0 Bft) O 81 ° 0 min 0,000 mm 0,0 UV-I 0 W/m² -1,9 °C 0,0 km/h (0 Bft)
02.12.2016 22:00 -0,6 °C -0,6 °C 91 % 1021,4 hPa 0,0 mm 0,0 km/h (0 Bft) O 81 ° 0 min 0,000 mm 0,0 UV-I 0 W/m² -1,9 °C 0,0 km/h (0 Bft)
02.12.2016 22:01 -0,6 °C -0,6 °C 91 % 1021,5 hPa 0,0 mm 0,0 km/h (0 Bft) O 81 ° 0 min 0,000 mm 0,0 UV-I 0 W/m² -1,9 °C 0,0 km/h (0 Bft)
02.12.2016 22:02 -0,6 °C -0,6 °C 91 % 1021,5 hPa 0,0 mm 0,0 km/h (0 Bft) O 81 ° 0 min 0,000 mm 0,0 UV-I 0 W/m² -1,9 °C 0,0 km/h (0 Bft)
02.12.2016 22:03 -0,7 °C -0,6 °C 91 % 1021,4 hPa 0,0 mm 0,0 km/h (0 Bft) O 81 ° 0 min 0,000 mm 0,0 UV-I 0 W/m² -2,0 °C 0,0 km/h (0 Bft)
02.12.2016 22:04 -0,7 °C -0,7 °C 91 % 1021,5 hPa 0,0 mm 0,0 km/h (0 Bft) O 81 ° 0 min 0,000 mm 0,0 UV-I 0 W/m² -2,0 °C 0,0 km/h (0 Bft)
02.12.2016 22:05 -0,7 °C -0,7 °C 91 % 1021,4 hPa 0,0 mm 0,0 km/h (0 Bft) O 81 ° 0 min 0,000 mm 0,0 UV-I 0 W/m² -2,0 °C 0,0 km/h (0 Bft)
02.12.2016 22:06 -0,7 °C -0,7 °C 91 % 1021,5 hPa 0,0 mm 0,0 km/h (0 Bft) O 81 ° 0 min 0,000 mm 0,0 UV-I 0 W/m² -2,0 °C 0,0 km/h (0 Bft)
02.12.2016 22:07 -0,8 °C -0,7 °C 91 % 1021,5 hPa 0,0 mm 0,0 km/h (0 Bft) O 81 ° 0 min 0,000 mm 0,0 UV-I 0 W/m² -2,1 °C 0,0 km/h (0 Bft)
02.12.2016 22:08 -0,7 °C -0,7 °C 91 % 1021,5 hPa 0,0 mm 0,0 km/h (0 Bft) O 81 ° 0 min 0,000 mm 0,0 UV-I 0 W/m² -2,0 °C 0,0 km/h (0 Bft)
02.12.2016 22:09 -0,8 °C -0,7 °C 91 % 1021,4 hPa 0,0 mm 0,0 km/h (0 Bft) O 81 ° 0 min 0,000 mm 0,0 UV-I 0 W/m² -2,1 °C 0,0 km/h (0 Bft)
02.12.2016 22:10 -0,8 °C -0,8 °C 91 % 1021,5 hPa 0,0 mm 0,0 km/h (0 Bft) O 81 ° 0 min 0,000 mm 0,0 UV-I 0 W/m² -2,1 °C 0,0 km/h (0 Bft)
02.12.2016 22:11 -0,8 °C -0,8 °C 91 % 1021,5 hPa 0,0 mm 0,0 km/h (0 Bft) O 81 ° 0 min 0,000 mm 0,0 UV-I 0 W/m² -2,1 °C 0,0 km/h (0 Bft)
02.12.2016 22:12 -0,8 °C -0,8 °C 91 % 1021,5 hPa 0,0 mm 0,0 km/h (0 Bft) O 81 ° 0 min 0,000 mm 0,0 UV-I 0 W/m² -2,1 °C 0,0 km/h (0 Bft)
02.12.2016 22:13 -0,8 °C -0,8 °C 91 % 1021,5 hPa 0,0 mm 0,0 km/h (0 Bft) O 81 ° 0 min 0,000 mm 0,0 UV-I 0 W/m² -2,1 °C 0,0 km/h (0 Bft)
02.12.2016 22:14 -0,8 °C -0,8 °C 91 % 1021,5 hPa 0,0 mm 0,0 km/h (0 Bft) O 81 ° 0 min 0,000 mm 0,0 UV-I 0 W/m² -2,1 °C 0,0 km/h (0 Bft)
02.12.2016 22:15 -0,9 °C -0,8 °C 91 % 1021,5 hPa 0,0 mm 0,0 km/h (0 Bft) O 81 ° 0 min 0,000 mm 0,0 UV-I 0 W/m² -2,2 °C 0,0 km/h (0 Bft)
02.12.2016 22:16 -0,9 °C -0,9 °C 91 % 1021,6 hPa 0,0 mm 0,0 km/h (0 Bft) O 81 ° 0 min 0,000 mm 0,0 UV-I 0 W/m² -2,2 °C 0,0 km/h (0 Bft)
02.12.2016 22:17 -0,9 °C -0,9 °C 91 % 1021,5 hPa 0,0 mm 0,0 km/h (0 Bft) O 81 ° 0 min 0,000 mm 0,0 UV-I 0 W/m² -2,2 °C 0,0 km/h (0 Bft)
02.12.2016 22:18 -0,9 °C -0,9 °C 91 % 1021,5 hPa 0,0 mm 0,0 km/h (0 Bft) O 81 ° 0 min 0,000 mm 0,0 UV-I 0 W/m² -2,2 °C 0,0 km/h (0 Bft)
02.12.2016 22:19 -0,9 °C -0,9 °C 91 % 1021,5 hPa 0,0 mm 0,0 km/h (0 Bft) O 81 ° 0 min 0,000 mm 0,0 UV-I 0 W/m² -2,2 °C 0,0 km/h (0 Bft)
02.12.2016 22:20 -0,9 °C -0,9 °C 91 % 1021,5 hPa 0,0 mm 0,0 km/h (0 Bft) O 81 ° 0 min 0,000 mm 0,0 UV-I 0 W/m² -2,2 °C 0,0 km/h (0 Bft)
02.12.2016 22:21 -0,9 °C -0,9 °C 91 % 1021,5 hPa 0,0 mm 0,0 km/h (0 Bft) O 81 ° 0 min 0,000 mm 0,0 UV-I 0 W/m² -2,2 °C 0,0 km/h (0 Bft)
02.12.2016 22:22 -0,9 °C -0,9 °C 91 % 1021,5 hPa 0,0 mm 0,0 km/h (0 Bft) O 81 ° 0 min 0,000 mm 0,0 UV-I 0 W/m² -2,2 °C 0,0 km/h (0 Bft)
02.12.2016 22:23 -0,9 °C -0,9 °C 91 % 1021,6 hPa 0,0 mm 0,0 km/h (0 Bft) O 81 ° 0 min 0,000 mm 0,0 UV-I 0 W/m² -2,2 °C 0,0 km/h (0 Bft)
02.12.2016 22:24 -0,9 °C -0,9 °C 91 % 1021,5 hPa 0,0 mm 0,0 km/h (0 Bft) O 81 ° 0 min 0,000 mm 0,0 UV-I 0 W/m² -2,2 °C 0,0 km/h (0 Bft)
02.12.2016 22:25 -1,0 °C -0,9 °C 91 % 1021,6 hPa 0,0 mm 0,0 km/h (0 Bft) O 81 ° 0 min 0,000 mm 0,0 UV-I 0 W/m² -2,3 °C 0,0 km/h (0 Bft)
02.12.2016 22:26 -1,0 °C -0,9 °C 91 % 1021,5 hPa 0,0 mm 0,0 km/h (0 Bft) O 81 ° 0 min 0,000 mm 0,0 UV-I 0 W/m² -2,3 °C 0,0 km/h (0 Bft)
02.12.2016 22:27 -1,0 °C -0,9 °C 91 % 1021,5 hPa 0,0 mm 0,8 km/h (0 Bft) O 81 ° 0 min 0,000 mm 0,0 UV-I 0 W/m² -2,3 °C 1,6 km/h (1 Bft)
02.12.2016 22:28 -1,0 °C -1,0 °C 92 % 1021,5 hPa 0,0 mm 1,0 km/h (0 Bft) O 81 ° 0 min 0,000 mm 0,0 UV-I 0 W/m² -2,1 °C 1,6 km/h (1 Bft)
02.12.2016 22:29 -1,0 °C -0,9 °C 92 % 1021,5 hPa 0,0 mm 0,9 km/h (0 Bft) O 81 ° 0 min 0,000 mm 0,0 UV-I 0 W/m² -2,1 °C 1,6 km/h (1 Bft)
02.12.2016 22:30 -1,0 °C -1,0 °C 92 % 1021,5 hPa 0,0 mm 3,0 km/h (1 Bft) O 81 ° 0 min 0,000 mm 0,0 UV-I 0 W/m² -2,1 °C 3,2 km/h (1 Bft)
02.12.2016 22:31 -0,9 °C -0,9 °C 92 % 1021,4 hPa 0,0 mm 2,9 km/h (1 Bft) O 81 ° 0 min 0,000 mm 0,0 UV-I 0 W/m² -2,0 °C 3,2 km/h (1 Bft)
02.12.2016 22:32 -0,9 °C -0,9 °C 92 % 1021,4 hPa 0,0 mm 2,0 km/h (1 Bft) O 81 ° 0 min 0,000 mm 0,0 UV-I 0 W/m² -2,0 °C 3,2 km/h (1 Bft)
02.12.2016 22:33 -0,9 °C -0,9 °C 92 % 1021,4 hPa 0,0 mm 2,5 km/h (1 Bft) O 81 ° 0 min 0,000 mm 0,0 UV-I 0 W/m² -2,0 °C 3,2 km/h (1 Bft)
02.12.2016 22:34 -0,9 °C -0,9 °C 92 % 1021,4 hPa 0,0 mm 2,1 km/h (1 Bft) O 81 ° 0 min 0,000 mm 0,0 UV-I 0 W/m² -2,0 °C 4,8 km/h (1 Bft)
02.12.2016 22:35 -0,9 °C -0,9 °C 92 % 1021,4 hPa 0,0 mm 2,7 km/h (1 Bft) O 81 ° 0 min 0,000 mm 0,0 UV-I 0 W/m² -2,0 °C 4,8 km/h (1 Bft)
02.12.2016 22:36 -0,9 °C -0,9 °C 92 % 1021,4 hPa 0,0 mm 2,3 km/h (1 Bft) O 81 ° 0 min 0,000 mm 0,0 UV-I 0 W/m² -2,0 °C 3,2 km/h (1 Bft)
02.12.2016 22:37 -0,9 °C -0,9 °C 92 % 1021,5 hPa 0,0 mm 1,5 km/h (1 Bft) O 81 ° 0 min 0,000 mm 0,0 UV-I 0 W/m² -2,0 °C 3,2 km/h (1 Bft)
02.12.2016 22:38 -0,9 °C -0,9 °C 92 % 1021,5 hPa 0,0 mm 1,7 km/h (1 Bft) O 81 ° 0 min 0,000 mm 0,0 UV-I 0 W/m² -2,0 °C 3,2 km/h (1 Bft)
02.12.2016 22:39 -0,9 °C -0,9 °C 92 % 1021,5 hPa 0,0 mm 0,8 km/h (0 Bft) O 81 ° 0 min 0,000 mm 0,0 UV-I 0 W/m² -2,0 °C 1,6 km/h (1 Bft)
02.12.2016 22:40 -0,9 °C -0,9 °C 93 % 1021,5 hPa 0,0 mm 0,6 km/h (0 Bft) O 81 ° 0 min 0,000 mm 0,0 UV-I 0 W/m² -1,9 °C 1,6 km/h (1 Bft)
02.12.2016 22:41 -0,9 °C -0,9 °C 93 % 1021,4 hPa 0,0 mm 1,0 km/h (0 Bft) O 81 ° 0 min 0,000 mm 0,0 UV-I 0 W/m² -1,9 °C 1,6 km/h (1 Bft)
02.12.2016 22:42 -0,9 °C -0,9 °C 93 % 1021,5 hPa 0,0 mm 1,2 km/h (1 Bft) O 88 ° 0 min 0,000 mm 0,0 UV-I 0 W/m² -1,9 °C 3,2 km/h (1 Bft)
02.12.2016 22:43 -0,9 °C -0,9 °C 93 % 1021,5 hPa 0,0 mm 0,3 km/h (0 Bft) O 88 ° 0 min 0,000 mm 0,0 UV-I 0 W/m² -1,9 °C 1,6 km/h (1 Bft)
02.12.2016 22:44 -0,9 °C -0,9 °C 93 % 1021,4 hPa 0,0 mm 0,5 km/h (0 Bft) O 88 ° 0 min 0,000 mm 0,0 UV-I 0 W/m² -1,9 °C 1,6 km/h (1 Bft)
02.12.2016 22:45 -0,9 °C -0,9 °C 93 % 1021,5 hPa 0,0 mm 0,0 km/h (0 Bft) O 88 ° 0 min 0,000 mm 0,0 UV-I 0 W/m² -1,9 °C 0,0 km/h (0 Bft)
02.12.2016 22:46 -0,9 °C -0,9 °C 93 % 1021,5 hPa 0,0 mm 0,2 km/h (0 Bft) O 88 ° 0 min 0,000 mm 0,0 UV-I 0 W/m² -1,9 °C 1,6 km/h (1 Bft)
02.12.2016 22:47 -0,9 °C -0,9 °C 93 % 1021,5 hPa 0,0 mm 0,0 km/h (0 Bft) O 88 ° 0 min 0,000 mm 0,0 UV-I 0 W/m² -1,9 °C 0,0 km/h (0 Bft)
02.12.2016 22:48 -0,9 °C -0,9 °C 93 % 1021,5 hPa 0,0 mm 0,0 km/h (0 Bft) O 88 ° 0 min 0,000 mm 0,0 UV-I 0 W/m² -1,9 °C 0,0 km/h (0 Bft)
02.12.2016 22:49 -0,9 °C -0,9 °C 93 % 1021,5 hPa 0,0 mm 0,0 km/h (0 Bft) O 88 ° 0 min 0,000 mm 0,0 UV-I 0 W/m² -1,9 °C 0,0 km/h (0 Bft)
02.12.2016 22:50 -0,9 °C -0,9 °C 93 % 1021,4 hPa 0,0 mm 0,0 km/h (0 Bft) O 88 ° 0 min 0,000 mm 0,0 UV-I 0 W/m² -1,9 °C 0,0 km/h (0 Bft)
02.12.2016 22:51 -0,9 °C -0,9 °C 93 % 1021,5 hPa 0,0 mm 0,1 km/h (0 Bft) O 88 ° 0 min 0,000 mm 0,0 UV-I 0 W/m² -1,9 °C 1,6 km/h (1 Bft)
02.12.2016 22:52 -0,9 °C -0,9 °C 93 % 1021,5 hPa 0,0 mm 1,5 km/h (1 Bft) O 88 ° 0 min 0,000 mm 0,0 UV-I 0 W/m² -1,9 °C 3,2 km/h (1 Bft)
02.12.2016 22:53 -0,9 °C -0,9 °C 93 % 1021,4 hPa 0,0 mm 1,9 km/h (1 Bft) O 88 ° 0 min 0,000 mm 0,0 UV-I 0 W/m² -1,9 °C 3,2 km/h (1 Bft)
02.12.2016 22:54 -0,9 °C -0,9 °C 93 % 1021,5 hPa 0,0 mm 2,2 km/h (1 Bft) O 88 ° 0 min 0,000 mm 0,0 UV-I 0 W/m² -1,9 °C 3,2 km/h (1 Bft)
02.12.2016 22:55 -0,9 °C -0,9 °C 93 % 1021,5 hPa 0,0 mm 2,3 km/h (1 Bft) O 88 ° 0 min 0,000 mm 0,0 UV-I 0 W/m² -1,9 °C 3,2 km/h (1 Bft)
02.12.2016 22:56 -0,9 °C -0,9 °C 93 % 1021,5 hPa 0,0 mm 2,4 km/h (1 Bft) O 88 ° 0 min 0,000 mm 0,0 UV-I 0 W/m² -1,9 °C 3,2 km/h (1 Bft)
02.12.2016 22:57 -0,9 °C -0,9 °C 93 % 1021,5 hPa 0,0 mm 1,7 km/h (1 Bft) O 88 ° 0 min 0,000 mm 0,0 UV-I 0 W/m² -1,9 °C 3,2 km/h (1 Bft)
02.12.2016 22:58 -0,9 °C -0,9 °C 93 % 1021,5 hPa 0,0 mm 2,3 km/h (1 Bft) O 88 ° 0 min 0,000 mm 0,0 UV-I 0 W/m² -1,9 °C 3,2 km/h (1 Bft)
02.12.2016 22:59 -0,9 °C -0,9 °C 93 % 1021,5 hPa 0,0 mm 2,4 km/h (1 Bft) O 101 ° 0 min 0,000 mm 0,0 UV-I 0 W/m² -1,9 °C 3,2 km/h (1 Bft)
02.12.2016 23:00 -0,9 °C -0,9 °C 93 % 1021,5 hPa 0,0 mm 3,3 km/h (1 Bft) S-SO 154 ° 0 min 0,000 mm 0,0 UV-I 0 W/m² -1,9 °C 6,4 km/h (2 Bft)
02.12.2016 23:01 -0,9 °C -0,9 °C 93 % 1021,5 hPa 0,0 mm 3,0 km/h (1 Bft) SO 131 ° 0 min 0,000 mm 0,0 UV-I 0 W/m² -1,9 °C 4,8 km/h (1 Bft)
02.12.2016 23:02 -0,9 °C -0,9 °C 93 % 1021,5 hPa 0,0 mm 3,0 km/h (1 Bft) S-SO 167 ° 0 min 0,000 mm 0,0 UV-I 0 W/m² -1,9 °C 4,8 km/h (1 Bft)
02.12.2016 23:03 -0,9 °C -0,9 °C 93 % 1021,5 hPa 0,0 mm 3,2 km/h (1 Bft) S-SO 161 ° 0 min 0,000 mm 0,0 UV-I 0 W/m² -1,9 °C 4,8 km/h (1 Bft)
02.12.2016 23:04 -0,9 °C -0,9 °C 93 % 1021,5 hPa 0,0 mm 3,5 km/h (1 Bft) SO 128 ° 0 min 0,000 mm 0,0 UV-I 0 W/m² -1,9 °C 6,4 km/h (2 Bft)
02.12.2016 23:05 -0,9 °C -0,9 °C 93 % 1021,5 hPa 0,0 mm 3,4 km/h (1 Bft) SO 140 ° 0 min 0,000 mm 0,0 UV-I 0 W/m² -1,9 °C 6,4 km/h (2 Bft)
02.12.2016 23:06 -0,9 °C -0,9 °C 93 % 1021,5 hPa 0,0 mm 3,8 km/h (1 Bft) SO 142 ° 0 min 0,000 mm 0,0 UV-I 0 W/m² -1,9 °C 4,8 km/h (1 Bft)
02.12.2016 23:07 -0,9 °C -0,9 °C 93 % 1021,5 hPa 0,0 mm 3,0 km/h (1 Bft) SO 142 ° 0 min 0,000 mm 0,0 UV-I 0 W/m² -1,9 °C 4,8 km/h (1 Bft)
02.12.2016 23:08 -0,9 °C -0,9 °C 93 % 1021,6 hPa 0,0 mm 4,8 km/h (1 Bft) S 175 ° 0 min 0,000 mm 0,0 UV-I 0 W/m² -1,9 °C 8,0 km/h (2 Bft)
02.12.2016 23:09 -0,9 °C -0,9 °C 93 % 1021,6 hPa 0,0 mm 5,0 km/h (1 Bft) S-SO 162 ° 0 min 0,000 mm 0,0 UV-I 0 W/m² -1,9 °C 8,0 km/h (2 Bft)
02.12.2016 23:10 -0,9 °C -0,9 °C 92 % 1021,6 hPa 0,0 mm 3,5 km/h (1 Bft) S-SO 161 ° 0 min 0,000 mm 0,0 UV-I 0 W/m² -2,0 °C 8,0 km/h (2 Bft)
02.12.2016 23:11 -0,9 °C -0,9 °C 92 % 1021,5 hPa 0,0 mm 4,4 km/h (1 Bft) S 173 ° 0 min 0,000 mm 0,0 UV-I 0 W/m² -2,0 °C 8,0 km/h (2 Bft)
02.12.2016 23:12 -0,9 °C -0,8 °C 92 % 1021,6 hPa 0,0 mm 2,7 km/h (1 Bft) S 173 ° 0 min 0,000 mm 0,0 UV-I 0 W/m² -2,0 °C 3,2 km/h (1 Bft)
02.12.2016 23:13 -0,9 °C -0,9 °C 92 % 1021,6 hPa 0,0 mm 1,9 km/h (1 Bft) S 173 ° 0 min 0,000 mm 0,0 UV-I 0 W/m² -2,0 °C 3,2 km/h (1 Bft)
02.12.2016 23:14 -0,9 °C -0,8 °C 92 % 1021,5 hPa 0,0 mm 2,3 km/h (1 Bft) S 173 ° 0 min 0,000 mm 0,0 UV-I 0 W/m² -2,0 °C 4,8 km/h (1 Bft)
02.12.2016 23:15 -0,9 °C -0,9 °C 92 % 1021,5 hPa 0,0 mm 1,8 km/h (1 Bft) S 173 ° 0 min 0,000 mm 0,0 UV-I 0 W/m² -2,0 °C 3,2 km/h (1 Bft)
02.12.2016 23:16 -0,9 °C -0,9 °C 92 % 1021,6 hPa 0,0 mm 2,6 km/h (1 Bft) S-SO 149 ° 0 min 0,000 mm 0,0 UV-I 0 W/m² -2,0 °C 4,8 km/h (1 Bft)
02.12.2016 23:17 -0,9 °C -0,9 °C 92 % 1021,6 hPa 0,0 mm 3,9 km/h (1 Bft) S-SO 149 ° 0 min 0,000 mm 0,0 UV-I 0 W/m² -2,0 °C 4,8 km/h (1 Bft)
02.12.2016 23:18 -0,9 °C -0,9 °C 92 % 1021,5 hPa 0,0 mm 3,2 km/h (1 Bft) S-SO 150 ° 0 min 0,000 mm 0,0 UV-I 0 W/m² -2,0 °C 4,8 km/h (1 Bft)
02.12.2016 23:19 -0,9 °C -0,9 °C 92 % 1021,6 hPa 0,0 mm 3,8 km/h (1 Bft) S-SO 153 ° 0 min 0,000 mm 0,0 UV-I 0 W/m² -2,0 °C 4,8 km/h (1 Bft)
02.12.2016 23:20 -0,9 °C -0,9 °C 92 % 1021,5 hPa 0,0 mm 3,0 km/h (1 Bft) S-SO 162 ° 0 min 0,000 mm 0,0 UV-I 0 W/m² -2,0 °C 6,4 km/h (2 Bft)
02.12.2016 23:21 -0,9 °C -0,8 °C 92 % 1021,6 hPa 0,0 mm 2,9 km/h (1 Bft) S-SO 162 ° 0 min 0,000 mm 0,0 UV-I 0 W/m² -2,0 °C 6,4 km/h (2 Bft)
02.12.2016 23:22 -0,9 °C -0,9 °C 92 % 1021,5 hPa 0,0 mm 4,2 km/h (1 Bft) S-SO 165 ° 0 min 0,000 mm 0,0 UV-I 0 W/m² -2,0 °C 6,4 km/h (2 Bft)
02.12.2016 23:23 -0,9 °C -0,9 °C 92 % 1021,5 hPa 0,0 mm 2,1 km/h (1 Bft) S-SO 165 ° 0 min 0,000 mm 0,0 UV-I 0 W/m² -2,0 °C 3,2 km/h (1 Bft)
02.12.2016 23:24 -0,9 °C -0,9 °C 92 % 1021,5 hPa 0,0 mm 2,5 km/h (1 Bft) S-SO 157 ° 0 min 0,000 mm 0,0 UV-I 0 W/m² -2,0 °C 4,8 km/h (1 Bft)
02.12.2016 23:25 -0,9 °C -0,9 °C 92 % 1021,5 hPa 0,0 mm 1,4 km/h (1 Bft) S-SO 157 ° 0 min 0,000 mm 0,0 UV-I 0 W/m² -2,0 °C 3,2 km/h (1 Bft)
02.12.2016 23:26 -0,8 °C -0,8 °C 92 % 1021,6 hPa 0,0 mm 1,9 km/h (1 Bft) S-SO 157 ° 0 min 0,000 mm 0,0 UV-I 0 W/m² -1,9 °C 3,2 km/h (1 Bft)
02.12.2016 23:27 -0,9 °C -0,8 °C 92 % 1021,6 hPa 0,0 mm 2,9 km/h (1 Bft) S-SO 157 ° 0 min 0,000 mm 0,0 UV-I 0 W/m² -2,0 °C 4,8 km/h (1 Bft)
02.12.2016 23:28 -0,9 °C -0,9 °C 92 % 1021,6 hPa 0,0 mm 3,4 km/h (1 Bft) S-SO 157 ° 0 min 0,000 mm 0,0 UV-I 0 W/m² -2,0 °C 4,8 km/h (1 Bft)
02.12.2016 23:29 -0,9 °C -0,8 °C 92 % 1021,5 hPa 0,0 mm 1,8 km/h (1 Bft) S-SO 157 ° 0 min 0,000 mm 0,0 UV-I 0 W/m² -2,0 °C 3,2 km/h (1 Bft)
02.12.2016 23:30 -0,9 °C -0,9 °C 92 % 1021,6 hPa 0,0 mm 2,7 km/h (1 Bft) S-SO 157 ° 0 min 0,000 mm 0,0 UV-I 0 W/m² -2,0 °C 3,2 km/h (1 Bft)
02.12.2016 23:31 -0,9 °C -0,9 °C 92 % 1021,6 hPa 0,0 mm 3,4 km/h (1 Bft) S-SO 149 ° 0 min 0,000 mm 0,0 UV-I 0 W/m² -2,0 °C 4,8 km/h (1 Bft)
02.12.2016 23:32 -0,9 °C -0,9 °C 92 % 1021,5 hPa 0,0 mm 1,2 km/h (1 Bft) S-SO 149 ° 0 min 0,000 mm 0,0 UV-I 0 W/m² -2,0 °C 1,6 km/h (1 Bft)
02.12.2016 23:33 -0,9 °C -0,9 °C 92 % 1021,6 hPa 0,0 mm 0,5 km/h (0 Bft) S-SO 149 ° 0 min 0,000 mm 0,0 UV-I 0 W/m² -2,0 °C 1,6 km/h (1 Bft)
02.12.2016 23:34 -0,9 °C -0,9 °C 92 % 1021,5 hPa 0,0 mm 0,0 km/h (0 Bft) S-SO 149 ° 0 min 0,000 mm 0,0 UV-I 0 W/m² -2,0 °C 0,0 km/h (0 Bft)
02.12.2016 23:35 -0,9 °C -0,9 °C 92 % 1021,6 hPa 0,0 mm 0,0 km/h (0 Bft) S-SO 149 ° 0 min 0,000 mm 0,0 UV-I 0 W/m² -2,0 °C 0,0 km/h (0 Bft)
02.12.2016 23:36 -0,9 °C -0,9 °C 92 % 1021,6 hPa 0,0 mm 0,0 km/h (0 Bft) S-SO 149 ° 0 min 0,000 mm 0,0 UV-I 0 W/m² -2,0 °C 0,0 km/h (0 Bft)
02.12.2016 23:37 -0,9 °C -0,9 °C 92 % 1021,6 hPa 0,0 mm 0,0 km/h (0 Bft) S-SO 149 ° 0 min 0,000 mm 0,0 UV-I 0 W/m² -2,0 °C 0,0 km/h (0 Bft)
02.12.2016 23:38 -0,9 °C -0,9 °C 91 % 1021,6 hPa 0,0 mm 0,0 km/h (0 Bft) S-SO 149 ° 0 min 0,000 mm 0,0 UV-I 0 W/m² -2,2 °C 0,0 km/h (0 Bft)
02.12.2016 23:39 -0,9 °C -0,9 °C 91 % 1021,6 hPa 0,0 mm 0,0 km/h (0 Bft) S-SO 149 ° 0 min 0,000 mm 0,0 UV-I 0 W/m² -2,2 °C 0,0 km/h (0 Bft)
02.12.2016 23:40 -0,9 °C -0,9 °C 91 % 1021,6 hPa 0,0 mm 0,0 km/h (0 Bft) S-SO 149 ° 0 min 0,000 mm 0,0 UV-I 0 W/m² -2,2 °C 0,0 km/h (0 Bft)
02.12.2016 23:41 -0,9 °C -0,9 °C 91 % 1021,6 hPa 0,0 mm 0,0 km/h (0 Bft) S-SO 149 ° 0 min 0,000 mm 0,0 UV-I 0 W/m² -2,2 °C 0,0 km/h (0 Bft)
02.12.2016 23:42 -0,9 °C -0,9 °C 91 % 1021,6 hPa 0,0 mm 0,0 km/h (0 Bft) S-SO 149 ° 0 min 0,000 mm 0,0 UV-I 0 W/m² -2,2 °C 0,0 km/h (0 Bft)
02.12.2016 23:43 -0,9 °C -0,9 °C 91 % 1021,6 hPa 0,0 mm 0,0 km/h (0 Bft) S-SO 149 ° 0 min 0,000 mm 0,0 UV-I 0 W/m² -2,2 °C 0,0 km/h (0 Bft)
02.12.2016 23:44 -0,9 °C -0,9 °C 91 % 1021,6 hPa 0,0 mm 0,0 km/h (0 Bft) S-SO 149 ° 0 min 0,000 mm 0,0 UV-I 0 W/m² -2,2 °C 0,0 km/h (0 Bft)
02.12.2016 23:45 -1,0 °C -0,9 °C 91 % 1021,7 hPa 0,0 mm 0,0 km/h (0 Bft) S-SO 149 ° 0 min 0,000 mm 0,0 UV-I 0 W/m² -2,3 °C 0,0 km/h (0 Bft)
02.12.2016 23:46 -1,0 °C -0,9 °C 91 % 1021,6 hPa 0,0 mm 0,0 km/h (0 Bft) S-SO 149 ° 0 min 0,000 mm 0,0 UV-I 0 W/m² -2,3 °C 0,0 km/h (0 Bft)
02.12.2016 23:47 -1,0 °C -0,9 °C 91 % 1021,7 hPa 0,0 mm 0,0 km/h (0 Bft) S-SO 149 ° 0 min 0,000 mm 0,0 UV-I 0 W/m² -2,3 °C 0,0 km/h (0 Bft)
02.12.2016 23:48 -1,0 °C -1,0 °C 91 % 1021,7 hPa 0,0 mm 0,0 km/h (0 Bft) S-SO 149 ° 0 min 0,000 mm 0,0 UV-I 0 W/m² -2,3 °C 0,0 km/h (0 Bft)
02.12.2016 23:49 -1,0 °C -1,0 °C 91 % 1021,7 hPa 0,0 mm 0,0 km/h (0 Bft) S-SO 149 ° 0 min 0,000 mm 0,0 UV-I 0 W/m² -2,3 °C 0,0 km/h (0 Bft)
02.12.2016 23:50 -1,1 °C -1,0 °C 91 % 1021,7 hPa 0,0 mm 0,0 km/h (0 Bft) S-SO 149 ° 0 min 0,000 mm 0,0 UV-I 0 W/m² -2,4 °C 0,0 km/h (0 Bft)
02.12.2016 23:51 -1,1 °C -1,0 °C 91 % 1021,7 hPa 0,0 mm 0,0 km/h (0 Bft) S-SO 149 ° 0 min 0,000 mm 0,0 UV-I 0 W/m² -2,4 °C 0,0 km/h (0 Bft)
02.12.2016 23:52 -1,1 °C -1,0 °C 91 % 1021,7 hPa 0,0 mm 0,0 km/h (0 Bft) S-SO 149 ° 0 min 0,000 mm 0,0 UV-I 0 W/m² -2,4 °C 0,0 km/h (0 Bft)
02.12.2016 23:53 -1,1 °C -1,1 °C 91 % 1021,7 hPa 0,0 mm 0,0 km/h (0 Bft) S-SO 149 ° 0 min 0,000 mm 0,0 UV-I 0 W/m² -2,4 °C 0,0 km/h (0 Bft)
02.12.2016 23:54 -1,1 °C -1,1 °C 91 % 1021,7 hPa 0,0 mm 0,0 km/h (0 Bft) S-SO 149 ° 0 min 0,000 mm 0,0 UV-I 0 W/m² -2,4 °C 0,0 km/h (0 Bft)
02.12.2016 23:55 -1,1 °C -1,1 °C 91 % 1021,7 hPa 0,0 mm 0,0 km/h (0 Bft) S-SO 149 ° 0 min 0,000 mm 0,0 UV-I 0 W/m² -2,4 °C 0,0 km/h (0 Bft)
02.12.2016 23:56 -1,1 °C -1,1 °C 91 % 1021,7 hPa 0,0 mm 0,0 km/h (0 Bft) S-SO 149 ° 0 min 0,000 mm 0,0 UV-I 0 W/m² -2,4 °C 0,0 km/h (0 Bft)
02.12.2016 23:57 -1,1 °C -1,1 °C 91 % 1021,6 hPa 0,0 mm 0,0 km/h (0 Bft) S-SO 149 ° 0 min 0,000 mm 0,0 UV-I 0 W/m² -2,4 °C 0,0 km/h (0 Bft)
02.12.2016 23:58 -1,1 °C -1,1 °C 91 % 1021,7 hPa 0,0 mm 0,0 km/h (0 Bft) S-SO 149 ° 0 min 0,000 mm 0,0 UV-I 0 W/m² -2,4 °C 0,0 km/h (0 Bft)
02.12.2016 23:59 -1,1 °C -1,1 °C 91 % 1021,7 hPa 0,0 mm 0,0 km/h (0 Bft) S-SO 149 ° 0 min 0,000 mm 0,0 UV-I 0 W/m² -2,4 °C 0,0 km/h (0 Bft)
_ Min-Zeit 01:51 03:44 00:02 14:14 - 23:59 - - - - - - 03:28 23:59
Minimum _ -7,6 °C -4,0 °C 64 % 1021,2 hPa - 0,0 km/h (0 Bft) - - - - - - -6,6 °C 0,0 km/h (0 Bft)
_ Max-Zeit 13:31 13:32 23:09 00:25 19:42 11:13 - - 23:59 14:01 12:24 13:49 18:55 11:14
Maximum _ 5,2 °C 5,2 °C 93 % 1023,4 hPa 0,2 mm 17,0 km/h
W (3 Bft)
- - 0 min 0,076 mm 1,0 UV-I 186 W/m² 0,2 °C 25,7 km/h
W-SW (4 Bft)
Durchschnitt _ 0,7 °C 0,7 °C 80 % 1022,2 hPa #0,4 mm 3,3 km/h (1 Bft) W-SW - #0 min. #0,457 mm 0,8 UV-I 21 W/m² -2,4 °C 5,4 km/h (1 Bft)